GFSWCAN_sfc_thetae_003.txt.gz
Theta_e
307 307 307 307 307 307 307 307 307 308 308 308 308 308 308 308 308 311 313 319 311 298 303 307 309 303 302 298 288 297 295 292 289 286 286 285 286 284 283 288 283 282 279 282 281 283 279 297 295 286 292 295 299 296
308 306 306 306 306 306 307 307 307 307 307 307 307 307 307 308 308 309 309 318 317 305 304 313 313 313 311 308 303 299 296 297 295 286 286 286 286 286 285 284 292 285 287 282 285 284 294 297 296 298 300 298 297 297
305 306 306 305 305 305 306 306 306 306 306 306 306 307 307 307 308 310 310 313 309 293 302 303 303 311 316 313 314 296 294 303 300 301 292 288 287 288 285 286 286 293 296 288 287 293 295 297 299 300 300 298 301 301
304 304 305 305 305 304 305 305 304 305 305 306 306 306 306 307 308 308 309 314 309 297 287 296 308 307 314 313 312 311 307 308 306 301 289 287 286 295 287 291 290 293 292 290 290 294 296 297 297 299 300 302 301 300
303 303 304 304 304 304 304 304 304 304 304 305 305 306 306 307 307 307 309 312 313 305 289 291 301 307 310 310 310 309 308 305 297 291 287 287 290 290 289 288 288 295 292 289 288 295 295 296 298 301 300 299 300 297
303 303 303 303 304 304 303 303 303 304 304 305 305 306 306 306 306 306 299 307 311 311 293 287 299 299 304 306 305 306 305 304 302 295 288 293 298 293 286 288 294 297 299 299 296 299 299 299 299 299 298 298 296 295
302 303 303 302 302 302 302 303 303 303 304 304 305 305 305 305 307 301 297 302 308 309 289 288 289 295 298 300 301 301 303 301 300 295 291 291 292 295 286 288 295 298 298 299 300 300 298 298 295 297 296 296 296 295
301 303 302 302 302 302 302 302 303 304 303 304 304 304 305 306 304 299 302 304 307 300 291 288 287 288 297 290 288 293 289 291 294 293 290 289 292 289 286 294 296 297 298 298 299 300 297 295 294 293 294 294 293 292
301 302 301 301 301 301 301 302 303 303 304 304 304 304 302 299 294 297 303 302 301 297 289 285 285 285 296 291 289 289 291 285 291 286 288 291 287 287 291 293 295 296 295 295 295 295 293 292 292 292 292 292 291 292
301 301 301 301 300 300 301 302 303 303 303 303 301 295 288 293 302 302 297 290 289 288 288 285 289 287 294 287 286 286 286 285 283 286 290 286 285 293 295 296 297 295 294 295 289 288 289 288 290 290 290 291 290 288
300 301 301 300 300 300 301 301 302 302 301 299 291 288 296 302 298 291 285 285 285 284 285 286 288 287 292 286 285 286 284 285 281 279 280 276 280 288 293 294 295 295 295 294 292 292 291 290 290 289 286 286 284 283
301 301 301 300 300 301 301 302 301 298 298 297 296 299 297 294 288 285 284 285 284 281 286 286 287 290 288 293 286 286 282 282 276 282 279 278 282 290 292 292 293 291 291 290 289 288 289 290 289 286 285 284 282 283
301 301 301 300 300 300 301 298 299 300 300 299 292 287 290 286 282 278 277 282 280 286 287 286 286 286 288 288 285 284 280 279 280 280 277 278 287 291 290 290 290 289 286 285 288 288 289 288 288 282 282 280 285 284
300 300 300 300 300 299 299 298 299 299 294 285 283 276 278 278 277 281 282 285 285 286 286 286 285 283 284 282 283 279 278 279 273 270 272 279 286 289 290 289 289 289 283 283 285 285 283 281 282 280 277 284 284 280
299 299 299 299 299 298 298 298 298 297 290 283 281 274 275 281 284 285 286 286 286 287 287 285 285 283 277 276 276 274 271 275 273 272 275 281 286 286 287 289 288 282 279 280 285 282 281 280 285 286 286 285 283 282
299 297 296 299 299 299 298 297 297 295 285 283 280 276 279 278 283 283 285 285 287 286 285 282 278 273 272 274 271 271 270 271 273 276 279 281 285 286 286 285 285 285 285 285 285 284 284 280 284 286 286 285 285 283
297 292 298 298 298 298 297 293 288 284 281 278 276 282 284 282 284 284 285 284 289 281 275 275 271 273 277 270 270 277 272 274 276 278 280 283 284 285 285 285 283 284 285 284 284 284 284 281 281 284 284 284 283 281
293 296 297 297 296 296 293 291 283 280 276 278 275 277 278 280 284 285 285 285 286 281 278 275 278 271 268 267 269 273 275 276 279 278 280 285 285 285 286 285 287 285 284 284 283 283 282 277 281 282 284 284 281 281
295 295 296 296 296 288 282 282 286 278 277 278 279 279 279 278 279 280 282 282 282 282 278 275 270 269 272 273 272 275 276 276 280 282 282 284 284 284 285 285 285 284 284 284 283 284 282 283 285 286 285 282 282 282
296 296 296 296 296 284 281 282 286 281 278 280 278 277 278 277 278 283 283 284 279 277 274 273 273 276 275 279 279 278 280 281 281 281 283 285 285 284 285 285 286 286 285 285 284 280 281 283 284 285 285 284 284 284
293 293 295 295 289 290 282 279 278 282 279 278 279 279 276 278 276 280 282 280 281 280 274 278 280 282 281 282 283 282 284 284 284 283 284 283 285 285 285 286 285 283 280 281 284 285 284 285 286 285 285 285 285 285
292 295 289 289 285 284 280 282 279 280 277 276 276 277 273 271 272 274 278 277 276 277 280 281 282 282 283 283 285 284 285 285 284 282 280 281 282 284 285 285 283 283 283 285 286 286 286 287 287 285 285 285 283 283
293 291 287 285 281 280 276 282 275 278 272 272 274 272 271 271 276 280 272 278 279 282 284 283 284 285 284 285 284 284 285 284 283 282 282 282 283 281 283 284 282 285 285 286 286 286 286 287 286 285 284 284 280 282
292 286 281 279 277 270 278 280 280 275 273 272 271 268 272 273 276 272 271 273 280 281 281 283 282 283 282 282 281 282 283 282 281 280 280 280 281 283 284 285 285 286 286 286 286 286 285 285 284 283 283 282 282 282
280 281 281 276 277 276 274 272 277 271 268 270 269 268 271 274 269 268 270 274 275 280 281 282 281 282 281 277 278 281 282 282 280 279 279 278 282 284 284 285 285 286 287 285 285 285 284 284 282 280 280 282 282 281
277 278 276 273 276 273 273 267 269 270 268 268 270 273 272 269 266 268 274 273 275 276 277 279 279 276 279 282 280 279 280 280 279 277 279 282 283 283 282 282 283 284 285 285 284 284 284 280 278 279 280 282 282 281
276 273 277 281 279 277 272 273 274 271 268 267 268 269 270 269 266 273 277 278 279 279 281 281 282 282 282 282 280 280 278 278 279 282 284 284 284 284 283 282 282 283 286 286 285 284 284 282 282 282 283 282 282 280
275 275 273 275 275 275 269 269 269 269 270 275 272 268 268 269 271 277 281 281 280 282 283 285 284 284 284 282 279 277 281 283 285 284 284 284 285 285 285 285 286 285 284 285 284 285 285 285 285 284 283 282 281 281
274 277 277 271 271 272 272 272 272 276 278 277 274 273 273 277 277 278 280 282 284 283 279 279 283 285 285 284 278 282 284 284 282 280 279 280 280 279 280 283 285 285 283 284 284 284 284 285 284 284 283 278 279 282
273 280 273 270 269 270 274 277 275 277 280 282 283 281 281 283 285 285 285 285 285 285 285 282 280 284 282 281 276 281 283 284 285 283 280 272 274 280 283 283 284 284 285 285 284 279 282 283 283 282 281 280 278 276
278 277 273 274 274 279 280 282 283 277 276 279 283 281 281 282 284 279 276 281 281 284 283 282 282 283 282 281 280 279 279 282 278 280 279 280 282 283 284 283 283 283 282 280 280 279 280 281 281 280 279 278 278 276
275 275 276 274 276 279 280 278 276 277 278 278 281 283 283 282 280 278 275 277 278 279 279 279 278 278 279 278 280 281 277 274 273 274 271 270 272 276 280 282 283 281 280 279 279 279 279 279 279 278 277 276 275 273
273 276 278 277 274 270 273 274 273 273 276 277 278 280 280 279 278 274 274 276 275 273 273 274 275 274 278 277 277 277 274 274 273 274 274 272 271 272 272 272 275 278 280 280 278 278 277 276 275 275 275 273 270 268

GFSWCAN_sfc_thetae_006.txt.gz
Theta_e
307 307 307 306 307 307 307 307 307 307 307 307 308 308 308 308 308 310 311 315 308 296 301 306 307 301 300 295 288 294 294 290 288 286 284 281 284 283 282 286 283 282 278 281 280 279 279 294 295 287 290 292 296 296
308 306 306 306 306 306 306 307 306 306 306 306 307 307 307 308 308 309 306 314 313 303 301 309 310 311 309 305 300 296 295 293 291 286 286 281 285 285 280 283 290 285 286 282 283 283 291 294 296 296 298 296 295 297
306 307 306 306 305 305 306 306 306 306 306 306 306 307 307 307 308 309 307 310 305 293 299 300 302 309 313 311 310 295 290 301 297 296 289 287 286 287 286 286 286 291 294 286 287 291 293 295 298 299 297 295 300 300
304 304 305 305 305 304 304 304 305 305 305 306 305 306 306 306 307 308 306 309 305 296 287 296 306 305 311 310 309 307 305 305 304 299 288 287 286 294 287 291 289 293 294 290 290 294 295 296 296 297 300 300 298 298
303 303 303 304 305 305 304 304 304 304 304 305 305 306 306 307 308 308 307 309 310 303 290 292 300 305 308 309 308 308 306 302 293 290 286 288 289 289 288 287 288 294 293 289 288 295 294 295 299 298 296 295 294 293
303 302 303 303 303 304 304 304 304 304 304 304 305 305 306 306 307 306 300 305 308 312 294 288 299 297 302 304 304 303 303 302 300 293 288 291 297 293 286 287 294 297 299 300 296 299 298 299 298 298 295 295 296 295
302 302 302 302 302 302 302 303 303 303 304 304 305 305 305 305 307 302 298 302 308 309 289 288 289 293 296 298 298 298 300 299 299 296 290 291 292 296 286 289 295 297 297 299 300 298 295 295 293 295 294 294 294 293
301 302 302 301 301 301 302 302 303 303 303 304 304 305 305 305 304 300 302 304 307 300 292 287 287 289 297 289 287 292 288 291 294 294 290 289 290 288 286 295 296 297 298 298 298 296 295 295 294 292 293 293 292 290
301 301 301 301 301 301 302 302 303 304 304 304 304 304 302 299 295 297 302 302 300 298 289 286 286 286 295 291 289 287 288 286 290 286 288 290 286 286 290 292 294 295 293 293 293 293 293 291 290 292 292 290 290 289
301 301 301 300 300 301 301 302 302 303 303 303 300 295 288 293 302 301 297 291 289 288 288 285 288 287 294 287 285 286 285 285 283 286 290 286 287 294 295 296 296 293 293 293 288 287 288 287 287 287 288 289 287 286
301 301 300 300 300 301 301 302 301 301 301 298 290 288 296 302 297 290 285 286 286 284 285 286 287 287 291 286 285 286 284 284 280 278 284 277 281 286 291 291 292 292 292 292 290 289 287 287 286 286 285 285 282 282
301 301 300 300 300 301 301 301 300 299 298 297 296 298 296 293 287 285 284 284 284 281 285 285 286 289 287 292 285 284 281 282 277 280 279 279 280 287 288 288 289 288 289 289 288 288 288 287 287 285 284 283 281 280
300 301 301 300 300 301 301 299 300 300 300 298 291 287 289 286 282 279 278 281 281 284 286 286 285 286 287 287 284 281 279 278 276 279 278 276 285 288 288 289 290 290 287 285 289 289 288 286 285 281 282 281 278 280
300 300 301 300 300 300 298 299 299 297 294 284 282 279 281 276 278 279 281 282 285 285 286 286 285 283 283 276 281 278 277 276 275 275 271 278 283 286 287 288 288 287 283 282 285 285 283 281 281 281 286 285 284 284
300 300 300 300 299 298 298 298 298 295 286 281 280 274 276 281 282 284 285 285 285 286 286 285 283 283 276 273 272 274 271 275 276 271 274 278 283 284 285 286 286 282 281 281 285 282 281 280 279 280 283 285 282 283
299 298 297 299 298 298 298 297 296 293 282 280 279 274 278 281 281 283 284 285 286 284 281 280 276 273 272 272 269 268 269 269 271 272 277 280 283 283 284 283 284 283 283 284 285 284 283 281 282 282 284 286 282 285
296 293 298 298 298 297 297 293 287 283 278 275 273 281 281 279 276 283 281 285 287 284 273 273 271 273 274 267 267 275 270 272 274 277 280 282 283 283 283 283 281 283 284 284 284 283 283 283 279 282 282 282 280 283
292 297 298 298 295 295 292 287 282 279 276 275 273 273 274 274 282 282 284 284 286 283 275 274 277 270 268 266 268 272 273 274 278 278 279 281 283 283 284 283 285 284 284 284 283 282 282 280 280 282 281 281 281 282
295 296 297 297 294 286 282 282 283 274 275 274 275 274 275 274 275 276 276 284 285 285 278 272 267 267 269 270 268 270 269 272 277 282 283 283 282 283 284 284 284 283 283 283 284 284 284 283 283 284 284 280 282 282
296 296 296 296 295 284 279 277 283 277 275 277 274 274 275 275 273 273 282 280 283 282 280 278 272 273 273 277 277 276 278 278 277 278 282 283 282 283 283 283 283 284 284 284 283 278 280 282 282 283 283 283 284 282
293 294 295 293 289 284 279 276 275 277 278 276 276 277 274 270 273 276 281 278 281 279 277 278 277 280 281 280 279 280 281 280 281 279 282 282 284 280 282 283 282 282 281 282 281 283 281 280 284 284 284 285 285 285
290 294 288 289 282 279 276 278 277 277 275 274 274 274 270 269 268 274 275 281 280 277 278 279 281 281 281 281 282 282 283 283 284 282 280 280 280 281 281 281 277 281 284 285 285 285 285 286 286 286 286 285 284 282
291 288 284 285 276 274 272 278 274 276 271 272 271 270 267 266 271 277 269 276 277 280 283 283 283 283 283 284 283 283 283 283 283 281 280 279 279 276 276 278 274 279 282 284 285 285 285 286 286 285 285 284 282 280
290 283 280 279 273 266 271 277 275 272 268 269 267 265 268 269 272 268 268 269 277 279 279 282 283 282 281 281 281 282 283 281 281 279 277 275 275 277 277 283 284 284 285 285 285 285 285 285 283 282 283 282 281 280
275 279 280 276 279 276 275 266 267 267 266 264 263 263 268 269 267 263 266 276 272 276 278 280 278 281 280 281 276 279 279 281 279 278 276 275 272 275 281 283 284 284 285 285 284 285 285 284 281 282 279 278 280 281
270 274 276 275 271 269 269 263 263 266 262 263 265 269 264 264 263 267 271 271 270 272 271 274 275 274 277 281 281 279 280 277 277 275 276 276 276 280 281 280 280 282 283 284 283 284 283 283 282 277 273 279 278 280
268 270 275 278 276 273 266 265 267 265 263 265 265 264 265 267 265 270 274 275 276 276 277 277 278 278 279 281 281 280 277 277 279 279 279 282 283 282 283 281 280 282 285 285 284 284 283 283 282 281 280 282 282 282
272 268 272 273 273 272 267 262 263 266 267 271 267 265 267 268 269 274 277 280 278 279 279 279 280 282 282 280 277 276 274 274 274 276 275 276 277 278 279 283 284 284 283 285 284 284 284 284 284 284 283 283 283 282
276 273 275 272 270 271 270 270 269 272 275 272 268 266 269 274 273 273 277 278 279 278 280 283 282 280 284 281 281 282 282 278 277 276 279 279 280 276 273 276 281 281 283 284 284 284 284 284 284 284 284 283 283 281
272 276 274 265 268 269 272 273 270 270 272 279 278 276 276 276 279 281 280 280 276 282 282 279 279 283 284 282 281 276 277 281 283 281 278 276 275 274 281 283 282 282 283 283 284 282 279 278 281 282 282 280 279 278
270 266 266 264 266 271 275 271 269 269 267 272 278 277 279 280 274 275 272 276 280 282 282 281 281 280 280 279 278 278 277 275 275 273 271 270 273 276 278 280 282 282 282 270 270 271 274 275 276 279 278 278 277 277
264 267 269 267 274 274 274 273 274 273 273 268 277 269 273 270 275 273 273 272 274 273 273 273 273 274 275 273 275 275 273 272 270 269 269 268 268 269 271 271 274 277 275 270 269 271 273 275 276 275 275 275 275 274
265 262 262 262 264 263 268 267 266 266 263 271 275 276 276 273 275 271 272 273 270 270 269 270 271 273 273 275 275 273 272 272 273 274 273 272 270 269 269 269 270 272 273 273 272 272 270 270 268 267 267 267 266 265

GFSWCAN_sfc_thetae_009.txt.gz
Theta_e
307 306 307 306 306 307 307 307 307 307 307 307 308 308 308 308 308 310 308 311 305 294 299 304 304 299 298 294 288 294 292 289 288 285 279 280 274 281 281 285 282 281 279 277 279 279 276 292 293 286 291 291 294 294
307 306 306 306 306 306 306 307 306 306 306 306 307 307 308 308 308 309 306 311 310 302 301 307 309 308 305 303 298 294 294 292 290 287 285 279 282 283 283 283 288 284 286 282 283 283 290 292 294 295 296 293 292 293
306 306 305 305 305 305 306 306 306 306 306 306 306 307 307 307 308 309 306 307 304 293 299 300 302 305 311 308 307 295 288 298 294 294 287 286 286 287 285 286 287 291 293 285 287 291 292 295 298 299 297 294 299 297
304 305 305 305 305 305 305 305 305 305 305 305 305 305 306 306 307 308 305 306 303 295 286 294 303 304 309 310 308 305 303 302 299 293 287 286 286 293 287 291 289 293 293 289 290 294 295 296 297 297 299 297 294 294
303 303 303 304 304 305 304 305 304 304 305 305 305 306 306 307 307 307 308 310 310 303 290 292 299 304 306 306 305 305 304 300 293 289 286 287 287 289 287 287 287 294 291 289 289 295 294 296 298 297 294 293 294 293
302 302 302 303 303 304 304 303 303 303 304 304 304 305 306 306 307 307 301 307 310 311 293 288 298 296 300 301 302 301 302 302 297 293 288 291 296 292 286 287 294 297 299 299 295 299 299 299 295 295 294 294 295 295
302 302 302 302 302 302 303 303 303 303 304 304 304 305 305 305 308 303 300 301 306 309 290 288 289 291 294 296 296 296 297 296 298 294 290 292 294 295 286 288 295 297 298 298 299 299 295 294 291 294 294 293 293 292
302 301 301 301 302 302 302 302 303 303 303 304 304 304 304 305 304 300 302 305 306 301 293 288 287 289 295 288 287 292 288 290 293 294 289 288 289 288 287 293 294 295 295 296 295 295 294 293 293 292 291 291 291 289
301 301 301 301 301 301 302 302 303 303 304 304 304 304 302 300 295 297 303 302 301 299 288 286 286 286 294 290 288 286 288 286 289 286 287 289 286 286 291 292 292 293 292 291 291 292 293 289 290 289 288 287 287 286
301 301 300 300 300 301 301 302 303 303 303 303 300 296 288 292 302 301 297 293 291 289 289 286 288 286 294 286 286 286 286 285 283 286 290 285 286 291 290 290 291 291 291 290 286 287 286 284 284 284 284 286 285 284
301 301 300 300 300 301 301 301 302 303 302 296 290 288 296 302 297 290 286 286 286 285 285 286 286 287 291 286 285 286 285 284 280 278 283 280 280 284 287 287 288 288 288 287 287 287 286 286 285 284 283 284 283 282
301 301 300 300 301 301 301 300 300 299 297 296 295 298 295 293 287 286 285 284 284 283 285 285 286 289 287 292 285 284 281 282 276 280 280 276 280 286 287 287 288 288 289 289 289 288 289 288 287 285 284 283 281 280
300 301 300 300 301 301 301 300 300 301 300 296 291 287 289 285 283 282 279 281 281 284 286 286 285 286 287 287 284 281 278 276 278 277 275 277 284 287 287 287 288 289 286 284 286 288 288 287 286 282 282 283 284 283
300 300 300 300 300 299 299 300 299 297 292 282 281 281 282 279 282 280 280 280 284 285 285 286 285 283 284 277 281 278 276 276 276 274 271 276 282 284 285 285 285 285 282 281 283 283 282 281 281 280 277 282 282 282
300 300 300 300 300 298 298 298 298 293 286 282 277 273 278 279 283 284 285 285 285 286 286 285 284 282 279 274 278 276 273 273 276 271 273 278 283 283 283 284 284 281 280 281 283 282 281 280 280 281 281 279 281 285
300 299 297 299 299 298 298 297 293 289 281 279 278 273 281 282 281 283 284 285 286 285 284 283 273 270 271 270 269 273 269 268 271 271 275 280 283 283 283 282 283 283 282 282 283 282 282 279 280 282 280 279 281 283
297 293 299 298 298 298 297 292 287 283 276 273 272 282 272 279 273 284 282 285 286 284 279 273 271 271 272 266 267 273 269 272 272 275 278 281 282 282 282 282 280 281 283 282 283 282 282 282 279 276 278 282 280 279
291 297 298 298 296 294 291 287 280 277 275 274 273 271 280 272 283 283 279 277 285 283 278 274 275 268 265 265 266 271 272 273 276 276 278 280 282 282 282 282 284 283 283 283 281 281 281 279 279 281 281 282 279 278
296 297 297 297 293 287 282 283 283 275 273 272 273 272 272 272 274 274 272 276 284 284 282 278 266 267 269 270 268 267 266 270 276 280 279 282 281 282 283 283 283 283 282 282 282 283 283 283 282 283 283 283 282 283
297 297 296 296 293 282 278 277 282 277 274 276 273 273 273 273 273 274 282 278 281 282 281 278 273 272 272 275 276 275 277 277 276 277 280 281 281 282 282 283 283 283 282 281 280 276 282 283 282 282 283 284 284 284
294 294 294 291 286 282 278 275 275 276 277 276 275 275 272 272 275 275 274 283 280 280 278 278 274 277 280 281 279 279 280 279 279 278 279 281 282 280 281 282 280 279 277 277 279 281 283 284 285 286 286 285 285 285
291 293 287 288 281 276 277 277 276 275 274 272 272 272 267 266 270 277 273 280 278 278 279 277 281 281 281 281 282 281 282 282 282 281 280 280 279 280 277 277 274 274 281 282 282 283 284 285 286 286 285 285 285 283
291 288 284 283 275 270 271 276 271 274 269 269 269 269 266 265 270 275 272 277 276 280 282 281 282 283 282 283 282 282 282 283 282 281 280 280 279 277 274 275 271 274 279 282 284 284 285 285 285 284 285 285 282 280
289 280 276 275 269 267 269 279 273 270 266 269 266 264 267 266 269 266 267 268 277 277 278 281 281 280 279 280 280 282 283 281 280 279 278 274 276 277 276 277 276 277 281 284 283 283 285 285 285 280 280 281 280 280
274 276 272 275 279 276 273 268 266 269 268 263 263 263 267 266 266 262 266 271 269 272 277 277 276 278 277 276 276 279 278 280 279 277 278 274 271 271 274 275 276 279 278 281 281 283 284 285 284 283 280 276 277 277
267 271 276 276 275 267 267 265 270 266 260 261 263 266 260 261 262 265 270 271 268 270 270 270 270 272 275 279 278 277 280 278 277 275 277 277 276 274 275 280 280 277 275 280 284 283 283 282 283 283 282 280 277 280
266 272 277 276 275 272 265 262 265 263 261 264 263 262 262 263 263 269 273 273 275 275 276 278 279 279 279 280 280 280 279 276 279 279 277 277 279 280 281 281 278 277 280 284 282 282 281 282 282 283 282 283 281 282
271 270 272 271 269 268 264 260 262 264 266 270 265 264 266 266 269 273 276 277 276 278 279 279 278 280 281 279 277 274 278 277 271 274 275 276 277 276 272 281 281 279 279 280 282 283 282 282 283 282 283 283 283 283
276 273 270 265 266 268 269 269 268 271 274 271 267 264 267 272 272 272 276 276 275 276 274 278 277 272 275 283 283 282 282 281 278 273 270 271 276 278 275 277 281 283 282 282 282 283 283 282 281 281 281 282 283 284
272 274 275 272 272 272 272 272 269 268 271 275 275 275 275 273 272 272 273 273 273 271 272 277 281 281 283 283 281 280 279 278 280 280 276 270 271 271 274 280 281 282 282 281 280 276 273 270 272 275 277 278 279 279
267 265 264 262 264 268 271 267 262 263 264 270 272 275 278 275 269 267 270 269 274 275 275 274 277 275 275 275 273 272 272 272 272 272 270 268 267 268 271 273 273 275 279 275 276 270 266 267 269 270 271 273 274 275
269 266 266 264 267 270 263 267 266 266 271 263 276 265 264 267 267 265 269 269 269 269 269 269 269 271 273 274 272 271 273 273 272 272 271 270 269 269 269 269 270 271 271 273 273 272 270 269 268 267 269 271 268 267
260 257 256 259 262 263 263 264 262 262 260 265 273 270 266 269 268 268 269 270 269 269 269 269 270 271 272 273 272 272 273 273 273 273 273 271 269 267 265 264 264 265 266 268 267 267 265 263 262 262 263 263 263 262

GFSWCAN_sfc_thetae_015.txt.gz
Theta_e
306 306 306 306 306 306 306 306 306 307 307 307 308 308 307 307 308 311 310 308 305 294 299 303 302 298 297 295 292 295 295 292 290 286 286 285 284 286 285 287 284 285 284 281 282 280 279 293 293 290 295 297 296 297
305 305 305 305 305 305 306 306 306 306 306 306 307 308 308 307 306 309 308 308 307 302 300 306 309 308 305 303 298 294 296 293 294 288 286 284 284 283 284 285 289 286 289 287 287 288 294 295 297 298 297 295 296 296
303 304 305 304 305 305 305 306 306 305 306 306 306 307 308 307 308 309 307 306 303 293 298 302 302 306 310 308 307 298 292 298 295 296 290 287 286 287 284 284 287 291 292 289 289 294 295 297 300 298 298 295 295 295
303 303 303 304 304 304 305 305 305 305 305 305 305 306 307 307 307 307 307 305 303 295 287 295 302 303 308 309 308 307 302 299 297 294 287 286 286 293 287 291 290 294 293 291 290 295 296 297 297 298 295 295 295 296
302 302 302 303 303 304 304 304 304 305 304 305 306 306 307 307 307 307 307 308 306 303 289 291 300 303 302 305 306 304 302 299 295 290 287 288 291 290 290 289 288 295 293 290 290 297 296 296 297 297 294 294 295 294
302 302 302 302 302 303 303 304 304 304 305 304 306 306 307 306 307 306 300 305 307 306 292 287 296 295 298 301 302 302 302 299 298 293 288 292 297 294 286 286 294 298 299 300 297 299 298 296 295 295 294 294 292 291
301 302 302 302 302 302 303 303 303 304 304 304 304 305 305 305 310 304 298 301 307 307 291 288 290 292 295 296 295 296 297 298 299 293 289 291 292 295 286 287 295 296 296 298 298 298 293 294 291 293 290 290 290 290
301 301 301 301 302 302 302 302 303 304 304 304 304 304 305 305 304 302 303 305 307 301 295 288 288 288 294 289 289 292 291 293 294 293 289 289 290 288 287 291 289 291 294 293 292 293 291 290 290 289 289 289 287 287
301 300 300 301 301 302 302 302 302 303 304 304 304 305 304 301 296 299 303 303 302 300 291 286 287 286 294 290 289 288 290 287 290 286 287 289 287 286 287 287 289 289 291 290 288 289 289 288 288 288 288 288 286 286
300 300 300 300 301 301 302 302 302 303 303 304 302 297 288 292 302 302 299 294 291 290 290 286 289 288 293 288 287 287 286 286 285 286 288 285 286 287 287 289 289 289 290 290 288 286 287 286 286 287 287 287 287 286
301 300 300 300 300 300 302 302 302 302 302 297 291 288 296 301 297 291 286 287 287 285 287 287 287 288 291 287 286 286 285 285 281 282 284 283 283 285 287 286 288 289 289 289 289 288 288 287 286 286 286 287 286 285
301 301 300 300 301 300 302 301 301 299 297 297 296 298 296 293 288 285 284 284 285 284 286 286 286 289 287 292 286 285 284 283 278 282 281 279 282 286 288 288 288 288 288 287 287 286 286 285 286 285 285 285 284 284
300 300 300 300 301 301 301 301 301 300 299 296 291 287 289 286 284 283 280 282 283 285 286 286 285 286 287 288 285 284 280 278 281 278 277 279 284 286 286 286 286 287 286 284 285 286 286 285 284 282 282 283 282 282
300 300 300 300 300 300 301 301 300 297 293 287 286 283 283 281 283 282 281 282 284 285 286 286 284 284 283 283 281 279 279 278 276 274 275 280 284 284 284 285 285 285 280 280 283 284 282 281 281 281 279 280 279 280
300 300 300 300 299 299 299 299 298 295 288 282 283 279 280 281 283 285 285 286 285 286 286 285 283 283 280 279 280 278 276 274 275 275 277 281 284 284 284 285 284 281 279 280 284 282 280 280 280 281 282 282 282 280
300 299 297 299 299 299 298 297 295 291 284 282 279 278 280 280 280 283 285 285 286 285 284 283 278 278 277 277 276 275 274 271 276 276 279 281 283 284 284 283 283 283 282 283 283 282 282 280 279 282 282 281 280 280
299 294 299 298 297 296 296 291 288 282 281 276 275 279 278 277 280 281 285 285 287 285 280 278 275 276 276 273 274 276 272 275 277 279 279 281 283 283 283 282 280 281 282 283 283 283 282 282 280 279 280 284 284 283
293 297 299 298 296 294 291 287 282 281 277 277 275 278 280 281 277 277 281 284 284 281 280 278 277 272 271 271 272 274 276 277 278 279 281 282 284 283 283 283 284 284 284 283 282 281 281 279 281 282 283 283 283 283
297 298 297 297 294 288 284 284 283 276 274 275 276 279 278 280 280 280 281 282 284 283 280 277 272 273 274 275 275 274 274 275 280 281 282 283 283 282 282 283 282 283 283 282 283 283 283 282 282 283 283 283 282 283
296 295 294 294 293 283 279 277 282 278 275 277 277 277 276 277 279 280 282 284 285 285 282 279 276 277 276 277 278 279 279 279 278 278 281 281 282 282 282 283 284 284 284 283 281 278 281 282 283 284 283 283 283 283
292 292 292 291 284 283 279 275 275 276 277 276 276 276 274 279 278 279 280 283 281 281 278 279 278 280 280 281 281 281 281 281 280 280 281 281 283 282 283 283 283 282 281 281 279 281 278 281 283 284 283 283 284 284
291 292 286 286 280 278 277 277 276 276 274 272 272 273 267 267 274 276 278 279 279 278 279 279 281 282 281 281 282 282 283 283 283 282 279 280 280 281 280 281 280 280 280 280 281 281 282 282 283 283 283 284 285 284
290 287 281 278 276 274 273 276 271 273 269 269 269 269 266 265 269 278 276 279 278 280 281 280 282 283 282 283 281 282 282 282 281 281 280 281 281 282 280 281 280 278 278 280 281 281 281 284 284 284 284 284 284 284
287 279 276 272 269 269 270 267 274 270 266 266 266 269 267 268 274 274 272 271 276 277 278 281 281 280 280 279 279 281 282 282 281 280 280 279 279 281 281 281 280 279 280 282 280 280 281 281 280 283 283 281 282 282
277 276 271 269 270 269 264 273 273 275 265 264 269 266 265 268 266 270 271 272 271 272 275 275 275 279 278 277 277 279 278 280 280 280 282 279 280 278 280 280 278 279 281 280 280 278 279 283 283 282 281 281 280 281
270 275 267 264 266 266 264 269 271 271 266 268 268 263 260 263 264 267 270 272 270 272 271 273 274 275 276 278 279 279 280 279 279 278 281 280 279 279 279 279 278 280 281 280 280 281 280 280 281 281 281 282 281 280
270 273 276 274 272 268 264 263 265 262 265 265 263 261 261 263 263 270 273 274 276 276 277 277 278 278 280 281 279 279 279 277 278 280 280 279 279 280 280 281 280 281 282 282 281 280 280 280 280 281 279 280 280 280
267 267 269 274 272 267 262 259 261 264 264 268 265 264 266 266 269 273 275 276 275 276 277 276 276 277 278 279 279 278 278 277 282 281 279 280 278 277 278 278 279 279 279 279 281 282 281 281 279 278 278 278 278 279
273 268 269 272 270 270 265 267 267 269 272 270 267 265 268 272 270 269 271 271 273 276 276 276 278 277 278 277 278 279 279 280 280 279 279 277 279 277 274 275 276 277 278 279 280 282 281 279 277 276 276 275 274 274
272 271 265 265 264 266 270 271 268 266 269 271 271 272 272 267 268 268 268 268 267 267 270 270 271 272 271 271 271 272 273 274 273 274 275 273 271 271 271 271 272 272 273 275 276 277 273 272 271 271 271 270 269 268
266 271 266 264 264 266 265 259 258 259 260 264 261 269 269 266 267 266 267 267 267 267 266 265 266 268 268 268 269 270 272 272 272 272 271 271 270 269 268 268 267 267 267 269 272 269 268 266 265 265 265 265 264 264
272 268 262 267 265 262 260 265 261 261 257 260 262 258 259 265 260 264 266 265 265 264 264 265 265 266 270 271 271 270 270 269 268 269 269 268 267 266 265 263 262 263 264 264 264 264 263 262 262 262 262 261 261 261
263 266 266 260 262 263 259 260 259 261 258 257 256 263 256 258 257 262 263 266 265 264 263 264 266 269 269 268 267 267 267 267 267 266 265 265 263 262 261 260 260 260 261 261 261 261 260 260 260 259 259 258 258 258

GFSWCAN_sfc_thetae_018.txt.gz
Theta_e
306 306 306 306 306 306 306 306 307 307 308 308 308 308 307 307 307 319 317 317 316 306 307 309 307 306 305 307 304 304 304 302 299 291 289 292 289 294 291 292 290 290 289 286 286 282 282 298 297 291 298 301 301 300
304 305 305 305 305 305 305 306 306 306 307 307 308 308 307 306 307 313 317 317 316 314 309 313 314 313 312 310 308 306 304 303 306 298 293 292 287 287 292 290 296 290 295 293 292 293 301 302 301 303 304 301 298 296
303 304 305 305 304 305 305 305 305 306 306 307 307 308 308 308 308 313 318 317 317 308 310 311 310 312 317 315 316 308 307 307 305 307 302 295 288 297 286 291 294 297 299 294 294 297 299 302 304 304 302 296 296 297
303 303 303 304 304 304 304 305 305 305 305 306 306 307 307 308 307 312 318 315 313 304 290 305 308 309 312 315 315 314 310 307 307 307 294 289 291 301 296 299 297 299 299 296 296 299 300 301 301 300 297 297 296 296
302 302 302 303 303 304 304 304 304 305 304 305 305 307 308 308 308 317 319 317 317 313 297 302 307 307 308 311 313 313 311 308 303 296 291 294 300 294 293 292 292 300 298 295 292 300 298 296 298 297 295 294 295 293
302 302 302 302 302 303 303 303 304 304 303 305 306 307 308 307 308 317 311 317 318 318 303 295 306 303 305 309 310 310 311 308 305 300 295 300 302 299 287 290 298 301 303 302 296 300 299 297 296 296 295 293 292 292
301 301 302 302 302 302 303 303 303 304 304 304 305 305 306 306 317 311 307 309 310 317 298 295 297 300 300 303 302 306 305 306 306 301 294 298 299 297 287 288 297 298 297 297 299 300 295 294 293 293 292 293 294 293
301 301 301 301 302 302 302 302 303 304 304 304 304 304 304 305 305 308 311 307 312 308 301 291 292 295 300 296 294 297 298 296 296 296 291 293 294 291 287 294 294 294 294 293 294 296 294 293 293 293 293 292 290 290
301 301 300 300 301 302 302 302 302 303 304 304 304 304 305 303 299 302 303 305 310 308 297 289 289 288 299 293 293 294 296 290 294 288 289 292 289 288 292 291 292 293 294 290 292 293 292 290 290 290 289 289 288 289
300 300 300 300 300 301 302 302 302 303 304 304 303 298 289 295 303 304 302 297 294 291 292 288 295 292 299 291 291 293 291 290 288 289 294 286 287 288 292 293 294 293 293 292 290 288 288 288 287 288 288 289 289 289
301 301 300 300 300 301 302 302 302 303 303 298 292 289 298 302 298 293 288 288 288 286 288 288 288 289 295 291 289 289 287 288 284 287 287 287 287 290 291 290 292 292 292 292 290 290 289 289 288 288 288 289 289 288
301 301 300 301 301 302 302 302 301 300 299 298 297 298 296 293 287 286 285 285 285 287 287 287 287 290 288 293 287 286 286 287 282 289 284 283 290 291 291 290 291 292 290 289 289 289 289 289 290 289 288 288 288 287
299 300 300 301 301 301 301 301 301 300 300 298 292 286 287 286 285 284 283 285 285 288 289 287 285 287 289 290 287 288 285 284 288 281 283 288 290 291 292 290 290 290 289 288 288 289 290 290 289 287 286 287 286 287
298 299 300 301 301 300 301 300 299 298 297 288 286 283 285 283 286 287 288 289 289 289 289 289 286 289 287 286 286 283 284 285 280 278 281 287 290 290 289 290 288 287 288 286 287 288 288 287 286 286 285 285 284 284
297 299 300 300 300 300 300 299 297 297 292 286 287 282 284 284 287 287 288 288 288 290 289 287 287 289 285 283 285 282 280 279 281 282 287 290 289 288 288 288 288 288 286 286 287 287 286 286 285 286 287 288 287 285
299 299 299 300 299 299 298 297 295 294 289 286 284 283 284 285 284 285 286 286 288 287 288 289 285 284 282 283 280 280 279 279 283 287 290 289 287 287 288 288 287 287 286 286 287 287 287 286 285 286 287 286 285 285
298 295 299 299 297 296 295 293 294 285 285 285 283 285 285 285 286 286 289 288 289 287 285 285 282 281 282 280 279 282 280 285 288 288 288 288 287 287 288 287 286 286 286 287 287 288 287 287 287 285 285 287 286 286
295 298 299 298 299 296 292 291 288 286 282 282 283 284 284 285 285 286 287 288 287 286 286 284 283 280 280 278 281 285 286 287 287 287 288 288 288 288 288 288 288 287 287 287 287 287 287 285 286 288 287 287 286 286
296 299 298 298 296 291 287 287 287 283 281 283 282 283 284 284 284 284 285 287 289 289 286 285 282 280 281 283 285 286 286 287 287 288 287 288 288 287 287 287 286 286 287 287 288 288 289 288 288 288 288 287 285 286
298 298 296 294 295 290 285 284 287 284 282 283 284 283 283 282 283 284 285 287 288 288 285 283 283 285 286 287 287 288 288 288 287 285 285 287 288 287 287 287 288 288 288 288 288 286 287 288 290 289 288 286 284 284
292 292 292 293 290 289 286 284 283 284 283 283 283 284 281 282 282 282 283 285 285 284 283 286 288 289 288 287 288 288 287 287 286 286 286 286 288 288 287 288 288 288 287 288 287 288 286 287 289 288 286 285 285 286
290 292 286 288 286 285 283 283 284 283 284 282 282 283 282 281 280 280 283 282 281 284 286 287 287 287 287 286 287 287 288 287 287 287 285 286 286 287 288 288 288 287 288 288 288 287 288 289 288 287 286 285 286 285
290 288 284 284 281 282 279 284 281 280 280 280 281 280 280 281 280 280 279 281 283 286 287 287 287 288 287 288 287 287 287 286 286 288 288 288 288 289 288 288 289 286 286 288 289 288 287 286 286 286 286 285 285 283
288 283 280 279 280 277 280 279 281 280 280 279 279 275 276 279 278 277 276 280 284 286 284 285 287 286 286 284 285 286 287 288 288 288 289 288 287 288 289 289 289 288 287 287 288 287 286 285 284 285 285 284 284 284
282 278 279 275 278 276 276 277 276 278 275 274 274 276 276 276 276 275 276 281 284 285 286 285 284 285 285 287 287 287 286 287 287 287 289 289 288 287 288 289 289 288 288 284 284 285 284 284 284 284 283 283 282 282
275 277 276 275 276 276 275 273 274 274 275 273 275 275 275 277 275 276 279 284 285 285 286 287 287 286 285 286 285 287 288 288 287 285 287 288 287 284 284 283 283 285 287 285 284 283 282 282 282 282 281 282 281 281
273 275 279 279 278 276 274 274 275 275 272 273 276 273 276 273 275 279 283 281 282 281 282 283 283 282 283 283 285 286 287 287 285 286 287 285 285 285 283 282 282 284 284 284 284 283 282 282 282 282 281 281 281 280
277 278 274 277 276 277 274 274 274 274 277 278 277 274 274 276 277 279 277 276 277 279 280 281 282 279 280 281 281 282 282 283 283 285 285 284 284 283 281 282 282 280 283 283 283 283 283 282 281 281 280 280 280 280
278 278 279 274 274 275 276 277 278 280 281 279 278 278 278 277 272 272 273 274 276 276 274 273 275 276 277 278 279 279 278 277 276 276 277 279 283 278 277 278 279 279 280 280 280 280 280 279 279 279 279 279 278 278
277 280 276 274 273 275 281 281 282 281 281 282 282 281 277 271 270 273 272 272 271 270 271 271 271 272 271 271 272 275 276 275 274 272 272 272 272 274 274 274 274 275 276 277 278 279 278 277 277 277 275 274 273 273
277 278 276 276 276 280 279 274 276 276 278 280 278 280 278 270 270 270 269 270 270 270 269 269 270 271 271 270 270 270 270 272 270 270 271 272 272 271 271 270 271 272 274 275 275 275 274 274 273 272 270 269 268 268
276 276 276 274 277 276 275 276 276 276 277 277 276 274 271 271 267 267 268 269 268 267 266 267 267 268 270 271 271 271 269 269 269 268 267 268 268 268 268 268 269 270 271 271 271 271 270 269 269 268 268 266 265 264
272 272 272 272 274 276 273 272 273 273 274 273 272 271 268 268 263 266 269 269 267 266 266 267 268 269 270 270 269 269 269 269 268 267 266 265 264 264 265 266 267 268 268 269 268 268 267 266 265 264 263 263 262 261

GFSWCAN_sfc_thetae_021.txt.gz
Theta_e
307 306 306 306 306 306 306 307 308 308 309 309 309 308 306 306 308 320 322 323 320 312 311 313 312 310 310 310 306 309 306 307 306 293 293 296 292 297 294 296 293 290 289 287 289 285 283 301 299 293 300 303 301 301
305 306 305 305 305 306 306 306 307 307 308 308 309 309 307 307 308 311 320 323 323 318 314 319 317 317 316 314 312 311 307 307 308 303 298 297 289 291 294 291 299 292 296 294 294 294 303 303 301 305 304 303 301 299
304 304 305 305 305 305 305 305 306 306 307 308 308 309 308 308 308 313 322 323 322 315 314 314 312 317 320 320 320 310 313 310 310 314 306 299 288 299 288 294 299 300 302 297 297 299 300 302 304 304 304 301 299 298
303 303 304 305 305 304 304 305 305 305 306 307 306 307 308 308 309 313 322 322 320 310 293 310 313 313 316 319 319 319 315 314 314 312 296 291 292 305 298 300 299 301 301 298 298 301 301 303 301 300 300 300 300 298
302 302 302 303 304 304 304 304 304 305 305 306 306 307 309 309 310 321 324 322 322 316 302 308 311 311 313 315 315 316 314 312 310 300 291 294 306 304 302 299 297 302 299 297 294 301 298 298 299 300 299 297 297 295
302 302 302 302 302 304 304 303 304 303 304 305 306 308 308 308 309 321 314 322 322 322 307 299 311 307 310 312 313 313 314 312 312 306 296 306 307 303 291 291 300 303 304 304 301 303 302 299 299 300 298 296 295 295
301 302 302 302 302 302 303 303 303 303 303 304 305 306 306 307 320 313 310 314 311 323 306 298 302 305 306 310 310 310 309 308 307 307 301 303 304 304 291 290 299 302 304 302 302 301 295 297 297 297 295 296 296 294
301 301 301 301 302 302 302 303 303 303 303 304 304 304 305 304 307 313 316 311 313 314 310 295 295 298 305 300 297 305 301 302 303 302 295 298 300 298 291 298 301 301 299 297 298 299 298 298 296 295 295 293 291 291
301 301 300 301 301 301 302 303 303 303 304 304 304 304 308 307 306 312 304 309 318 313 301 291 290 288 303 297 297 298 301 292 298 290 291 295 290 289 296 299 298 298 297 296 297 296 295 293 292 292 291 291 290 290
301 301 300 300 300 301 301 302 302 303 304 304 304 301 291 297 303 305 307 304 304 305 302 291 302 292 301 294 292 293 294 293 288 291 293 286 287 293 297 298 299 299 297 296 293 292 291 289 290 290 290 291 290 289
301 301 300 301 301 302 302 301 302 303 303 299 293 289 298 302 300 295 289 291 290 288 290 293 295 293 300 293 290 293 288 289 286 289 289 288 288 294 297 296 296 296 296 295 294 292 291 290 290 290 290 290 290 289
301 301 300 301 301 302 302 301 302 301 299 298 298 299 297 293 288 289 287 287 287 288 288 287 289 293 291 296 289 287 287 288 285 292 286 283 292 296 295 294 295 295 294 292 291 290 291 291 291 291 290 289 289 289
299 300 301 301 301 301 302 300 300 300 301 297 290 287 287 285 284 284 283 285 286 287 287 287 285 287 288 290 286 287 285 286 291 284 284 290 294 294 295 295 294 294 292 289 289 290 291 291 291 289 289 289 288 288
298 300 300 301 301 300 300 299 299 300 298 289 286 284 285 284 286 287 289 289 289 289 289 287 286 287 288 286 287 286 286 288 282 281 284 292 293 294 295 294 292 291 288 288 288 289 289 290 289 289 287 287 286 286
298 299 301 301 300 300 299 298 298 302 297 288 288 283 284 286 287 287 288 289 289 292 292 291 291 291 287 285 287 284 281 281 283 285 290 293 294 294 291 291 290 289 288 288 289 289 288 288 288 288 289 289 289 287
299 300 302 299 299 298 298 298 297 296 294 290 287 285 286 286 285 286 286 286 290 290 291 291 287 285 284 286 283 282 282 281 286 290 293 293 290 290 290 290 289 289 288 288 288 288 289 288 287 289 290 288 286 286
298 299 300 298 296 297 297 295 295 289 289 286 285 289 288 288 287 287 289 289 291 289 286 288 283 282 284 283 281 286 284 288 291 292 292 291 289 289 289 290 289 289 289 289 289 289 289 290 289 288 286 290 290 289
298 302 299 298 299 296 293 292 291 290 284 288 287 286 287 287 287 287 289 290 289 287 287 285 286 282 281 281 283 288 290 291 291 290 289 290 290 290 290 290 290 290 289 289 289 289 289 288 288 289 290 290 290 290
300 301 298 298 299 292 288 289 292 286 286 287 286 287 287 286 286 287 288 289 290 291 289 286 284 282 284 287 288 290 291 291 289 289 290 291 290 289 289 289 289 289 288 288 289 289 290 290 290 291 291 291 290 289
297 298 296 296 297 290 287 289 292 288 286 287 289 288 287 286 285 286 287 289 290 289 286 284 285 288 288 290 290 291 291 291 290 288 288 289 290 290 289 289 289 290 289 290 290 288 290 291 291 291 291 290 287 286
293 293 293 294 290 292 289 287 286 287 286 287 288 289 285 285 284 284 285 289 287 286 285 288 291 291 292 291 291 291 290 290 288 288 288 287 290 290 290 290 290 290 290 290 291 290 289 291 291 292 288 287 287 287
291 292 288 291 288 287 286 288 288 288 287 286 286 288 284 282 282 283 285 284 284 287 289 290 290 290 290 289 289 290 290 290 290 289 286 287 288 289 289 290 290 290 291 291 291 290 291 292 292 291 288 286 287 287
290 288 285 287 284 285 281 289 284 284 282 282 285 283 283 283 283 284 281 285 287 290 291 290 290 290 290 290 289 290 290 289 289 289 290 290 291 292 291 291 292 290 289 290 292 291 291 289 288 286 287 286 286 285
289 285 282 282 284 279 284 282 285 283 283 282 282 279 280 283 281 280 280 284 288 290 288 288 289 288 289 287 288 288 289 290 290 290 291 290 289 290 291 290 291 292 291 290 290 288 287 285 285 286 285 285 285 284
283 279 282 278 281 280 279 280 279 281 278 279 279 279 280 281 279 279 279 285 288 288 288 289 289 288 287 288 288 289 291 290 289 288 291 292 291 291 290 290 290 290 291 287 285 285 285 285 285 284 284 284 283 282
277 279 279 279 278 279 279 277 278 278 279 278 279 280 281 280 278 278 281 285 285 284 283 284 285 286 286 287 286 286 287 289 288 286 288 290 289 287 285 283 285 288 291 288 285 284 284 283 283 283 283 283 282 282
277 278 280 282 282 280 279 280 281 280 277 277 279 278 279 275 277 281 283 280 282 281 282 283 282 282 281 282 283 282 283 283 282 282 283 284 285 285 284 283 282 284 285 285 285 284 283 283 282 283 282 283 283 283
281 281 277 279 280 282 278 279 278 278 280 283 282 277 277 278 279 279 278 278 279 280 281 281 281 280 280 279 279 280 279 280 281 283 284 287 285 279 279 281 282 281 282 283 283 283 283 282 281 281 281 281 281 282
280 282 281 276 278 280 280 280 281 283 285 283 281 280 281 277 276 276 276 277 278 278 277 276 276 278 278 279 279 279 277 275 273 272 272 274 275 275 276 277 277 278 278 278 280 281 280 279 279 279 278 279 278 278
278 282 279 277 276 278 283 285 284 284 286 286 286 282 278 274 273 275 275 275 274 273 274 274 275 275 273 273 273 275 276 275 273 271 270 270 271 274 274 274 273 274 275 276 277 278 279 279 279 279 277 276 275 274
281 281 280 280 280 283 282 281 282 282 283 284 283 283 277 273 272 272 272 273 273 273 272 272 272 273 272 271 271 270 270 274 272 271 270 270 271 272 271 271 272 272 273 273 275 275 274 275 275 274 273 271 270 270
280 279 279 276 280 281 282 281 281 281 282 281 281 278 275 275 271 271 271 272 272 270 269 270 269 269 271 272 272 272 271 271 271 270 270 269 269 269 269 269 270 270 270 271 273 273 272 272 271 271 271 268 267 267
277 278 277 277 278 278 279 278 278 277 278 278 276 275 273 273 268 270 272 272 270 269 268 269 270 271 271 270 271 271 271 271 270 270 269 268 267 267 267 267 266 266 268 269 270 270 269 269 268 267 266 265 264 263

GFSWCAN_sfc_thetae_024.txt.gz
Theta_e
307 307 306 306 306 306 307 308 309 309 310 310 309 308 306 308 309 319 322 327 323 314 313 315 314 312 311 312 307 309 306 308 308 291 293 297 291 297 296 296 291 289 288 286 288 286 283 301 300 292 299 303 301 300
306 306 306 305 305 306 306 307 308 308 309 310 310 309 308 308 309 311 320 325 328 319 315 321 318 318 316 316 313 313 307 308 308 301 299 300 289 290 293 292 299 293 297 295 293 293 302 303 302 304 304 300 299 299
305 305 305 305 305 305 306 306 306 307 308 309 311 310 309 309 310 313 323 324 325 320 314 314 312 318 320 320 323 311 315 312 311 315 303 296 287 298 288 294 298 299 302 299 298 299 300 302 304 303 301 299 300 300
303 304 304 304 304 305 305 305 305 306 307 306 306 307 308 309 310 312 322 324 321 310 291 311 315 314 317 320 320 320 316 318 317 311 295 290 289 304 297 299 299 301 301 299 298 301 302 302 302 301 301 301 300 299
302 302 303 304 305 304 304 304 304 305 304 305 306 308 309 310 309 321 325 323 323 316 299 309 313 313 314 316 316 316 316 314 310 297 290 292 305 305 302 299 297 301 298 296 295 302 301 300 301 301 299 298 297 295
302 302 302 302 303 305 304 303 303 302 304 305 306 307 308 308 307 322 313 322 322 322 306 296 312 309 311 313 314 313 313 313 312 305 296 305 308 305 290 291 299 301 303 304 301 303 302 302 301 301 298 297 295 295
301 301 302 302 302 302 304 303 303 302 303 304 306 306 307 307 318 312 308 312 309 321 303 294 302 306 307 311 311 311 312 309 308 307 300 301 305 303 291 290 299 301 303 304 304 302 297 298 297 299 296 296 296 293
301 301 301 301 301 302 302 303 303 303 303 304 304 304 305 304 306 313 314 311 311 314 309 295 295 300 306 301 299 306 301 302 304 301 296 297 302 296 291 298 301 302 303 300 301 302 300 300 298 296 295 293 291 290
301 300 300 301 301 302 302 302 303 303 304 304 304 305 311 311 310 313 305 307 320 313 302 290 290 288 304 297 296 299 302 290 299 291 292 297 291 289 295 299 301 301 299 298 299 298 297 295 293 292 291 291 290 289
301 300 301 301 301 302 302 302 302 303 304 304 306 301 291 296 303 304 312 306 306 306 303 292 300 294 300 294 291 292 293 291 288 291 293 287 288 297 300 301 302 301 300 299 295 293 293 291 290 290 290 291 290 289
301 301 301 301 301 301 301 302 302 303 304 300 293 289 298 302 302 298 294 293 294 290 292 295 298 293 301 291 289 294 288 289 286 289 289 288 288 294 299 298 300 299 298 297 296 294 292 291 290 290 291 291 289 289
301 301 301 301 301 301 301 302 302 301 299 298 297 299 297 292 288 291 287 287 287 289 289 287 289 296 293 300 292 289 287 287 285 293 286 284 291 297 297 296 296 297 296 293 292 291 291 291 291 291 290 289 288 287
300 301 301 301 301 301 300 301 300 300 300 296 291 287 289 285 284 284 283 285 285 286 287 287 286 288 289 291 286 285 284 285 290 285 283 289 294 296 296 295 295 294 290 290 290 290 291 290 290 288 287 288 286 287
298 300 301 301 301 301 300 299 299 302 298 289 286 284 285 284 285 285 285 286 288 288 287 287 286 287 286 285 285 284 286 288 283 281 283 292 293 294 295 295 294 290 285 287 289 289 288 288 288 287 286 285 283 285
298 300 301 301 300 300 299 298 299 303 298 289 288 284 284 286 286 286 286 287 287 289 288 287 287 288 285 285 285 285 282 281 283 284 287 292 294 293 291 291 290 289 285 286 289 287 285 285 286 287 287 288 288 285
298 299 300 300 299 299 298 299 298 300 295 291 288 285 287 286 285 285 285 285 289 289 290 290 286 285 284 285 283 283 282 281 285 289 293 291 290 289 289 289 288 288 288 288 288 288 287 286 285 287 288 287 285 286
297 299 299 298 298 297 298 296 294 290 290 286 285 290 287 287 286 287 289 289 291 288 285 287 284 281 285 283 282 285 284 287 291 292 290 290 289 290 290 289 287 288 289 289 289 288 288 288 287 287 286 288 288 288
298 301 298 298 299 297 294 294 291 290 286 289 287 287 288 289 286 287 289 291 290 289 289 285 287 283 282 281 284 288 290 291 291 291 291 291 290 290 291 290 290 289 289 288 287 288 287 286 287 287 288 289 289 288
297 300 298 298 298 292 288 288 293 287 286 288 287 288 287 286 288 288 288 290 291 290 289 287 284 283 285 288 289 290 291 291 290 289 290 290 289 289 288 288 288 288 288 288 288 288 289 289 289 289 290 290 289 289
297 297 296 296 297 291 286 289 293 289 286 288 289 287 286 285 286 286 287 289 290 289 286 284 285 289 290 291 291 292 292 292 290 288 288 290 291 290 289 290 289 290 289 289 289 287 289 290 291 290 290 290 289 288
294 293 293 294 289 290 290 289 288 289 288 287 288 288 283 286 285 285 286 289 287 286 285 289 293 292 293 293 293 293 291 291 289 289 288 287 290 290 289 290 290 290 290 290 289 289 289 289 290 291 288 286 286 286
291 292 288 288 287 286 287 290 289 289 288 286 287 288 283 282 282 283 286 285 285 287 289 291 291 292 292 290 291 292 291 291 291 290 287 288 288 289 289 291 290 289 289 289 289 288 289 290 290 290 287 286 286 286
291 289 286 285 284 285 282 289 285 286 282 283 286 282 282 282 283 285 282 285 287 291 292 291 291 292 291 292 290 291 291 290 289 289 290 290 291 291 291 290 290 288 288 289 290 289 288 287 287 286 285 285 285 285
289 285 284 283 285 280 285 282 285 284 285 283 282 280 281 282 282 281 281 285 288 290 288 288 289 288 290 289 288 289 290 290 289 290 290 289 288 289 290 289 289 290 289 289 289 288 287 286 285 285 285 284 284 284
283 281 282 279 283 281 280 280 281 282 279 281 280 280 280 282 280 279 280 284 284 283 284 287 289 289 287 288 288 288 288 286 285 284 287 288 287 286 286 287 287 288 289 286 286 285 285 285 285 284 284 283 282 282
278 280 281 281 280 281 281 278 279 280 280 279 280 281 282 281 278 278 281 282 280 280 281 281 282 284 285 284 282 282 281 283 281 280 282 282 281 281 280 280 282 283 281 282 282 283 284 284 284 283 282 283 283 282
278 278 281 284 283 282 281 281 282 280 278 278 280 279 279 275 276 280 280 279 279 279 281 281 280 280 279 280 280 280 281 280 278 278 280 282 280 279 278 276 275 277 280 280 280 281 280 281 282 282 282 282 282 282
281 282 277 281 281 283 279 279 279 279 280 283 282 277 277 278 277 278 277 278 279 280 281 280 279 279 279 278 279 279 278 278 278 279 280 282 281 279 277 277 277 276 277 277 278 278 279 280 279 279 280 279 280 280
279 283 282 277 280 281 281 281 281 283 285 284 281 280 280 276 276 277 276 277 279 278 277 276 276 278 277 278 279 278 276 274 271 268 268 270 271 272 274 274 274 274 275 274 275 277 277 278 278 278 278 278 277 278
279 282 281 279 278 279 281 284 283 284 286 286 286 281 277 274 274 277 276 275 274 274 275 275 275 274 273 273 272 273 276 273 272 269 267 267 268 271 271 271 270 271 272 272 273 274 276 276 276 278 276 274 273 273
281 282 280 281 280 282 282 282 282 282 284 284 283 281 275 272 273 274 273 275 275 274 273 272 272 273 271 270 270 270 269 272 272 271 270 270 270 269 269 269 269 270 270 270 270 271 273 272 273 274 272 270 269 269
281 279 279 278 280 281 282 281 281 281 282 280 280 278 276 275 272 271 272 273 272 271 269 270 269 269 271 272 272 272 271 271 271 271 270 269 268 268 268 267 268 268 266 266 267 270 271 270 270 268 268 266 266 265
279 279 278 279 279 279 280 280 279 278 279 278 277 276 274 273 269 270 273 273 271 270 269 269 270 271 271 270 269 271 270 270 269 270 270 269 267 267 266 267 267 266 264 264 265 269 267 266 265 265 264 263 262 261

GFSWCAN_sfc_thetae_027.txt.gz
Theta_e
307 306 306 306 306 306 305 307 308 309 309 309 308 307 308 308 309 316 314 319 315 303 306 312 312 306 306 304 294 301 296 296 290 289 285 284 283 285 286 291 286 282 280 280 283 281 276 298 297 287 292 297 296 295
306 305 305 305 305 306 307 307 308 308 309 310 308 308 308 308 309 311 312 319 320 311 308 313 312 314 312 312 306 303 299 302 299 291 287 288 285 288 285 281 294 285 288 284 286 284 294 298 297 299 299 296 295 295
306 305 305 305 305 306 306 306 307 307 308 311 307 305 307 308 309 311 315 317 315 303 305 307 306 312 314 314 316 301 300 307 304 305 293 293 285 289 281 284 286 293 298 287 290 295 297 298 299 299 298 297 298 298
305 305 304 304 305 305 306 305 306 306 306 306 305 306 307 308 308 313 314 316 310 303 289 301 312 309 313 314 314 313 310 310 308 300 291 290 285 297 286 289 287 293 296 293 290 295 298 300 299 298 298 299 299 299
303 303 303 304 304 305 304 304 305 304 304 305 306 306 307 307 308 316 317 316 316 309 292 293 308 309 312 312 312 312 310 306 299 291 288 287 287 290 286 287 286 298 293 288 285 297 296 296 298 299 297 298 296 292
301 302 302 303 304 304 304 303 302 302 304 305 306 307 308 306 307 316 307 314 312 315 298 289 304 304 307 309 309 308 308 306 303 294 288 295 303 293 288 287 296 300 301 300 296 300 299 298 299 301 299 295 294 292
301 301 302 302 302 304 305 303 301 302 303 305 305 307 306 305 310 306 303 307 305 311 294 289 293 300 303 306 304 306 304 301 301 296 290 289 291 295 287 286 295 299 300 300 301 299 295 298 295 298 295 294 293 290
301 301 301 302 302 302 303 304 303 302 303 304 305 305 306 303 306 307 307 307 306 305 298 289 290 290 302 290 292 298 292 297 299 295 292 289 292 289 288 294 298 300 300 299 300 301 298 298 298 294 292 290 288 287
300 301 301 301 301 302 302 302 304 304 304 304 305 307 309 305 301 305 304 305 312 305 291 287 284 283 298 292 291 291 296 287 294 287 289 292 287 287 293 295 297 299 296 296 298 299 299 297 291 289 289 288 287 286
300 300 300 300 301 301 301 302 303 303 304 304 305 302 291 295 302 305 306 295 296 296 295 287 291 288 295 288 287 288 287 287 286 288 291 286 287 293 296 298 297 298 298 297 293 291 291 289 288 287 288 288 287 286
301 301 301 301 301 301 302 302 303 303 303 300 293 289 297 302 300 294 289 290 291 288 290 291 290 291 294 287 286 288 286 286 284 283 286 285 285 290 295 296 296 296 296 294 292 291 291 289 287 287 287 285 284 284
301 301 301 300 300 300 301 301 301 299 298 297 297 298 296 292 288 288 287 286 287 286 287 287 288 292 289 295 288 287 286 286 283 289 285 282 285 293 293 293 294 294 292 291 291 290 289 289 288 286 285 284 284 284
300 301 301 301 300 300 300 300 300 299 299 296 291 287 289 285 284 284 283 284 285 285 287 286 285 286 288 289 285 285 284 284 286 284 280 281 292 294 293 289 288 288 287 286 288 289 288 288 287 284 282 284 280 283
299 300 301 301 300 299 299 299 299 300 295 288 286 283 284 283 283 283 284 285 286 286 286 286 285 285 285 285 285 283 284 284 281 277 276 286 291 292 292 290 287 284 283 283 284 285 284 283 283 282 281 280 277 281
299 300 301 300 300 299 299 299 300 299 294 286 286 282 282 284 285 285 286 286 286 287 286 286 285 286 284 283 284 283 280 279 281 281 284 287 288 288 286 287 286 284 281 283 285 283 280 280 281 283 283 283 283 281
299 300 298 300 299 299 299 299 296 295 286 286 285 283 285 285 284 285 285 285 287 286 287 286 284 284 282 283 281 281 280 279 282 284 286 286 286 286 286 285 284 285 285 285 285 285 283 280 279 284 283 282 281 281
298 297 299 298 298 298 298 294 291 287 283 285 284 286 285 285 285 285 286 286 289 286 284 284 281 279 283 280 280 283 281 283 285 284 285 286 286 285 285 285 284 285 285 285 285 284 284 284 281 281 282 285 284 284
296 298 298 298 299 297 292 292 285 284 282 285 284 285 285 285 285 285 286 287 287 284 284 282 283 280 278 277 279 284 283 284 285 284 285 286 286 286 287 285 287 285 284 284 283 284 284 280 283 283 284 285 284 283
296 299 298 298 296 290 287 287 289 282 283 282 284 285 284 284 285 285 286 286 287 285 284 281 280 278 279 282 282 284 283 283 283 284 285 286 286 286 286 286 285 285 285 284 284 283 283 285 284 284 284 283 283 282
296 295 296 296 296 288 285 283 288 283 282 283 285 284 283 283 284 285 285 286 286 285 278 277 277 280 281 282 283 283 284 284 283 281 282 284 284 285 285 284 283 285 284 285 284 281 282 283 283 283 282 280 277 279
294 293 294 293 288 289 286 285 285 284 282 284 284 283 281 283 283 283 284 285 284 279 279 281 280 283 286 284 283 283 284 285 283 281 281 281 283 283 283 284 284 283 281 281 279 281 279 281 284 283 277 283 286 285
290 293 287 288 285 285 282 285 284 282 284 281 284 284 281 280 280 282 283 282 279 280 283 281 283 283 283 285 285 285 285 285 285 282 281 280 280 280 280 281 280 279 280 281 282 284 285 284 284 279 284 285 285 285
291 289 285 285 282 283 279 284 280 283 276 281 282 277 280 280 281 281 280 281 280 284 284 285 286 286 285 285 285 284 285 284 281 282 283 282 281 281 282 282 281 280 282 283 282 283 284 283 280 277 278 285 285 282
290 285 280 283 283 279 283 281 283 282 281 280 279 274 279 280 277 275 273 275 280 282 283 283 283 281 282 284 281 280 281 282 281 280 281 280 280 280 280 280 280 280 281 281 282 282 282 283 284 281 284 283 277 277
282 280 281 278 281 278 278 278 279 275 273 277 274 271 273 275 271 270 271 279 279 279 280 281 281 282 280 278 279 279 279 278 277 276 277 277 275 276 277 278 278 278 277 277 277 277 278 280 282 282 280 278 278 278
277 280 278 278 275 278 278 276 275 272 273 273 275 276 274 272 269 268 277 277 278 277 278 278 277 277 277 278 276 275 276 277 276 273 275 277 276 273 272 271 271 271 274 275 274 274 274 275 276 277 279 279 279 279
276 277 280 282 282 280 277 278 279 277 275 273 273 274 272 266 265 274 277 277 277 278 280 279 278 276 275 275 276 277 275 274 271 273 275 278 275 273 271 269 269 271 273 273 272 271 272 273 274 274 275 277 279 278
279 278 273 278 280 280 277 276 276 276 276 279 277 272 269 268 272 275 276 277 278 279 279 277 275 276 275 276 276 270 268 268 269 269 271 275 272 268 269 269 269 271 269 270 270 271 271 272 272 273 274 275 276 275
279 281 279 275 276 277 276 275 276 279 281 279 274 272 274 274 273 275 275 276 277 276 272 272 269 269 269 270 270 271 265 263 263 260 258 258 262 264 267 268 267 266 267 268 269 270 271 271 273 273 273 274 273 270
278 281 275 273 271 274 279 281 281 281 279 279 277 275 273 272 271 272 273 271 269 268 271 270 270 266 262 261 262 263 268 265 260 260 258 257 263 266 265 265 265 265 265 266 264 264 268 269 272 272 272 269 269 267
279 280 279 278 278 279 279 280 281 281 282 281 280 275 271 268 268 269 268 271 270 264 264 263 263 262 260 260 262 260 260 260 261 265 263 260 262 260 259 263 263 264 265 263 261 262 262 266 268 268 267 265 265 263
279 277 278 275 276 279 281 279 279 279 277 278 275 273 268 266 262 264 263 266 267 262 261 260 259 261 260 263 260 259 267 261 259 259 262 263 261 260 261 260 262 263 263 256 260 262 262 265 265 264 264 262 261 260
277 276 274 270 270 270 274 269 269 268 269 268 270 269 266 264 260 263 266 264 262 259 259 259 259 259 264 261 258 260 259 258 260 267 265 266 263 260 258 261 263 263 259 258 260 262 262 262 260 260 259 258 258 257

GFSWCAN_sfc_thetae_030.txt.gz
Theta_e
306 306 306 305 305 304 305 307 308 308 308 307 307 307 307 308 308 311 311 314 310 299 305 309 309 304 303 299 292 298 294 293 290 283 280 285 277 284 284 288 285 282 280 277 277 271 275 294 295 287 290 294 295 294
306 305 305 305 304 303 305 307 307 308 308 306 303 304 306 307 308 312 308 316 315 307 306 310 310 310 310 308 303 299 295 297 295 288 287 289 279 285 282 281 292 284 286 283 285 284 291 296 295 296 298 294 294 294
305 305 305 305 305 306 306 307 307 307 309 303 304 305 305 307 309 313 311 312 309 299 302 305 305 311 312 311 311 299 297 304 301 297 291 285 280 286 282 284 286 292 296 287 288 293 294 296 297 297 297 295 298 298
305 304 304 304 305 305 306 305 305 305 305 305 305 305 305 306 309 313 311 311 305 298 288 298 310 307 312 312 312 309 307 305 301 295 289 289 282 292 283 286 285 290 294 291 288 293 296 296 295 296 296 297 299 299
304 304 304 304 304 305 305 305 303 304 306 306 306 307 306 306 309 314 311 310 310 301 292 291 305 308 309 310 310 310 307 303 295 290 286 286 285 288 286 285 286 295 293 286 286 294 294 294 296 297 297 298 298 292
303 303 303 304 304 304 304 303 302 303 304 305 307 307 306 306 310 311 303 310 308 307 294 287 300 301 304 308 307 307 306 303 298 292 288 292 299 289 287 286 293 298 300 297 295 299 298 297 297 300 299 296 293 289
301 302 303 303 303 303 302 301 302 303 304 305 307 304 304 306 307 303 299 305 305 305 292 288 289 297 301 303 300 301 301 299 299 291 289 287 288 293 287 285 294 297 299 299 300 298 294 295 295 299 295 292 291 289
301 301 301 302 303 303 302 300 302 303 304 306 306 306 303 306 306 304 305 303 304 300 293 286 284 288 298 289 288 296 290 294 296 294 292 289 290 288 287 293 296 298 298 298 298 297 297 298 297 293 290 290 288 286
300 300 301 301 301 302 303 303 303 304 305 305 306 305 305 302 298 303 303 302 307 300 288 285 283 283 295 292 289 289 293 286 292 287 288 289 287 285 291 293 295 297 296 296 297 298 298 296 291 289 289 288 286 285
300 300 300 301 301 301 302 303 303 304 305 303 304 298 292 296 302 302 300 293 292 294 290 286 289 286 293 287 287 287 287 286 285 287 292 286 287 291 293 295 296 296 297 298 294 290 288 287 287 288 287 287 286 285
301 300 300 301 301 301 302 302 303 304 303 300 294 290 297 301 297 293 289 286 289 288 289 289 288 289 292 286 286 286 285 286 283 282 285 284 284 288 293 292 293 293 293 293 292 291 290 289 288 287 286 285 284 283
301 300 300 300 300 301 302 301 301 299 298 298 297 298 296 291 288 287 287 287 287 286 287 287 288 291 289 292 287 287 285 285 281 287 285 282 286 290 289 291 291 291 292 291 291 290 289 288 288 285 284 283 283 283
300 300 300 299 299 300 300 300 300 300 299 296 292 288 290 286 285 286 285 284 284 285 287 286 286 286 288 289 286 285 284 284 286 284 282 282 291 289 288 287 287 289 289 288 288 288 287 287 285 283 282 283 279 282
300 300 300 299 299 299 299 300 300 299 295 288 287 283 284 282 283 283 284 285 285 285 285 285 285 285 285 285 285 283 284 284 282 274 274 285 291 291 288 287 285 284 282 284 284 285 284 283 282 281 278 278 276 280
300 300 300 299 299 299 299 299 299 297 290 286 283 281 281 283 284 285 285 285 286 286 286 285 285 285 284 283 284 282 280 278 280 279 283 285 286 286 285 286 285 283 281 282 284 282 279 279 280 281 282 282 282 279
298 299 298 298 298 299 299 296 294 291 285 286 285 282 284 284 284 285 285 285 287 286 286 286 284 283 279 282 280 280 279 277 279 284 285 286 287 288 287 286 284 284 284 284 284 284 283 278 277 283 283 281 279 279
298 292 298 298 298 298 297 292 286 286 283 285 283 285 285 285 284 285 285 285 288 286 284 283 278 277 282 278 277 281 279 282 284 285 286 285 285 285 284 285 284 285 285 284 284 284 283 283 279 279 280 284 283 283
293 295 298 298 297 294 291 288 283 282 281 284 283 284 284 285 285 285 285 286 284 282 284 280 281 278 277 276 279 284 283 283 284 284 284 285 286 285 286 285 286 284 284 284 282 283 283 279 282 283 284 284 283 282
296 296 297 298 295 287 284 284 287 280 283 283 283 284 284 284 284 285 285 286 282 282 281 279 276 275 276 278 279 284 282 282 282 284 284 285 285 285 285 285 284 284 284 284 284 283 283 284 283 283 282 281 280 280
296 295 296 296 296 284 282 281 285 281 281 282 284 283 282 282 283 285 285 285 282 280 276 275 276 278 278 279 280 280 280 280 280 279 280 282 283 284 284 283 282 283 283 284 283 278 281 282 282 283 282 281 282 284
292 293 292 290 288 288 284 283 283 283 284 283 283 283 281 283 282 283 283 284 279 276 278 280 278 281 283 282 281 280 282 283 281 279 278 278 280 280 281 282 282 281 280 279 277 280 277 278 282 284 280 281 284 284
290 292 287 289 285 284 283 283 282 281 283 283 282 282 280 279 279 281 282 281 276 278 280 279 281 280 283 284 283 283 283 283 283 281 280 279 279 280 280 280 279 277 276 275 279 281 281 282 281 282 283 283 283 284
291 289 285 284 277 279 277 285 279 280 273 280 282 279 279 279 280 282 279 281 278 282 281 282 284 284 282 282 281 280 281 281 279 278 279 278 278 276 275 276 276 275 275 277 279 279 278 277 278 278 280 282 283 283
290 285 282 280 280 271 279 276 281 278 274 277 278 275 278 279 278 276 271 275 281 280 280 280 281 281 281 280 277 277 277 278 277 277 276 275 274 275 276 276 276 274 273 274 274 272 273 273 273 275 276 277 279 280
279 274 276 274 274 272 272 272 276 274 271 277 277 272 271 273 268 266 268 278 278 278 277 277 279 279 278 277 276 276 277 276 274 273 275 275 271 270 271 273 272 272 271 269 270 269 268 269 270 272 273 273 274 276
273 272 276 275 271 274 273 270 272 276 275 275 272 273 271 271 269 266 275 277 276 277 276 277 275 273 275 276 274 274 273 274 273 271 274 274 271 266 263 264 266 266 268 267 268 266 266 267 268 268 269 271 273 275
271 270 278 281 280 280 275 275 278 277 274 270 274 270 272 268 263 274 276 276 277 278 278 277 276 274 274 274 274 272 270 270 268 270 272 271 269 268 266 264 264 266 267 265 265 265 265 265 266 267 267 270 271 273
276 275 272 275 279 280 277 276 276 276 277 279 276 273 273 268 269 273 275 276 277 277 276 275 274 273 273 273 269 266 265 265 265 267 270 267 265 263 261 260 261 267 261 262 264 265 263 263 264 265 267 269 270 270
276 280 279 276 277 277 277 277 277 279 280 278 272 271 271 271 270 273 273 274 274 274 270 269 266 266 267 266 264 263 259 259 260 256 253 253 255 258 260 257 257 261 261 262 264 265 264 264 265 265 269 269 266 265
276 279 275 272 273 274 277 279 279 280 279 276 274 273 271 269 270 271 269 268 268 267 267 267 262 261 255 257 256 260 262 258 256 257 254 254 258 261 258 258 261 261 261 262 261 261 262 262 262 266 265 265 264 263
278 278 277 276 276 277 278 279 280 280 280 279 275 268 266 265 265 266 267 266 264 263 262 261 260 254 256 257 255 253 256 259 256 258 256 258 257 254 255 257 257 258 259 261 258 257 259 260 261 262 261 260 260 260
277 276 275 274 272 278 279 278 278 277 277 277 272 268 261 260 257 261 264 262 260 258 255 253 254 256 257 258 256 254 256 254 254 254 257 259 257 255 255 256 256 257 257 254 254 254 259 258 257 257 257 256 257 257
272 264 265 260 265 268 267 263 262 264 264 269 268 264 260 261 258 261 262 258 258 256 254 254 253 254 257 256 255 254 255 253 254 260 260 263 258 256 253 252 252 249 249 250 251 253 254 252 251 254 254 255 255 255

GFSWCAN_sfc_thetae_033.txt.gz
Theta_e
306 306 305 304 304 304 306 306 307 307 308 305 304 305 306 308 311 312 310 312 307 299 303 306 307 302 300 297 292 296 294 292 286 282 279 280 276 283 283 286 284 282 279 278 275 272 276 292 292 287 290 292 295 294
305 305 304 303 303 304 306 306 306 306 302 304 304 305 306 307 310 310 309 313 311 306 304 308 308 308 307 303 300 296 296 294 293 285 282 285 278 285 281 279 289 282 285 283 285 284 291 292 292 294 295 294 293 294
305 304 304 303 303 304 306 306 306 303 303 303 304 305 306 308 310 312 310 308 305 298 302 303 303 309 310 309 309 297 295 301 297 294 291 284 279 283 281 282 283 290 292 284 286 290 291 293 295 296 296 294 295 296
304 304 304 304 304 305 305 304 304 303 304 305 305 305 306 309 310 311 308 307 302 296 288 298 308 305 310 311 310 307 305 301 297 293 285 284 279 289 281 285 285 289 292 289 286 291 293 296 296 295 295 296 297 298
304 304 304 304 304 304 304 303 304 304 305 306 305 305 307 309 310 311 308 307 307 299 291 290 303 305 306 309 308 307 304 300 294 289 286 286 284 286 286 286 286 293 291 286 285 293 293 293 296 296 295 296 296 292
303 304 304 304 304 303 302 302 303 304 304 306 304 303 305 308 309 305 300 307 307 303 294 287 298 300 303 306 305 304 304 300 295 291 287 291 295 288 285 286 293 296 297 295 293 295 295 295 295 297 297 297 293 290
303 303 303 303 303 301 302 302 303 304 304 306 304 305 305 306 307 301 296 303 304 302 292 288 287 295 299 300 297 299 299 297 297 292 287 289 287 292 286 284 293 295 297 297 298 297 292 294 294 298 295 291 291 289
302 303 303 303 302 301 301 302 303 304 305 306 304 303 305 306 305 303 304 303 303 296 291 285 283 287 296 289 289 295 289 292 293 292 291 287 290 287 287 291 294 296 296 296 297 296 297 296 292 289 290 289 287 286
301 301 301 302 302 301 301 302 304 305 305 305 304 304 304 301 297 300 302 302 302 298 287 284 284 283 293 291 289 290 292 287 291 287 288 289 286 286 290 292 293 294 294 295 296 296 295 291 289 290 289 288 286 285
300 300 300 301 302 302 302 302 303 305 304 303 303 297 292 297 302 302 299 292 291 289 290 286 289 286 293 287 287 285 287 285 281 286 291 286 287 289 291 292 293 295 295 296 291 287 288 287 287 288 289 288 286 285
301 301 301 301 301 302 302 303 303 303 303 297 293 290 297 301 297 292 287 285 290 288 289 289 288 289 291 287 284 285 284 285 283 281 286 282 284 286 288 288 290 291 291 291 291 290 290 289 287 287 286 286 285 284
300 300 300 300 301 301 302 301 301 300 297 297 295 297 293 290 287 288 286 287 287 285 287 287 288 290 288 289 287 287 285 284 281 287 285 281 285 287 288 288 290 292 291 291 291 291 291 290 289 285 284 283 283 283
300 300 300 299 300 300 301 301 300 300 299 297 292 288 290 286 286 286 284 284 284 285 287 286 286 286 287 288 285 285 284 283 286 284 282 283 286 289 289 290 290 291 290 289 290 289 287 286 285 284 283 283 280 282
299 299 299 299 299 299 300 300 300 299 296 289 287 284 285 282 283 283 284 285 285 285 285 285 285 285 285 285 285 284 284 284 282 277 273 285 288 289 286 285 284 283 281 283 284 284 283 282 282 280 278 278 277 280
299 299 299 298 299 299 299 299 299 297 291 286 285 281 281 283 284 284 285 285 285 286 286 285 285 286 284 283 284 282 279 276 277 276 282 284 285 286 285 286 284 283 281 282 283 282 279 279 279 281 281 281 282 277
299 298 297 298 299 299 298 295 293 291 284 286 284 282 284 284 284 285 285 285 287 286 286 286 284 282 281 282 279 278 278 273 274 282 284 285 285 286 287 287 284 284 283 283 284 284 283 279 278 283 282 280 277 276
297 294 298 298 298 297 296 290 286 285 282 285 284 285 285 284 284 285 285 285 288 286 283 283 274 276 282 278 278 282 278 281 284 284 286 286 286 286 285 284 284 284 284 284 284 284 283 283 278 278 279 284 283 282
294 294 298 298 296 293 289 287 283 282 282 284 283 283 284 284 284 285 285 285 285 284 284 279 281 274 273 274 276 281 282 283 283 283 285 286 286 285 285 284 285 284 284 284 282 283 283 278 281 282 283 283 281 281
294 293 296 296 293 285 282 284 284 279 282 283 283 283 283 283 284 285 285 285 280 279 279 276 273 272 274 278 278 283 281 280 281 282 283 284 284 284 284 284 284 283 283 283 283 281 281 282 281 282 282 282 281 281
295 295 294 295 294 283 281 280 284 281 280 283 284 282 282 282 283 285 285 284 282 280 275 274 275 276 277 279 280 279 280 280 280 278 279 281 282 282 281 281 281 281 281 281 280 277 280 281 282 281 281 280 280 281
290 290 292 289 288 287 282 282 282 283 284 282 283 282 280 282 282 282 283 283 276 275 277 279 276 279 281 281 280 280 282 282 280 278 278 278 279 280 279 279 279 279 277 276 277 278 279 278 279 278 277 278 279 281
289 292 288 288 284 284 281 283 283 283 283 282 282 282 280 279 279 281 282 280 277 277 279 278 280 280 282 280 280 281 281 281 280 279 278 278 277 276 276 277 275 275 276 275 276 275 274 275 274 273 274 275 277 277
290 286 286 285 275 278 274 285 280 281 279 280 281 278 278 278 280 282 279 281 280 280 280 281 281 282 280 280 279 278 279 279 277 276 276 276 276 274 275 275 272 268 268 271 272 271 270 269 270 269 271 272 273 273
287 279 282 281 280 273 278 274 279 278 277 275 278 276 277 278 279 278 276 278 281 281 279 280 280 279 279 278 276 275 276 277 276 274 275 274 273 273 273 272 270 269 268 268 268 266 266 265 265 267 268 267 268 269
278 274 275 273 276 271 268 265 270 272 269 269 270 271 273 273 272 272 269 276 278 277 277 277 278 280 277 275 275 275 275 275 274 273 273 271 267 267 268 269 269 268 267 263 262 263 263 264 264 264 265 265 265 267
273 271 271 270 270 272 268 265 268 269 271 273 273 274 273 272 272 267 274 275 276 276 276 276 275 275 275 276 274 272 271 272 272 271 270 269 267 262 259 260 261 262 265 259 261 260 261 262 261 261 261 263 264 265
267 266 273 280 279 279 277 273 275 276 274 273 270 272 274 270 270 272 275 275 276 276 277 276 276 275 274 272 270 269 268 267 267 270 269 268 267 267 261 256 258 262 264 261 258 259 260 260 259 260 260 262 264 265
275 273 270 273 278 280 276 276 275 275 277 279 277 274 273 270 269 272 274 276 275 275 273 273 272 272 270 269 267 265 266 264 268 267 267 264 262 259 259 257 258 264 258 256 255 258 258 260 260 260 261 262 264 264
277 279 279 275 276 276 277 277 277 279 280 279 275 272 270 270 269 270 272 272 273 271 268 267 266 266 266 266 264 262 258 257 257 254 252 251 252 256 259 254 253 254 253 253 259 262 262 263 262 262 264 265 263 260
276 278 274 272 273 272 275 276 276 278 277 275 273 271 269 267 268 269 268 268 266 264 262 262 260 261 255 255 254 256 256 253 254 255 252 252 256 258 251 252 254 253 253 252 254 257 258 255 256 254 255 255 256 257
275 276 276 274 274 275 277 279 279 280 279 275 272 268 265 264 265 266 266 263 264 262 260 256 256 251 253 252 251 251 253 253 251 253 254 254 253 251 251 252 252 250 251 252 250 249 249 250 249 249 250 251 251 252
277 275 274 273 272 275 270 276 275 276 275 275 268 262 259 258 255 260 262 258 258 255 252 249 252 254 254 254 253 252 255 252 251 251 252 253 253 251 250 250 248 248 247 247 247 247 247 247 246 247 246 247 249 250
268 263 268 262 265 267 266 260 260 263 268 269 263 260 257 258 257 260 261 256 256 254 253 252 251 250 252 252 253 251 252 250 250 256 257 257 254 254 250 247 246 246 246 245 245 245 247 247 246 246 246 246 246 247

GFSWCAN_sfc_thetae_036.txt.gz
Theta_e
306 305 305 304 304 305 305 307 307 304 303 304 305 306 307 308 310 314 311 310 305 298 301 304 305 299 298 296 291 296 293 292 285 282 279 279 276 282 283 285 284 283 281 281 275 270 276 290 292 286 290 289 293 292
305 304 303 303 304 305 306 306 304 304 304 304 305 305 307 309 309 314 311 312 309 304 303 306 306 306 304 301 298 295 296 293 292 284 279 280 279 284 280 279 287 282 284 281 283 283 289 290 291 293 293 292 293 293
303 303 303 304 305 305 305 303 303 303 304 304 304 306 307 309 309 312 310 304 304 298 301 302 302 307 308 307 306 296 293 298 294 292 286 282 279 282 279 281 282 288 289 283 285 288 290 292 293 296 295 294 294 295
303 303 303 304 305 304 303 302 303 304 304 304 305 307 307 308 309 310 306 304 301 296 289 296 306 303 307 309 308 305 301 297 294 291 285 283 280 287 281 283 283 288 289 287 285 290 290 295 295 295 295 295 296 296
303 303 304 305 304 302 303 303 303 304 304 304 305 308 308 309 309 310 306 306 304 298 291 289 301 303 305 307 305 304 302 298 293 288 286 285 282 285 286 285 285 290 289 285 284 291 291 291 294 295 295 295 295 291
303 304 304 304 302 302 302 303 303 304 304 302 304 305 306 306 306 303 299 305 305 301 294 288 296 297 301 303 302 301 301 297 294 291 286 288 293 287 286 287 292 294 295 293 291 293 294 294 294 295 295 295 291 290
303 304 304 302 302 302 302 303 303 304 304 304 305 306 306 307 307 299 295 303 302 300 292 288 287 294 296 298 295 297 296 295 295 292 287 288 288 291 285 284 291 294 295 295 296 294 292 292 293 296 292 289 289 288
303 303 302 301 301 302 302 303 304 305 304 303 304 305 304 304 304 302 302 302 302 294 291 285 284 287 295 290 289 295 290 292 293 292 290 287 290 287 286 290 293 295 295 295 295 295 294 291 288 287 289 289 289 288
302 302 301 301 301 301 302 303 304 304 303 304 304 304 304 301 298 299 302 301 300 297 286 280 283 282 293 290 289 290 291 287 291 287 288 289 286 285 288 287 290 291 292 293 293 290 289 288 289 290 290 289 287 286
301 301 300 300 301 301 302 303 304 303 303 303 303 297 290 297 302 301 297 292 290 289 292 285 288 286 292 287 286 286 287 285 280 283 291 286 286 288 286 287 287 289 291 294 287 286 287 287 288 288 288 287 287 286
301 301 301 301 301 301 302 303 302 303 303 298 293 290 297 300 297 289 285 285 288 283 288 288 288 287 291 287 285 284 284 285 283 280 286 283 283 285 287 288 289 290 290 290 290 290 290 288 287 286 285 285 284 284
300 300 301 301 301 301 301 301 302 298 296 297 296 296 293 291 288 286 285 285 285 281 286 287 287 290 288 288 287 286 284 284 281 286 284 281 282 287 289 290 291 291 291 291 291 290 290 290 289 286 283 283 283 282
299 299 299 300 301 301 301 300 300 300 299 295 290 287 288 285 286 284 284 285 285 285 287 286 286 286 288 288 286 286 284 283 285 284 282 283 285 289 290 290 289 288 288 288 289 289 287 285 285 283 282 283 280 282
299 299 299 299 299 300 300 300 300 299 296 288 286 286 285 284 283 284 285 285 285 285 285 286 285 285 285 285 285 284 284 284 281 278 275 284 287 285 284 284 284 282 280 282 283 283 283 282 282 280 279 278 277 280
299 298 299 298 299 299 299 300 299 297 291 286 286 281 281 283 284 284 285 285 285 286 286 285 285 286 284 284 283 282 277 273 275 273 282 284 285 285 286 286 283 282 278 281 282 282 278 278 279 280 280 280 281 275
298 298 296 298 298 298 297 296 294 292 286 286 283 282 284 284 284 285 285 285 287 286 286 286 284 281 281 279 276 275 275 270 274 282 282 284 284 286 287 287 284 284 284 283 283 283 282 278 277 282 281 279 275 274
297 294 297 297 297 296 296 290 289 285 283 284 284 285 285 285 284 285 285 285 288 285 283 282 276 275 280 275 275 278 274 279 283 285 286 286 286 287 287 285 283 284 283 283 283 283 283 282 278 279 280 283 282 281
291 292 296 297 294 291 288 285 283 283 283 283 283 283 284 284 285 285 285 285 285 285 283 279 281 274 272 272 272 277 279 280 281 282 284 285 286 284 284 284 284 283 283 282 281 282 281 279 280 280 280 281 280 280
293 293 295 295 292 285 283 283 284 281 282 283 283 283 283 283 284 285 285 284 281 279 279 275 272 272 273 276 274 280 282 277 279 281 281 282 283 283 282 283 282 282 281 280 280 279 279 280 280 279 277 278 277 278
294 294 294 293 292 282 281 279 283 281 281 283 283 282 282 282 283 285 285 284 282 279 275 273 274 275 276 277 279 279 279 279 279 277 277 279 280 280 279 279 279 279 278 278 277 275 276 276 277 275 274 275 275 275
289 290 291 288 285 284 282 280 282 283 283 282 282 282 280 282 282 282 283 283 277 273 276 277 273 277 280 279 279 279 281 281 279 277 277 278 278 278 278 277 277 276 274 273 272 271 270 271 272 272 269 271 271 273
287 291 281 285 281 278 283 285 283 283 282 281 281 282 279 279 279 280 282 278 278 276 279 278 280 280 280 279 280 280 280 280 279 278 277 276 274 275 274 273 271 269 270 269 270 268 267 270 269 268 266 267 268 269
289 285 283 279 275 275 277 284 279 282 279 279 280 278 278 278 280 282 278 281 281 281 280 281 281 281 279 279 278 278 278 277 275 275 275 275 275 275 273 270 268 265 265 267 268 268 266 264 265 263 264 265 265 265
286 283 281 280 278 275 278 271 278 275 274 276 277 276 276 277 279 277 276 278 280 280 280 281 280 278 278 276 274 274 275 276 274 273 273 272 271 270 271 270 267 266 266 265 264 261 262 259 259 261 261 260 261 262
272 274 272 266 276 267 271 267 272 275 267 267 270 270 274 272 271 272 272 276 276 276 277 279 279 278 276 275 273 272 273 274 273 270 270 269 266 266 267 267 266 266 264 258 258 257 257 257 257 258 259 258 259 260
268 270 270 264 265 268 265 264 263 266 268 269 272 273 270 269 269 269 274 274 275 275 274 275 274 274 273 274 272 270 270 271 272 268 268 267 265 261 258 257 257 259 262 255 253 253 256 257 258 256 257 258 259 260
266 266 272 279 276 274 271 269 271 271 271 274 273 272 274 271 269 270 274 274 274 274 275 274 276 274 271 270 269 268 267 267 268 268 268 267 266 264 258 254 255 259 262 258 252 250 253 255 256 257 258 258 258 260
271 269 267 269 272 275 272 271 270 272 272 278 277 273 272 270 268 271 273 274 273 273 271 271 270 269 267 266 265 263 264 267 266 265 264 263 261 258 257 256 256 261 255 251 250 252 252 255 257 258 258 259 257 255
272 274 274 270 271 275 274 274 275 278 279 278 275 271 268 269 268 269 271 272 272 270 268 266 265 265 265 264 262 261 259 256 256 254 252 250 251 255 256 251 250 251 249 250 255 259 259 257 257 254 251 251 253 251
271 275 271 268 271 272 273 275 273 275 275 274 272 270 269 267 267 269 269 268 266 263 260 260 260 260 254 254 253 255 253 250 252 253 251 250 253 256 250 248 249 250 248 246 248 249 254 249 251 248 249 249 248 246
272 271 269 269 268 271 272 276 276 277 275 270 268 265 264 263 265 265 264 262 262 260 256 253 252 248 251 251 250 250 252 251 249 252 252 250 251 250 249 249 247 245 244 244 243 244 244 244 243 243 245 246 247 246
275 273 268 268 270 270 267 270 268 273 272 272 264 259 258 258 255 260 260 258 255 254 251 247 251 253 251 251 249 249 252 250 250 250 250 251 251 251 249 248 245 244 245 244 244 243 244 243 243 243 243 244 244 245
267 263 264 262 265 267 265 259 258 261 263 264 258 259 256 258 256 259 260 255 255 253 252 251 250 249 250 251 251 249 250 249 249 255 256 256 253 253 248 245 244 244 245 244 243 242 244 245 244 243 243 243 243 243

GFSWCAN_sfc_thetae_039.txt.gz
Theta_e
305 305 304 304 304 304 304 304 304 304 303 303 304 305 306 308 308 313 310 312 308 300 303 307 306 299 299 299 295 298 297 296 290 288 288 286 286 287 287 288 287 287 284 283 279 280 281 292 295 291 296 295 296 296
304 303 303 304 304 304 305 303 303 303 304 304 305 306 307 308 309 312 309 313 310 305 304 308 307 308 308 305 300 297 299 296 296 290 286 285 285 286 285 286 290 286 290 288 287 289 294 294 296 298 297 296 297 297
303 303 304 304 304 303 303 303 303 303 304 304 305 307 307 309 309 312 311 308 307 301 302 304 303 308 309 307 308 299 296 300 296 295 289 287 286 287 285 286 288 291 291 289 289 293 292 294 297 297 299 298 299 299
303 304 304 303 302 302 303 303 303 303 304 305 306 307 308 308 309 310 308 306 305 299 290 299 306 304 307 309 309 306 301 298 296 294 288 287 288 289 286 289 289 292 292 290 289 293 294 295 297 299 298 299 299 298
303 303 302 302 302 302 303 303 303 304 307 306 307 307 307 308 309 309 308 306 305 302 292 294 302 303 305 307 304 304 302 300 296 292 287 289 287 289 289 288 287 292 291 289 289 294 294 295 297 299 298 298 298 295
303 302 302 302 302 302 303 303 302 303 303 306 307 308 307 307 307 306 302 305 303 302 297 290 297 297 300 303 302 301 302 298 296 294 288 291 294 291 286 287 293 295 297 296 294 298 297 298 299 299 298 295 292 290
303 302 302 302 302 302 303 304 303 303 306 306 305 306 306 305 306 299 297 303 302 301 293 289 290 294 296 299 298 298 298 296 297 293 289 291 292 293 287 287 292 295 296 297 298 298 296 295 293 291 290 290 291 291
302 302 302 302 302 302 303 303 303 304 304 304 304 305 304 305 304 303 302 301 301 295 293 287 286 290 296 291 291 296 292 294 294 293 291 289 291 289 288 289 290 291 293 295 295 293 291 290 290 290 291 290 288 286
301 301 301 301 302 302 303 303 302 303 303 303 303 303 304 301 299 301 302 301 300 297 287 284 285 286 295 290 290 292 293 287 292 288 290 292 287 285 285 286 287 288 289 291 289 290 291 290 289 289 288 287 286 285
301 300 300 301 301 302 303 302 302 303 303 303 302 298 292 297 301 301 297 293 292 290 291 284 289 287 293 288 287 289 288 287 285 287 291 287 285 286 287 288 288 289 291 290 288 287 287 287 287 287 287 288 288 287
301 301 301 301 302 302 301 301 301 303 303 299 294 292 298 300 297 290 286 287 288 285 289 288 289 288 292 289 286 286 285 286 283 285 287 285 284 285 289 289 290 291 291 291 291 290 290 289 288 287 287 287 287 287
301 301 301 301 301 301 300 301 302 299 297 298 298 297 295 292 288 287 286 286 285 284 287 287 288 291 288 290 287 288 284 285 282 288 285 282 283 288 290 290 291 291 292 291 291 290 290 290 290 289 286 285 284 284
299 300 300 300 300 301 300 300 300 300 299 297 293 290 291 287 285 281 282 284 285 286 287 286 286 287 289 290 286 287 285 284 287 285 283 283 286 289 289 289 288 289 289 289 289 289 287 286 285 285 284 285 283 284
298 298 299 299 299 300 300 299 299 299 295 287 286 285 282 285 284 284 285 286 285 285 286 286 285 286 286 286 285 285 284 285 283 281 279 284 287 286 287 287 286 283 282 284 284 285 283 283 283 281 279 279 277 283
298 297 298 298 298 299 298 298 298 296 290 286 286 281 282 283 284 284 285 285 285 286 286 286 286 287 285 284 284 283 280 277 278 278 282 284 283 284 284 284 284 284 280 283 285 283 280 280 281 282 283 283 282 280
298 297 294 297 297 297 297 296 294 293 288 286 284 282 284 284 284 285 285 285 287 286 286 286 284 284 281 281 280 279 278 275 279 283 284 285 285 286 287 287 285 285 284 284 284 284 283 280 280 282 282 282 280 280
295 291 295 297 296 296 295 292 289 286 285 284 283 285 285 285 284 285 285 285 288 286 284 283 278 278 282 278 277 281 278 280 284 285 285 285 286 287 287 286 284 284 284 284 284 283 282 282 281 280 278 278 279 280
289 292 295 296 293 292 288 286 284 284 282 283 283 283 284 284 285 285 285 285 286 285 284 282 283 278 276 275 277 279 282 284 285 285 286 287 287 286 286 285 284 284 282 281 281 281 280 279 278 277 277 277 277 277
292 292 294 295 291 286 284 284 284 282 282 283 283 283 284 284 284 285 285 284 283 282 282 278 275 276 277 279 279 280 283 283 283 283 283 283 284 283 283 282 281 280 280 279 278 278 278 278 276 275 274 274 274 275
293 293 293 293 292 283 281 280 284 284 282 283 283 282 282 282 283 285 285 284 283 281 278 276 277 279 279 280 281 283 283 283 283 281 280 280 280 280 279 279 278 277 277 277 274 273 274 274 273 272 271 270 270 270
289 289 290 288 284 284 283 281 283 283 283 282 283 282 281 283 282 283 283 283 279 276 278 278 277 280 281 281 281 282 282 283 281 281 280 277 278 277 276 276 275 274 272 271 271 270 269 270 270 269 268 267 268 269
287 290 281 282 278 280 283 284 283 283 282 282 281 282 280 279 280 281 282 282 280 279 280 280 281 281 280 279 279 280 280 280 280 278 278 277 276 274 272 271 271 270 269 268 269 267 267 268 267 266 265 265 266 266
287 283 278 277 274 275 279 284 279 282 279 279 281 278 279 279 280 282 279 281 280 281 282 282 281 281 279 279 278 278 278 278 276 275 275 275 275 272 270 269 268 266 266 266 267 266 265 262 264 263 263 263 263 263
285 277 272 270 273 275 276 272 280 276 275 278 278 273 275 278 278 277 276 278 279 280 281 280 280 277 277 276 274 275 276 275 273 272 273 272 271 270 270 268 267 266 265 265 264 262 262 261 259 261 261 260 261 261
274 275 273 269 268 269 272 272 270 270 266 268 271 270 275 274 272 272 273 275 276 275 276 279 280 278 274 273 273 273 273 275 272 269 269 270 268 268 267 267 266 265 265 262 261 260 259 259 259 260 260 259 260 260
270 274 269 272 266 267 269 264 265 266 265 266 269 272 271 271 267 268 272 272 273 273 274 275 274 273 272 273 272 271 270 272 271 268 267 267 266 264 263 262 262 263 264 261 259 259 259 259 259 258 259 260 259 260
269 270 275 280 278 276 270 269 271 271 268 269 271 271 273 272 267 270 274 273 273 273 273 273 274 272 270 269 269 269 269 269 269 268 268 267 266 265 262 261 260 262 263 261 258 257 257 257 257 258 259 260 261 260
276 274 268 268 268 275 268 268 270 273 274 277 276 270 270 269 268 270 272 273 272 271 270 269 269 268 267 266 266 267 267 266 266 265 265 264 263 262 261 261 260 261 258 257 257 257 257 257 258 259 259 258 257 258
274 273 272 265 266 270 270 269 269 274 277 277 274 270 267 268 268 268 270 271 271 270 268 266 265 266 265 264 262 261 261 262 262 258 257 258 258 261 261 259 258 257 256 256 256 259 261 262 260 258 256 256 255 255
270 270 267 264 267 268 269 273 272 273 274 273 271 270 268 266 267 268 268 267 265 263 262 262 261 262 259 259 258 259 258 257 258 259 258 258 259 260 258 257 257 257 255 254 254 255 256 255 256 254 254 254 254 254
271 269 268 268 267 268 268 274 276 275 270 268 266 265 264 265 265 265 263 262 262 261 260 258 257 253 257 257 257 257 258 258 253 256 256 256 256 257 257 257 256 254 253 253 253 253 253 253 252 252 252 252 251 251
273 271 267 268 270 266 264 261 263 272 271 268 260 259 260 260 256 262 261 259 258 259 253 251 255 258 255 255 253 254 253 255 256 255 255 255 257 258 258 256 253 252 253 253 253 252 251 252 252 252 251 251 250 250
265 262 266 267 265 265 263 258 257 262 264 261 258 257 257 259 258 260 261 257 258 256 255 255 255 254 253 253 255 255 253 255 253 255 256 256 254 256 257 255 253 252 253 253 253 251 252 252 252 251 251 249 249 249

GFSWCAN_sfc_thetae_042.txt.gz
Theta_e
303 303 303 303 304 304 305 305 305 305 304 304 304 305 305 305 308 313 318 319 319 310 310 311 310 307 307 310 305 304 304 303 303 300 300 297 296 295 294 294 293 293 292 290 289 288 286 298 299 294 300 303 301 303
304 304 304 304 303 304 304 304 304 304 304 304 305 305 305 307 308 311 316 319 320 314 310 314 313 314 312 311 310 307 308 306 307 303 300 297 292 290 295 293 296 292 297 296 295 296 299 301 303 304 304 303 304 303
303 303 303 303 303 304 303 303 303 303 303 304 304 305 306 307 309 313 318 318 319 313 310 312 309 313 316 315 316 308 307 308 305 307 304 301 291 299 290 295 295 297 297 296 294 298 299 301 303 304 305 303 304 304
303 303 303 303 303 302 302 303 303 303 304 304 304 305 306 308 309 312 317 315 317 310 296 306 312 310 313 315 315 312 310 307 306 308 303 295 296 298 297 297 297 299 298 296 296 299 300 300 302 303 304 305 304 304
302 302 302 302 303 303 303 303 303 303 304 304 305 306 307 308 308 314 313 311 314 312 298 305 309 309 311 312 310 311 309 308 307 304 296 299 298 298 296 297 297 299 297 296 296 298 299 300 303 304 303 303 303 300
302 302 302 302 303 303 303 303 304 304 305 306 306 308 307 307 309 318 309 310 309 315 309 297 306 305 309 310 309 308 309 308 307 302 294 300 298 301 292 296 296 299 300 301 299 303 303 303 300 301 299 298 297 296
302 302 303 303 303 303 303 304 306 305 306 306 306 305 305 306 312 309 306 308 305 310 306 296 300 303 304 307 305 307 307 305 306 299 294 297 297 301 292 295 294 296 298 300 302 302 299 295 293 296 296 295 293 291
301 302 302 303 303 303 303 304 304 305 306 306 306 305 305 305 306 309 308 303 305 306 307 295 295 301 303 298 297 302 300 304 299 296 296 294 296 297 293 290 292 295 297 296 295 297 295 295 294 292 291 291 289 288
301 301 302 302 302 302 302 302 303 304 304 305 304 305 314 309 310 309 301 303 309 307 299 290 294 291 299 294 296 300 300 292 296 294 294 298 291 289 287 288 290 291 292 292 295 294 292 290 289 290 289 289 288 288
301 301 301 301 301 301 301 301 303 303 303 303 310 309 303 306 302 304 307 306 303 300 298 288 295 290 297 295 291 294 294 292 290 292 294 290 286 288 289 290 290 293 295 294 289 287 288 288 289 289 290 291 291 291
301 301 301 301 301 301 301 301 302 303 306 309 305 299 306 302 307 301 296 295 296 291 293 292 295 292 295 292 289 292 289 292 287 291 291 288 285 286 290 290 292 294 294 294 292 291 291 291 291 291 291 291 290 289
301 301 301 301 300 301 300 301 302 306 305 305 306 304 305 301 299 290 288 291 290 288 290 291 292 294 292 297 292 292 288 289 285 293 289 285 285 289 290 290 292 294 294 294 294 293 293 292 291 289 288 287 288 287
300 300 300 300 299 300 300 300 300 300 302 307 303 294 299 292 289 289 285 287 286 288 289 289 288 292 293 295 290 290 286 286 293 286 285 285 288 289 290 291 291 292 292 292 290 289 289 288 288 288 287 287 288 288
298 298 299 299 299 299 299 299 299 301 304 296 292 287 288 287 287 287 289 288 287 288 289 291 288 290 290 290 288 287 285 287 284 282 283 285 287 288 290 290 289 287 286 288 288 288 286 286 286 285 285 285 285 285
297 297 298 297 298 298 298 298 299 301 296 290 291 284 284 285 286 285 286 287 287 289 291 291 290 292 287 286 287 287 283 282 284 284 285 286 287 289 289 287 287 286 286 287 288 286 285 285 286 286 286 284 283 282
297 296 294 297 297 297 297 299 299 298 292 289 287 284 286 285 285 285 285 285 289 288 290 291 287 287 285 287 285 284 284 283 284 288 287 286 287 289 288 288 288 288 288 288 288 287 285 284 284 284 283 281 281 281
296 292 294 296 296 296 296 297 295 288 288 287 285 286 286 285 285 285 286 286 288 287 285 288 285 283 286 284 283 286 285 287 287 285 287 289 288 287 289 288 287 287 288 287 286 285 284 283 282 281 279 279 280 280
292 294 295 296 296 296 293 293 291 288 283 285 285 284 286 286 285 285 286 287 289 288 287 285 288 283 284 282 284 287 286 287 288 287 288 289 289 288 287 288 288 287 286 284 283 282 281 280 280 279 278 278 278 278
293 293 294 294 295 294 290 289 291 284 284 286 286 286 286 286 287 287 286 286 289 291 288 287 285 285 286 288 287 285 286 289 287 285 284 285 287 287 287 286 285 284 282 281 281 280 280 278 277 277 276 276 275 276
292 293 292 293 296 292 286 286 292 287 283 285 286 284 285 285 286 286 286 287 288 289 286 285 285 285 287 286 288 290 291 291 288 284 282 283 285 285 285 284 282 281 280 279 277 276 277 277 276 275 274 273 273 272
293 292 291 294 291 289 286 286 285 286 285 283 285 285 284 286 285 285 285 287 287 283 283 282 282 283 283 285 287 289 289 290 288 287 284 281 283 282 281 280 279 278 278 277 276 275 274 274 273 272 272 272 271 272
290 291 290 289 286 287 286 286 286 287 285 284 284 285 283 282 283 283 285 286 282 281 282 282 284 285 284 282 283 285 285 285 284 282 281 281 279 278 277 277 278 275 274 273 273 272 272 271 270 270 270 270 270 271
290 290 288 286 282 283 281 287 284 284 281 282 284 281 282 282 284 286 283 283 282 283 284 282 281 282 280 280 281 281 282 282 281 280 279 278 277 276 275 274 274 273 272 271 271 271 270 266 269 268 269 269 269 269
288 282 279 279 281 277 281 279 283 282 283 281 281 279 279 281 283 282 279 280 280 281 282 281 281 279 279 278 277 277 278 278 277 277 278 277 275 274 273 272 271 270 270 270 269 269 268 268 266 268 267 267 267 267
280 277 280 276 279 278 276 276 278 280 277 277 277 277 278 281 278 277 276 277 277 277 279 281 281 279 276 275 275 275 276 277 275 273 273 274 273 272 271 271 270 269 269 269 267 267 266 266 266 266 266 266 265 265
274 277 277 277 277 278 276 276 275 276 277 277 277 279 280 279 274 272 273 275 276 275 275 276 277 275 273 275 274 273 272 275 274 271 271 271 271 271 269 269 269 268 268 267 266 265 265 265 264 264 264 265 264 264
274 275 278 281 279 279 278 278 279 278 276 276 279 278 278 273 270 272 276 274 275 274 274 274 275 273 272 271 271 271 272 272 272 271 270 269 269 269 268 267 265 266 267 266 265 264 263 263 263 263 264 265 265 264
277 278 275 277 279 280 277 277 277 277 278 280 280 274 272 271 271 273 273 275 274 273 272 271 271 271 270 270 271 271 270 270 269 269 269 269 269 268 267 267 266 264 264 264 263 263 263 263 263 264 264 263 262 263
278 280 279 273 276 278 277 277 277 278 278 279 277 273 270 270 270 271 272 273 275 274 272 270 270 270 269 268 268 268 269 270 269 266 265 267 267 267 267 266 266 266 265 264 263 263 264 264 264 262 261 261 261 261
277 280 277 274 273 275 278 279 279 278 277 275 274 272 270 269 269 271 272 271 270 268 267 267 267 269 267 269 267 266 266 266 266 265 265 264 265 266 265 265 265 265 264 263 262 262 262 262 262 262 261 261 261 260
279 280 277 277 276 278 277 277 280 278 275 272 271 271 268 268 269 269 268 268 268 268 269 268 266 267 267 266 267 266 265 266 263 263 263 264 264 264 265 264 264 264 263 262 261 261 260 260 261 260 260 258 257 257
277 274 275 274 275 275 275 276 274 276 275 272 268 268 268 268 265 267 266 268 268 267 261 265 267 266 265 266 264 265 258 264 264 263 262 263 264 265 265 264 263 262 262 261 261 260 259 259 259 259 258 258 257 256
274 274 274 275 274 274 271 271 270 270 270 269 267 267 266 267 263 266 266 266 266 266 265 266 266 266 264 262 264 265 260 264 261 261 260 260 259 260 262 263 263 262 260 260 261 260 258 258 258 258 258 256 256 255

GFSWCAN_sfc_thetae_045.txt.gz
Theta_e
301 301 301 301 301 302 303 303 303 302 304 305 305 305 306 306 307 312 316 326 320 313 312 314 312 309 311 310 307 309 307 307 307 302 304 302 299 300 298 299 296 295 295 291 295 288 287 301 301 295 303 304 304 304
301 301 301 301 302 302 303 302 304 305 305 305 305 305 305 306 306 311 312 325 325 318 312 319 318 318 316 317 313 311 309 309 310 306 306 307 296 295 300 294 301 295 300 299 298 298 303 303 302 305 306 304 305 305
302 302 302 301 301 301 301 302 304 304 304 304 304 305 305 305 308 313 317 322 323 315 312 314 313 316 319 320 322 311 315 314 312 316 310 308 297 305 293 299 300 301 302 299 297 299 301 302 305 306 307 307 307 308
300 301 300 302 303 303 304 304 303 303 303 304 304 304 305 306 308 311 318 321 322 314 302 308 317 313 317 319 318 319 318 316 315 315 311 298 298 305 303 302 301 302 301 299 299 301 301 303 305 306 306 308 307 307
303 302 302 302 302 302 302 302 302 303 303 304 304 305 306 307 309 314 319 316 320 316 303 306 313 313 316 317 316 316 316 313 311 308 299 303 305 304 303 303 301 302 300 299 298 302 302 303 304 305 305 304 304 302
302 302 302 302 302 302 303 303 303 303 303 303 304 305 306 308 310 319 315 316 316 321 311 301 310 309 314 315 314 314 315 314 314 306 303 305 303 307 296 298 301 302 302 303 302 304 304 303 301 301 300 300 300 299
303 303 302 303 303 303 303 303 303 303 303 304 305 306 307 308 317 313 308 312 310 319 309 299 301 308 310 313 311 312 314 312 312 307 299 304 304 305 296 297 299 299 300 302 303 303 299 300 297 299 297 296 295 293
303 303 303 303 304 305 304 303 303 304 305 305 306 306 305 305 306 311 307 303 309 310 312 297 296 303 308 305 302 309 308 311 304 300 301 299 301 301 298 296 297 298 300 299 299 301 299 298 296 294 294 292 291 290
302 302 302 302 302 303 305 305 305 305 305 305 305 306 315 315 313 310 302 304 313 310 303 292 293 291 304 300 302 303 308 295 303 297 298 300 294 293 292 294 294 295 296 296 296 296 295 293 292 291 292 292 292 292
302 301 301 301 301 301 302 304 304 304 305 305 314 311 308 311 303 305 307 309 308 305 302 292 299 294 301 299 295 297 297 295 292 294 300 295 289 291 293 293 294 296 297 295 292 289 290 289 291 292 293 293 293 292
301 301 300 300 300 301 301 302 302 303 305 314 309 303 310 304 310 305 298 300 302 293 296 295 299 295 300 295 291 296 292 295 288 292 292 290 288 288 292 293 295 297 296 295 294 294 294 294 292 292 292 291 290 289
300 300 300 300 300 300 301 301 304 309 310 310 309 309 309 306 302 292 290 292 293 289 292 292 294 296 295 302 296 296 290 293 286 295 292 287 287 290 291 292 294 295 295 294 295 293 293 293 292 290 290 289 289 289
299 299 299 299 299 300 300 300 300 301 302 313 306 297 302 294 289 289 287 288 288 290 290 292 289 295 295 299 293 292 287 288 296 288 287 287 289 290 292 293 292 294 294 294 292 291 290 290 290 290 288 289 290 289
298 298 298 298 298 299 299 300 301 306 309 300 293 288 290 287 288 288 290 288 288 289 292 294 290 292 294 289 292 288 287 291 285 284 285 287 288 290 293 293 292 290 290 290 289 289 288 288 287 287 286 286 285 285
297 297 297 297 297 298 299 300 300 303 300 293 293 285 285 285 286 286 287 289 288 291 294 292 293 295 289 288 290 287 284 284 286 286 286 287 288 291 291 290 289 287 287 289 289 287 287 288 288 287 286 284 283 282
297 297 294 297 297 297 299 300 300 300 295 290 288 285 286 286 285 286 286 286 290 291 297 297 291 289 286 288 286 287 286 285 285 288 287 288 289 290 290 290 289 290 289 290 289 288 286 285 286 285 283 282 282 281
296 292 295 296 297 297 299 299 296 290 290 288 285 286 287 285 285 285 286 286 290 290 287 291 286 284 289 286 284 288 286 288 287 288 288 289 289 290 290 290 288 290 290 289 289 288 286 285 283 282 281 281 281 281
295 296 295 296 298 299 296 296 293 290 285 287 285 285 286 285 286 286 287 288 289 288 290 287 291 286 286 284 285 287 286 289 288 289 289 290 290 291 291 290 290 290 289 287 286 284 283 282 282 281 280 279 279 279
293 294 294 296 298 297 291 291 294 285 286 288 287 288 287 287 288 289 289 291 294 295 293 291 287 286 285 288 287 287 287 288 286 286 286 288 288 287 288 289 288 287 286 285 284 284 282 280 279 279 278 278 277 278
293 294 294 295 298 294 287 288 295 288 285 286 288 286 287 287 288 287 288 292 292 292 287 285 283 283 284 285 287 290 290 290 289 287 284 286 287 288 287 287 286 284 282 281 280 280 281 280 279 277 276 276 275 275
295 294 295 298 295 292 289 288 287 288 288 285 287 287 286 289 287 286 287 291 287 282 282 283 283 284 286 287 290 291 291 292 289 290 288 285 286 286 284 284 283 283 282 281 280 278 277 276 276 275 275 275 274 275
293 294 294 294 290 290 288 290 288 290 287 287 286 287 285 284 285 285 288 286 282 282 283 283 284 286 285 285 286 287 287 287 286 285 285 284 283 282 282 282 281 279 278 277 277 276 276 274 273 273 274 273 274 274
293 294 291 290 285 285 282 291 285 286 283 284 286 282 283 284 285 289 283 283 282 284 284 283 282 283 282 283 283 283 285 285 283 282 282 281 280 280 279 278 278 277 276 274 275 274 273 270 272 271 273 272 273 272
291 286 283 283 284 280 284 281 284 284 284 283 282 279 280 283 286 283 279 279 280 282 283 284 284 282 282 280 278 278 280 281 280 280 281 279 277 276 276 275 274 273 273 273 273 273 273 272 270 271 271 270 270 269
283 280 283 280 284 282 280 280 281 281 278 280 280 279 280 284 280 278 277 277 278 278 279 281 281 281 279 278 277 276 277 279 276 275 276 277 276 275 274 273 272 271 272 272 271 270 270 270 270 269 268 269 268 267
277 279 279 280 280 280 280 278 278 278 279 279 279 281 282 281 277 274 275 276 277 276 276 277 279 278 275 276 275 273 274 277 276 273 273 274 275 275 273 273 273 271 272 271 270 268 268 268 267 267 267 268 267 267
276 277 280 283 281 281 280 281 282 280 278 278 279 279 280 275 273 274 276 276 276 275 276 276 276 275 274 273 273 273 273 273 273 272 272 272 272 272 272 270 268 269 270 269 268 268 266 266 266 267 267 268 268 267
279 280 277 279 280 282 279 279 279 277 278 280 281 276 275 274 272 274 275 276 276 276 275 275 274 274 273 273 274 274 274 273 272 272 273 272 272 271 270 271 269 265 268 268 267 266 266 266 266 267 266 266 265 266
279 281 281 276 279 279 278 278 278 278 279 280 279 275 272 272 273 274 274 276 277 277 275 274 273 274 273 273 272 272 273 272 271 268 268 270 270 271 270 269 269 269 269 268 267 266 266 265 265 265 264 264 265 265
279 282 280 278 276 276 278 280 278 278 278 278 277 274 272 271 272 275 274 274 273 272 272 272 272 273 271 272 271 270 270 269 268 267 267 266 267 268 268 268 268 268 268 267 266 266 266 266 265 266 265 264 264 263
282 282 279 279 277 278 279 281 280 280 278 276 276 274 271 270 271 272 271 272 272 272 272 271 270 271 270 269 269 269 269 269 266 266 266 266 267 268 268 267 268 267 266 266 265 264 264 263 264 264 264 263 262 261
280 277 277 275 277 278 280 279 279 278 277 276 272 273 272 272 268 269 270 272 271 270 267 270 270 268 268 269 269 269 263 267 267 266 266 266 266 267 267 267 267 267 266 264 264 264 264 263 262 262 262 262 261 260
278 278 278 277 277 276 277 276 276 274 274 272 271 271 270 270 266 268 271 270 269 269 268 269 270 270 267 266 267 267 266 268 266 265 265 264 262 263 264 266 266 266 265 264 264 263 263 262 262 261 261 260 259 259

GFSWCAN_sfc_thetae_048.txt.gz
Theta_e
300 299 300 300 300 300 301 302 302 303 303 304 304 304 304 304 304 305 303 309 307 312 313 315 313 309 310 312 300 307 307 308 310 302 303 304 299 302 299 300 296 294 294 290 296 288 286 302 300 295 302 305 304 305
300 300 300 300 300 301 301 302 302 303 303 304 304 304 304 305 306 306 302 312 315 309 315 319 318 319 316 318 313 312 311 309 311 307 307 309 294 294 301 295 302 296 301 299 298 297 305 304 303 306 306 304 305 305
300 300 300 300 301 301 302 302 303 303 301 303 304 304 305 305 306 306 307 313 318 315 313 314 313 316 319 320 325 311 317 315 314 320 312 309 293 306 292 301 303 302 304 301 300 300 301 303 306 307 306 305 306 307
301 301 301 301 301 301 302 302 302 301 301 301 304 304 305 305 306 306 307 313 316 317 303 308 317 313 318 320 321 323 321 321 320 319 313 297 297 308 304 305 304 303 303 299 299 301 302 304 305 305 306 307 306 305
301 301 301 301 301 301 301 300 300 299 302 301 304 305 305 305 306 307 311 316 318 313 302 305 312 314 317 318 316 318 319 317 315 309 296 305 308 307 306 306 304 303 301 300 299 303 303 300 302 304 301 300 301 299
300 299 299 298 299 300 300 300 302 303 304 304 304 304 305 305 306 310 306 318 319 319 310 299 310 311 314 316 315 316 316 317 315 307 306 307 307 308 295 300 302 303 304 305 302 305 303 300 300 301 299 298 297 296
299 300 301 302 302 302 302 302 302 303 303 303 304 304 305 305 309 308 306 309 307 317 309 296 299 308 312 313 313 312 317 313 312 307 303 305 304 306 295 300 301 301 302 303 303 304 299 300 295 297 296 295 295 294
302 302 302 302 302 302 302 302 302 303 303 303 304 304 305 305 306 308 309 305 306 312 312 294 292 302 309 306 303 310 310 310 305 300 301 301 302 304 299 299 299 299 301 300 300 301 299 298 296 294 294 294 292 291
301 302 302 302 302 302 302 302 303 303 304 304 305 306 310 310 308 307 302 304 318 310 302 291 292 290 305 301 302 304 307 295 303 297 299 301 295 294 297 297 297 298 298 296 297 297 296 294 293 292 293 292 291 291
300 301 302 303 303 302 302 303 303 304 305 305 310 308 298 305 302 304 310 308 307 305 303 294 299 293 300 298 295 296 298 294 292 295 300 294 290 294 295 297 297 298 298 297 293 291 291 290 291 292 292 292 291 289
300 300 301 302 303 303 304 304 305 305 306 315 306 299 305 303 309 306 296 298 300 293 296 297 299 295 301 294 291 298 293 295 290 292 294 290 289 290 294 295 298 298 297 296 296 294 294 293 292 291 290 289 290 288
300 300 300 300 300 302 302 303 304 312 314 311 310 310 311 306 302 292 289 293 292 289 292 293 295 296 297 303 296 296 290 293 287 295 289 287 288 292 293 294 295 296 295 294 295 293 293 292 292 290 289 288 288 287
298 299 299 299 300 301 301 302 303 305 305 314 305 295 301 293 289 287 285 288 287 289 291 292 290 295 297 298 292 291 287 289 296 288 287 288 289 292 293 294 294 295 294 293 292 291 290 290 290 288 287 287 287 287
298 298 298 298 299 300 300 301 302 306 308 299 291 287 288 286 286 286 287 287 287 288 291 292 290 292 293 288 290 286 287 290 285 284 286 287 289 291 292 293 291 290 288 290 289 288 287 286 285 284 283 283 282 282
298 297 298 297 298 300 300 300 302 306 299 291 291 284 284 285 286 286 287 287 288 293 294 293 293 293 288 287 289 286 284 284 286 286 287 288 290 292 291 291 288 288 287 287 288 286 285 286 285 284 283 283 282 279
298 297 295 297 298 299 300 302 301 301 295 289 286 285 286 286 285 285 285 286 290 292 296 298 290 287 286 288 286 286 286 285 286 287 287 289 289 291 290 289 289 289 289 288 287 287 286 285 284 283 282 281 279 279
296 292 295 297 298 298 300 300 296 290 288 287 284 286 286 285 284 285 286 286 291 291 287 292 286 284 289 286 284 287 284 286 287 287 288 289 289 289 289 289 288 289 289 289 288 287 286 284 283 282 281 280 280 281
293 296 296 298 299 298 297 298 292 289 284 286 284 284 285 285 285 285 286 288 290 290 291 287 292 287 285 284 284 286 286 288 288 288 288 289 289 290 290 290 290 290 288 287 286 284 283 283 282 281 280 279 279 279
294 295 296 297 299 297 291 292 295 285 285 286 286 287 287 286 288 289 289 291 293 296 294 292 287 284 284 284 285 286 286 286 284 285 286 287 288 289 289 289 288 287 286 285 285 283 281 280 279 279 278 277 277 277
295 295 295 297 299 294 288 289 296 288 285 286 288 287 287 287 288 287 288 291 290 290 283 281 279 280 281 283 285 287 288 287 286 284 284 285 286 286 286 286 285 284 282 281 280 281 281 280 278 277 276 276 275 274
296 294 296 298 296 294 290 289 287 288 288 285 288 288 286 290 287 286 288 290 285 281 280 283 283 284 286 285 286 286 286 289 288 289 286 284 287 286 285 285 285 284 282 281 280 277 277 276 275 275 275 275 274 274
293 295 295 296 291 289 288 291 289 290 287 287 287 288 285 285 285 285 289 284 281 281 282 282 282 284 283 282 283 285 286 286 287 286 286 286 283 282 282 282 281 279 278 278 277 276 275 274 273 273 273 273 273 274
294 294 290 289 285 285 283 292 285 286 282 283 286 283 283 284 285 290 282 281 281 283 285 283 283 284 282 282 282 282 284 284 282 282 281 280 280 280 278 278 279 277 274 274 275 274 273 271 272 271 273 272 272 272
292 286 283 284 284 280 286 282 285 284 284 283 282 279 280 282 286 283 277 278 280 281 281 282 284 282 281 279 277 278 280 281 280 280 281 279 276 276 276 274 274 274 274 274 274 273 273 272 270 271 271 270 270 269
283 280 283 280 286 282 280 280 281 281 279 281 280 280 280 284 280 278 276 277 277 276 277 280 280 280 278 277 276 276 278 278 276 275 277 277 276 275 273 273 272 272 273 272 271 270 270 270 270 269 268 268 268 268
277 279 279 279 280 280 280 277 278 279 280 279 278 280 283 281 276 273 274 276 275 274 275 276 278 276 273 275 273 273 273 277 275 272 272 273 274 274 273 273 272 269 271 271 269 268 268 268 267 267 267 267 267 267
276 278 281 284 282 282 281 282 283 281 279 278 280 280 281 276 273 274 276 276 274 275 275 276 276 275 273 273 273 274 274 274 273 272 273 272 272 272 271 269 267 267 269 269 267 266 265 266 266 266 266 268 268 266
279 279 277 280 281 283 279 280 279 277 278 280 282 275 274 272 270 274 275 277 277 277 275 275 274 274 273 274 274 275 275 274 273 273 273 273 273 272 271 271 269 268 268 268 267 267 266 265 265 265 265 265 264 266
279 281 282 276 279 279 278 278 277 277 278 280 278 274 271 271 273 274 275 277 278 277 275 274 274 275 274 273 273 272 272 271 271 269 269 269 270 269 270 270 270 269 269 268 268 268 267 266 265 265 265 264 265 266
278 283 280 279 277 276 277 280 277 278 278 278 276 273 271 271 272 275 274 274 273 272 272 273 273 273 272 272 271 270 269 268 267 266 265 265 266 268 269 269 268 268 268 267 266 266 267 266 266 265 265 265 265 264
282 282 280 279 277 278 279 281 280 279 277 276 277 273 270 270 271 272 272 273 273 273 273 271 270 270 269 268 268 268 268 268 267 267 266 266 267 268 268 268 268 268 267 266 265 265 264 264 264 263 263 263 263 262
279 277 278 276 277 279 280 280 280 279 277 275 273 273 273 273 268 269 270 272 272 270 269 270 269 268 268 269 270 269 263 267 268 266 266 265 265 266 266 266 266 267 266 265 265 264 264 263 263 263 262 262 262 260
279 279 278 278 278 277 277 277 276 274 274 272 271 272 270 269 265 268 271 271 269 269 268 269 270 270 269 268 268 268 267 269 267 268 267 265 262 264 263 265 265 264 264 263 263 263 263 263 263 262 261 260 260 260

GFSWCAN_sfc_thetae_051.txt.gz
Theta_e
300 300 299 299 299 299 299 299 298 299 301 302 303 304 305 305 306 306 303 305 303 301 304 310 306 303 304 304 296 302 300 302 300 291 292 286 285 290 290 296 290 287 285 280 284 284 281 299 297 290 295 298 299 299
300 300 299 299 299 299 299 300 300 301 302 303 303 304 305 305 305 305 298 306 308 301 303 309 313 312 311 310 304 302 301 303 303 297 294 291 290 287 289 284 298 288 294 288 290 288 298 300 299 301 301 299 299 300
300 299 299 299 299 299 300 300 301 301 302 303 303 304 304 304 304 304 300 305 305 301 302 305 308 314 316 314 315 301 301 308 308 310 300 295 289 291 285 286 290 296 300 293 292 297 298 301 302 302 302 301 301 299
299 299 299 299 299 300 300 301 301 302 302 303 303 304 304 304 304 304 302 306 307 301 293 304 315 311 316 318 317 314 312 315 313 308 294 291 289 300 288 293 292 296 297 295 293 298 299 299 300 301 300 300 295 295
299 299 299 300 300 300 301 301 301 302 302 303 303 304 304 305 305 305 305 307 309 303 296 301 310 312 314 315 315 316 315 311 305 295 289 292 297 294 293 291 287 297 296 288 288 298 296 295 298 299 296 295 295 293
300 300 300 300 301 301 301 301 301 301 301 301 303 304 304 304 305 304 298 306 308 311 303 291 306 306 312 313 312 309 311 311 306 297 290 298 302 294 286 283 296 299 301 301 297 298 296 295 295 296 294 293 293 292
300 300 300 301 301 301 301 301 300 300 300 301 302 304 304 304 305 304 302 306 309 312 301 291 293 304 308 308 305 307 309 304 304 298 293 295 296 296 289 285 296 299 299 299 300 298 293 294 291 293 293 292 292 291
299 299 299 299 299 300 300 299 300 300 301 302 303 304 304 305 306 305 309 305 305 308 302 290 290 296 305 295 295 304 300 299 298 297 295 289 293 287 285 294 296 298 297 296 296 297 294 293 293 292 292 291 290 289
299 299 299 300 300 299 299 299 300 301 303 303 304 304 304 305 304 307 307 303 308 305 292 287 289 288 302 297 296 297 298 290 298 290 292 291 288 287 293 293 294 296 295 294 294 293 292 290 291 292 291 289 287 289
301 300 301 301 301 301 301 302 302 303 303 304 304 305 296 304 304 304 305 299 299 297 295 288 295 289 297 291 290 290 290 289 287 289 295 288 286 292 292 294 295 295 295 294 290 289 290 289 290 290 291 290 289 287
302 301 301 301 301 301 302 302 303 303 304 305 302 295 302 303 303 297 289 289 291 286 290 292 293 291 297 289 288 289 288 286 281 285 286 284 285 290 295 295 297 296 294 293 293 292 293 292 289 288 288 287 285 284
301 301 302 302 302 302 302 303 303 305 307 306 304 305 304 300 293 287 286 287 287 285 288 289 291 294 291 298 287 289 287 285 282 289 287 281 286 290 292 293 294 294 294 294 294 293 293 291 289 288 286 284 283 282
299 299 300 301 302 303 303 303 304 306 308 306 298 292 295 288 286 281 281 285 285 286 288 288 287 288 291 291 287 287 286 282 284 282 280 284 289 291 292 293 293 294 293 291 289 289 288 287 286 285 284 284 282 280
299 299 298 299 300 300 301 303 303 303 303 292 288 284 285 284 283 283 284 285 285 286 288 289 287 287 287 287 286 284 285 286 281 276 279 285 289 290 292 292 290 289 286 287 286 285 283 283 282 281 280 279 279 278
298 298 298 297 299 300 301 301 301 301 294 286 286 281 282 284 285 285 285 286 286 289 289 288 288 288 286 286 285 285 283 281 280 280 284 287 289 290 289 287 286 285 285 285 286 284 282 282 281 280 280 279 278 275
298 297 295 297 299 300 301 300 299 297 290 286 285 284 285 285 285 285 285 285 288 287 288 287 286 285 284 285 284 283 280 279 282 284 286 289 289 289 287 286 287 287 286 285 285 284 283 281 279 279 280 278 273 272
296 292 297 298 299 299 299 296 291 287 286 285 283 285 285 284 283 284 285 285 288 287 285 285 282 282 285 283 282 284 281 283 285 285 287 288 287 286 286 287 286 286 286 285 284 283 281 281 280 279 277 278 278 277
292 295 298 299 300 298 296 295 288 286 283 284 281 283 285 285 285 285 285 286 286 285 286 285 287 284 282 281 281 283 284 285 286 287 287 288 287 287 288 288 288 287 285 284 283 282 281 279 278 277 277 277 277 276
294 295 297 298 298 294 288 289 291 283 283 284 284 284 284 284 286 287 287 288 288 288 286 285 279 278 279 281 282 284 284 284 284 284 286 287 287 287 287 286 284 284 283 282 280 278 277 277 276 275 275 275 273 273
296 295 296 297 298 289 286 286 292 285 283 283 285 284 284 284 285 286 286 286 286 284 280 278 278 279 280 282 284 284 285 286 285 283 283 284 286 285 285 284 281 280 279 279 278 277 276 275 276 275 274 272 269 267
293 292 296 297 291 290 286 285 285 286 285 284 285 285 284 285 285 283 282 284 280 279 278 279 280 281 282 282 283 285 285 287 285 284 283 283 284 283 282 282 282 281 279 277 276 274 273 272 273 272 266 264 264 265
290 295 287 290 286 286 284 287 285 286 285 284 284 284 282 282 282 283 282 278 278 279 280 280 281 280 280 279 280 282 283 283 284 284 284 283 280 280 280 279 276 274 275 275 275 272 271 272 271 270 264 263 265 265
293 290 286 284 280 281 280 286 281 283 279 281 283 280 280 280 282 284 276 279 279 280 282 282 280 280 279 279 279 280 281 280 279 278 278 277 276 275 274 274 275 273 272 273 274 272 270 269 267 264 264 262 262 259
291 284 280 279 279 278 280 278 281 281 280 279 277 275 277 278 282 276 274 275 276 277 277 279 281 278 277 276 274 275 278 278 277 277 277 275 273 273 273 272 272 272 273 273 272 270 269 265 265 263 259 257 256 257
276 276 278 275 279 275 273 277 276 276 274 276 274 276 276 280 275 273 273 273 272 272 273 277 275 275 274 272 273 272 275 275 272 271 272 275 273 272 271 271 270 270 271 268 267 264 263 260 259 257 259 255 259 257
275 278 277 277 278 276 275 275 274 276 274 272 277 279 278 275 269 269 271 271 269 271 271 272 273 271 270 272 270 270 271 275 273 270 270 271 270 271 271 269 267 266 268 266 262 260 260 259 257 257 256 258 259 260
275 276 280 282 281 280 275 277 278 274 271 273 273 274 275 265 265 270 273 273 272 272 273 273 273 272 271 271 272 271 271 271 270 270 271 270 270 269 267 263 260 262 264 261 257 256 255 254 254 255 255 260 259 257
278 280 276 279 276 279 276 275 270 271 271 275 277 267 266 265 266 271 273 275 273 274 273 273 272 272 271 271 270 269 270 270 269 269 270 269 267 265 263 262 262 266 263 261 257 258 256 256 254 253 255 254 253 254
278 281 276 275 277 276 273 273 274 275 276 276 268 266 266 269 271 272 273 273 274 272 271 270 271 270 270 269 267 266 265 264 262 259 258 259 260 260 260 259 260 259 259 258 263 264 262 261 260 259 255 258 259 256
277 280 277 275 273 273 275 275 273 274 276 272 270 269 269 268 270 272 271 271 270 267 270 270 269 267 266 265 263 261 260 258 259 256 253 253 255 259 259 262 258 258 260 256 255 257 261 258 258 255 255 255 259 257
280 276 274 273 274 276 277 278 276 271 269 269 268 264 265 265 265 268 268 269 268 270 267 263 263 262 261 260 258 256 257 257 259 257 256 256 257 259 262 262 262 257 257 261 257 254 253 253 255 257 253 253 253 255
277 275 269 269 270 277 278 277 276 274 272 266 265 263 264 265 260 262 267 268 265 265 263 263 260 258 257 258 260 258 257 259 260 257 257 255 255 254 254 255 256 261 259 259 259 257 257 255 255 257 256 255 252 251
272 270 270 269 273 271 269 270 271 267 266 264 265 265 261 260 258 262 266 264 261 260 260 260 262 263 262 259 258 258 261 258 259 264 264 261 256 257 254 253 252 252 252 252 252 252 254 258 258 258 257 254 251 253

GFSWCAN_sfc_thetae_054.txt.gz
Theta_e
299 299 299 299 299 299 299 299 299 299 300 300 300 300 300 300 305 303 299 306 301 299 301 306 305 298 301 300 294 299 299 299 295 288 289 289 285 289 288 292 288 286 283 279 281 278 279 298 296 289 291 296 297 297
299 299 299 298 298 298 299 299 299 299 300 300 300 301 302 304 305 304 298 305 307 298 300 306 307 308 305 305 303 300 300 300 300 294 295 292 288 286 287 284 295 287 289 286 288 286 295 298 297 298 299 297 297 298
299 298 299 298 298 299 299 299 299 299 298 300 301 302 303 304 305 304 299 303 302 298 298 302 302 310 314 312 311 300 300 306 303 304 299 295 289 290 284 284 289 294 299 292 291 295 296 298 300 300 299 295 295 296
299 299 299 299 299 299 299 299 298 300 301 301 302 303 304 304 305 304 299 304 302 301 292 295 314 309 314 314 311 310 307 308 307 302 293 290 288 296 285 292 290 294 296 292 292 295 296 297 297 295 294 294 293 293
299 298 298 299 299 299 299 299 300 301 301 302 303 303 304 304 304 302 304 303 306 302 292 297 308 310 313 313 310 310 310 308 300 293 287 290 293 292 290 289 286 295 294 288 287 297 294 293 294 295 293 292 292 290
298 299 299 299 299 299 300 300 301 301 302 302 303 303 304 304 304 299 295 301 305 307 298 290 305 306 309 313 312 309 310 306 304 298 288 296 301 292 286 281 295 297 299 298 295 296 294 293 293 294 291 291 290 289
299 299 299 300 300 300 300 301 301 301 302 302 303 303 303 303 302 297 294 301 304 306 297 290 292 303 308 308 305 306 306 303 304 297 293 294 296 293 285 285 295 296 296 295 295 294 291 292 288 291 290 290 290 289
300 300 300 300 300 300 300 301 301 301 302 302 303 303 303 303 303 299 305 305 305 300 300 289 291 294 304 296 296 302 299 299 298 296 292 289 292 286 284 293 294 295 295 295 293 294 292 291 290 289 290 289 288 287
300 300 300 300 300 300 300 300 300 301 301 302 303 303 303 301 298 301 305 305 307 303 292 287 288 288 298 295 293 291 294 289 295 289 289 292 288 286 290 292 293 294 293 290 291 291 290 288 288 289 289 287 286 284
299 299 299 299 300 300 300 300 300 300 302 302 301 299 293 301 305 306 303 299 300 297 294 288 293 289 295 287 288 286 287 287 282 289 293 286 285 290 292 293 293 293 292 291 287 286 288 288 289 288 288 287 286 284
299 299 299 299 299 299 299 300 301 302 302 300 296 293 301 305 304 298 292 288 290 285 289 292 290 291 295 287 287 287 286 286 283 287 285 285 284 289 293 294 294 294 294 292 291 291 291 291 289 287 286 285 284 282
301 301 301 301 300 300 299 301 302 302 301 304 303 305 303 299 292 288 286 285 286 284 288 289 290 293 290 297 289 288 286 282 281 290 286 283 287 292 293 293 294 294 293 292 293 291 290 289 288 286 284 282 281 282
301 301 301 301 301 302 302 302 303 306 304 304 297 291 293 286 283 279 280 283 283 286 288 287 287 288 290 291 287 285 282 279 284 278 284 285 289 292 293 292 292 292 291 290 290 289 288 287 286 283 281 280 280 279
300 300 301 302 302 302 302 303 303 303 301 291 289 284 284 283 282 283 284 285 286 286 287 287 287 287 286 287 285 283 285 284 280 276 279 285 288 291 292 291 288 287 286 286 285 285 284 283 282 282 280 279 278 277
298 299 299 299 301 302 302 302 301 299 292 286 286 280 281 284 285 285 285 286 286 288 284 285 287 288 285 285 285 284 283 280 279 280 284 287 289 289 288 287 285 284 284 284 284 282 281 281 280 279 279 279 278 275
299 298 296 299 300 300 300 299 296 294 288 286 284 284 285 285 284 285 285 285 288 286 287 288 285 283 283 283 284 281 280 279 282 284 286 288 287 286 286 286 286 286 284 283 282 282 281 280 279 279 278 277 274 273
297 293 297 299 299 299 299 295 290 286 285 284 282 284 284 284 283 284 285 285 288 286 285 282 283 282 284 282 281 283 279 282 284 285 287 287 285 285 285 285 285 285 284 284 283 282 281 280 279 278 276 276 277 275
292 295 298 299 298 297 295 293 286 284 282 284 281 283 284 284 284 285 285 286 286 284 285 285 286 280 278 279 279 282 283 284 285 286 285 286 286 286 287 286 286 285 284 282 282 281 280 279 277 276 278 277 276 276
294 296 298 298 297 292 287 288 289 282 283 284 284 284 284 284 285 285 285 286 286 286 284 282 277 276 277 280 280 283 283 284 283 284 285 286 286 285 285 284 284 283 282 281 280 278 277 277 276 275 275 274 272 271
295 296 296 297 297 288 285 286 289 284 282 283 285 284 284 284 284 283 282 283 283 282 278 277 276 277 277 279 281 284 284 285 285 283 283 284 285 285 283 282 280 280 279 278 277 276 275 275 275 274 273 271 267 266
290 291 293 292 289 289 286 285 285 285 284 284 284 285 283 282 279 279 279 282 278 278 276 278 277 279 280 280 281 282 282 285 285 284 283 281 282 281 281 281 280 279 276 274 273 272 272 272 272 272 268 264 264 262
288 292 282 286 283 283 284 286 285 285 284 284 284 284 282 281 279 278 280 276 275 277 279 278 278 277 277 277 278 280 280 280 281 280 279 280 277 276 275 276 275 273 274 273 273 271 271 271 271 269 267 266 267 265
290 286 280 279 277 278 278 284 281 283 280 281 282 280 279 280 281 282 275 276 275 277 278 277 277 277 276 276 277 278 279 278 276 275 275 274 274 274 273 273 274 272 271 272 273 271 270 270 269 267 266 264 262 258
287 281 278 276 275 271 273 275 280 280 279 278 277 274 277 279 279 274 271 271 273 275 276 275 276 274 274 273 272 273 275 275 274 274 275 273 271 271 271 271 270 271 271 270 269 268 267 265 265 264 261 257 254 254
274 274 273 272 275 273 271 271 271 273 273 274 273 272 276 277 271 270 269 270 270 270 271 273 272 272 270 270 270 271 273 273 271 269 270 273 271 270 269 269 268 268 269 266 264 262 262 261 259 259 259 252 257 256
273 273 273 275 275 273 272 270 269 271 268 271 275 276 274 269 266 265 269 268 268 269 269 270 270 269 269 270 268 268 269 272 270 267 268 269 269 269 268 266 265 264 266 262 259 256 256 253 252 253 252 257 258 257
272 272 277 282 279 277 274 273 273 269 267 268 272 271 268 262 263 268 271 272 270 270 272 271 272 270 269 270 270 269 269 270 269 268 269 269 268 266 261 258 258 260 262 257 254 252 253 251 251 250 249 250 251 252
275 277 272 274 270 273 266 265 266 267 267 273 268 262 258 259 264 270 271 273 271 272 271 271 271 269 267 267 266 265 264 267 267 267 266 266 264 263 261 261 259 266 260 258 256 257 256 256 256 254 253 251 252 252
275 277 271 268 267 267 270 268 269 272 274 270 260 262 263 267 268 270 271 272 272 270 269 268 267 267 265 264 262 262 261 259 257 254 252 252 253 257 261 261 260 257 254 255 259 261 260 258 258 255 253 251 255 253
269 272 267 263 264 266 268 266 266 268 271 266 268 267 266 266 268 269 269 269 267 265 265 265 263 262 258 255 254 257 256 254 256 253 250 250 253 257 256 257 257 257 255 251 255 254 258 252 254 253 254 255 249 248
272 268 265 267 267 270 268 266 268 267 262 261 260 258 259 263 263 267 267 266 266 260 262 257 257 254 258 256 251 251 254 256 253 253 252 251 250 249 250 250 250 250 251 252 254 254 253 251 250 251 254 255 253 251
265 264 265 264 266 273 271 270 271 264 259 258 260 255 258 256 256 261 264 261 263 262 259 253 254 256 253 252 251 253 257 256 255 254 256 253 252 249 249 250 249 248 248 247 248 248 247 249 252 254 255 254 253 253
263 261 260 264 267 265 262 267 264 263 260 257 260 259 257 256 256 260 264 260 258 254 255 255 256 258 258 254 255 253 254 251 253 257 258 259 258 256 251 248 248 248 249 248 246 248 250 249 247 247 250 251 252 251

GFSWCAN_sfc_thetae_057.txt.gz
Theta_e
301 301 301 300 300 299 299 299 299 299 299 299 299 300 300 301 302 298 298 304 300 297 299 302 303 298 298 299 291 296 298 297 293 288 289 286 284 288 287 290 287 287 284 279 279 275 280 295 293 287 290 294 296 296
300 300 299 299 298 299 299 299 299 299 298 299 299 299 299 300 301 300 297 305 306 298 298 302 303 304 303 303 300 298 297 298 298 293 290 288 286 284 286 284 293 287 289 286 287 286 294 296 294 295 296 296 296 296
298 298 298 298 298 298 299 298 298 298 299 299 299 299 298 299 301 300 300 302 299 294 293 298 299 305 308 306 309 297 298 303 302 302 295 292 287 289 285 285 290 293 295 289 290 294 295 296 297 296 297 295 296 297
298 298 298 298 298 299 299 299 299 299 299 300 300 300 300 301 300 303 300 302 298 296 289 295 310 309 312 312 310 309 306 307 304 300 293 290 286 296 290 293 291 294 295 291 290 293 296 296 294 293 292 293 292 292
298 298 298 298 298 298 298 299 299 299 299 300 300 300 300 302 304 303 302 302 303 298 292 291 303 308 312 311 310 309 309 304 297 292 287 290 292 291 288 291 290 295 293 289 288 295 294 294 293 293 292 291 291 289
298 298 298 298 298 298 298 298 298 298 299 300 301 301 304 304 303 300 294 299 305 305 296 288 301 303 309 311 308 308 307 304 301 296 292 297 299 291 287 285 294 296 297 296 295 298 293 292 292 292 290 289 289 288
298 298 299 298 298 298 298 299 300 299 300 301 302 303 303 303 300 295 290 295 305 305 295 288 290 302 307 307 303 304 303 300 300 296 291 292 294 293 283 282 293 294 294 294 294 293 289 290 288 289 289 289 289 288
299 299 298 299 299 299 299 300 300 301 302 302 302 302 302 302 301 294 303 304 304 300 298 287 288 293 304 297 296 299 295 297 297 295 293 285 292 287 286 291 293 294 294 293 292 293 292 289 289 288 288 288 286 285
299 299 299 300 300 300 300 301 301 302 302 302 302 303 301 296 292 297 303 304 305 298 289 286 286 286 299 295 294 294 294 289 295 287 291 293 287 289 291 292 292 293 292 289 290 289 289 287 287 287 287 285 283 283
299 299 299 299 300 300 300 300 301 302 302 302 299 294 288 293 303 304 301 297 298 297 295 287 293 288 296 289 288 290 288 288 287 289 293 287 287 291 292 294 293 292 291 290 287 286 287 286 286 286 285 285 285 283
300 299 299 299 300 300 300 300 301 302 301 294 293 291 299 304 298 295 287 287 288 286 289 290 291 291 295 289 288 287 286 285 285 287 287 285 285 288 292 293 293 293 293 292 292 291 291 289 288 286 285 284 283 282
300 300 299 299 299 300 300 300 301 298 296 297 298 302 301 297 291 287 285 286 286 285 287 288 290 293 290 294 288 288 286 284 283 289 286 284 285 290 291 291 292 292 292 292 292 291 291 290 288 286 284 282 282 281
300 299 300 299 299 300 300 300 301 302 302 301 297 290 292 286 284 283 281 283 283 285 287 288 286 287 288 288 285 283 278 280 286 284 283 284 289 291 292 292 292 293 292 290 289 289 287 285 285 283 281 281 280 279
299 300 300 300 300 300 300 301 301 301 300 290 287 283 284 282 282 283 284 285 285 285 286 287 286 286 285 284 283 281 285 284 273 275 279 285 289 290 290 290 289 287 286 286 286 285 283 282 280 280 280 279 277 276
300 300 301 300 300 300 300 301 301 299 292 286 285 280 281 284 285 285 285 285 286 287 287 287 287 288 284 285 283 284 282 280 276 276 284 286 289 287 287 286 285 284 284 284 284 282 281 280 279 278 279 278 276 274
299 299 297 301 301 302 301 299 295 294 289 285 284 284 285 285 284 284 285 285 287 286 286 285 284 283 283 283 283 280 277 278 281 283 285 288 287 286 285 285 285 285 284 283 283 282 281 279 278 278 278 276 274 273
297 293 297 299 300 299 298 294 287 284 285 284 282 284 284 284 283 284 285 285 287 286 284 282 282 282 284 281 280 282 279 281 284 285 285 286 285 284 284 284 284 284 283 282 281 281 280 279 277 276 275 275 276 274
293 295 299 299 299 297 294 291 285 285 282 283 281 282 283 282 283 283 284 285 282 284 285 283 283 277 275 277 278 282 283 283 284 284 285 285 285 286 286 285 285 284 282 281 280 279 279 278 278 276 277 276 274 274
294 295 297 298 297 291 287 287 288 282 282 284 284 284 284 282 282 283 283 284 285 284 282 279 274 274 274 277 278 282 283 283 283 283 284 285 285 285 285 284 283 282 281 280 279 278 277 277 276 276 275 274 273 272
295 295 295 296 296 288 285 285 289 284 282 283 283 280 281 280 281 281 281 281 281 280 277 274 273 275 276 277 279 282 284 285 284 282 281 282 283 282 282 281 280 279 277 276 276 275 275 274 274 273 272 271 269 268
290 290 292 293 290 288 286 285 284 285 285 283 285 283 279 280 277 276 276 280 277 276 274 276 275 276 278 278 280 280 281 284 282 282 280 278 279 279 279 278 278 276 274 274 273 272 272 272 272 271 270 267 267 268
286 290 282 285 284 284 284 285 285 285 284 284 283 283 280 277 276 276 278 273 273 274 276 275 275 276 275 275 276 278 278 278 278 276 276 277 275 274 274 275 274 272 272 272 272 270 270 271 271 270 268 267 268 267
288 285 280 279 276 278 280 284 282 283 280 280 281 279 279 278 278 280 272 273 273 275 277 276 276 276 275 275 276 276 276 276 274 273 273 272 272 272 272 272 273 271 270 271 272 270 269 270 268 266 266 266 265 261
285 276 273 273 275 270 276 277 281 280 279 278 277 275 277 277 278 272 268 269 271 273 273 274 274 272 273 272 271 271 273 274 272 272 273 271 269 269 269 268 268 268 269 268 267 266 265 264 264 263 261 258 258 257
274 273 271 268 272 272 269 269 271 274 273 274 273 274 275 275 269 268 267 268 269 269 270 271 271 271 269 269 270 270 271 271 269 267 269 271 269 268 267 266 266 266 266 263 261 260 260 259 258 257 258 253 258 254
269 272 274 269 272 271 269 267 269 270 267 267 270 273 271 268 265 264 268 268 268 269 269 269 269 268 267 268 267 267 268 270 269 265 266 267 267 265 263 262 262 262 263 258 256 254 253 251 250 251 249 252 253 251
270 271 274 279 275 275 270 267 270 267 266 267 268 266 262 259 260 267 271 271 269 270 271 270 269 268 267 267 267 267 268 268 267 266 266 265 264 264 259 257 257 260 261 256 253 252 253 252 250 251 250 247 248 248
277 276 269 267 267 270 264 262 263 265 266 271 265 258 256 257 262 268 270 271 270 270 269 267 266 265 264 264 264 264 265 264 264 263 263 262 262 262 262 262 261 264 259 258 254 251 251 255 254 253 251 252 253 249
271 270 269 264 263 265 267 264 265 268 269 266 257 259 261 265 265 267 270 270 270 269 266 265 262 260 261 261 260 259 260 256 256 253 249 248 251 255 257 256 255 255 253 252 257 260 258 256 253 252 252 250 253 251
266 267 265 260 261 264 264 265 263 260 266 264 266 266 264 264 266 269 268 266 264 261 259 258 258 257 251 254 252 256 255 251 252 252 249 249 252 253 248 248 248 249 248 248 249 251 256 251 253 250 249 250 248 246
266 265 263 263 265 263 265 264 266 262 257 259 255 257 258 261 262 266 265 263 262 258 257 254 254 249 254 251 249 249 252 254 253 252 252 250 248 247 247 247 247 245 245 245 246 246 246 246 246 246 247 249 251 250
262 256 261 262 264 265 265 266 259 258 254 255 255 252 255 254 254 259 261 259 260 258 254 250 253 256 251 249 249 251 254 252 251 250 252 252 252 250 248 248 246 246 246 245 244 244 245 246 244 244 243 245 246 248
259 257 256 258 263 264 266 268 263 260 258 257 257 257 255 253 253 258 260 255 253 252 252 252 252 252 255 253 251 250 250 248 249 256 255 256 253 252 249 246 246 246 246 245 245 245 246 246 244 243 243 243 243 244

GFSWCAN_sfc_thetae_060.txt.gz
Theta_e
301 300 301 301 301 301 303 302 301 301 301 301 301 301 301 301 302 296 295 300 296 293 298 301 300 296 296 296 289 293 297 295 289 286 286 284 282 288 287 291 289 288 285 281 279 277 281 293 292 288 290 291 293 293
301 300 301 301 301 301 301 301 301 301 301 301 300 300 301 301 300 297 291 298 303 298 297 301 301 302 302 301 298 297 294 296 296 292 288 286 284 284 287 284 293 287 291 287 289 288 294 294 292 293 294 294 295 295
300 300 299 299 300 300 300 300 300 300 300 300 300 300 300 301 300 297 294 298 299 294 296 297 297 304 305 304 305 295 295 301 298 299 294 291 287 289 285 286 289 293 294 289 290 292 294 295 295 295 295 295 296 296
298 298 298 299 299 299 299 299 299 299 299 299 299 299 300 300 300 298 295 298 299 296 289 294 306 304 309 307 307 305 302 303 301 298 291 290 287 295 287 293 291 294 295 291 290 293 295 296 294 293 292 293 293 292
297 297 298 297 298 298 298 298 298 298 298 299 299 299 300 300 300 298 298 301 302 296 290 291 298 306 310 308 307 307 305 301 296 291 288 289 292 291 288 289 284 295 293 290 291 296 295 294 292 293 292 291 291 290
298 298 298 298 298 298 298 298 298 298 298 298 299 299 300 300 301 296 291 301 302 302 293 286 295 297 305 308 307 304 304 301 298 293 289 294 297 292 286 284 293 296 296 297 296 297 292 292 291 291 290 289 289 288
298 298 298 298 298 298 298 298 298 299 299 299 299 300 300 301 298 294 291 298 303 301 292 287 288 298 304 307 304 303 301 298 299 295 288 292 293 291 282 283 292 293 294 295 293 293 290 291 288 289 288 288 288 287
298 298 298 298 298 298 298 298 299 299 299 300 300 300 301 302 301 294 301 303 303 297 296 287 288 291 302 296 296 301 296 296 296 294 290 287 291 286 288 291 291 292 291 291 290 291 291 289 288 287 287 287 285 284
298 298 297 298 298 299 297 297 298 299 299 300 301 302 300 296 291 293 303 304 303 296 286 285 286 282 295 293 294 294 297 288 293 288 289 291 286 289 291 290 291 292 292 288 288 289 289 286 286 286 286 285 283 283
298 299 298 299 299 299 299 298 299 300 301 301 299 293 287 291 303 303 299 292 295 294 294 287 292 287 293 287 289 288 288 287 286 289 293 287 287 291 292 294 294 291 290 289 286 285 285 285 285 284 284 285 284 283
299 299 299 299 300 300 300 299 300 302 300 292 288 289 295 302 299 294 287 287 288 286 289 289 290 289 294 288 286 287 287 286 285 287 288 285 285 289 292 293 293 293 292 291 291 291 290 288 285 284 283 284 284 284
300 300 300 300 300 300 301 301 301 298 293 294 297 299 299 295 290 284 285 285 286 285 287 288 289 292 290 293 288 287 284 285 284 289 286 284 285 289 290 289 291 291 291 291 290 289 288 287 286 284 283 283 282 281
299 300 300 300 300 300 301 301 300 300 299 297 295 289 291 286 282 275 280 283 284 286 287 287 286 288 287 289 285 284 283 282 286 285 284 285 289 290 290 291 291 292 291 290 289 288 287 285 285 283 282 281 280 279
299 299 300 300 300 300 300 300 299 298 296 290 285 282 284 282 283 283 284 284 284 285 286 287 286 286 286 285 284 284 284 285 281 279 280 285 288 289 290 290 288 287 286 286 285 284 283 282 281 281 280 279 278 277
299 299 300 299 299 300 300 299 299 298 290 284 285 280 281 283 284 285 285 285 285 287 287 286 286 287 285 284 284 284 282 280 278 275 283 286 287 287 286 286 285 284 284 283 283 281 280 280 279 278 278 278 277 275
300 299 298 299 300 300 300 299 296 294 287 285 283 283 284 284 283 284 285 285 287 286 286 287 285 284 283 284 282 279 279 278 280 283 285 286 285 285 285 284 284 284 283 283 282 281 280 279 278 277 276 275 274 273
298 293 300 299 300 300 299 294 289 285 284 283 281 283 283 283 282 283 284 283 286 286 283 283 282 281 284 280 278 281 278 281 283 284 284 285 284 284 284 283 283 283 282 282 281 280 279 278 277 276 274 275 275 273
293 298 300 299 298 297 294 291 285 284 282 283 280 281 280 280 280 280 282 284 285 285 283 280 282 276 274 275 276 280 282 283 284 284 284 284 284 284 285 283 283 282 281 280 280 279 278 277 277 276 276 275 274 273
295 297 299 299 297 292 286 286 286 281 282 283 282 282 281 280 281 281 282 283 284 283 281 277 271 270 271 275 275 277 282 283 282 282 283 284 284 283 283 282 281 280 279 278 277 276 276 276 275 275 275 274 272 271
294 294 296 298 296 288 285 284 288 284 281 280 280 278 278 277 278 279 278 280 280 279 275 272 271 272 273 275 277 278 283 284 282 279 278 279 280 280 279 278 277 277 276 276 275 275 274 273 273 273 272 272 271 270
291 291 291 294 290 288 285 284 284 284 284 281 282 281 278 278 275 274 274 278 274 274 272 273 273 275 276 276 278 278 278 279 277 279 276 274 276 277 276 276 276 275 273 272 271 271 271 270 271 271 269 269 269 269
287 290 284 286 285 285 284 285 284 285 284 283 283 282 278 275 274 274 276 271 271 272 274 273 273 274 274 274 274 276 276 276 276 275 274 275 273 272 272 273 272 271 270 270 270 269 269 270 269 268 267 267 269 267
287 285 280 280 278 279 279 285 281 283 279 279 280 278 276 275 276 278 270 271 271 273 274 275 275 274 273 274 274 274 275 274 272 272 271 270 270 270 269 269 270 269 268 268 269 268 266 267 266 264 264 264 264 262
284 276 272 272 274 269 275 277 281 280 279 278 277 275 275 274 276 271 267 268 270 272 272 273 273 272 272 271 269 269 272 272 271 270 271 269 267 266 267 266 266 266 266 266 265 263 263 261 261 261 258 255 255 253
274 273 271 268 271 270 268 270 273 273 274 275 274 274 273 275 269 267 266 267 268 268 269 270 270 270 269 268 269 268 270 270 268 266 268 269 267 266 264 264 264 264 265 261 258 257 256 253 251 250 252 248 254 251
271 272 269 269 270 268 269 265 266 269 269 269 270 269 267 265 263 263 267 268 267 268 268 268 268 267 266 267 266 266 267 269 267 264 264 265 265 263 261 260 260 262 261 255 253 251 252 251 249 252 249 251 251 247
268 269 272 276 273 272 264 263 267 263 262 264 265 260 261 258 259 266 269 269 268 268 268 268 268 267 266 266 266 266 266 266 265 264 265 264 263 263 260 258 258 260 262 257 252 251 252 251 249 249 248 245 245 247
275 270 264 264 264 267 261 260 261 262 264 268 261 255 254 255 261 267 268 269 267 267 266 265 264 264 264 264 264 263 263 263 263 262 262 261 260 259 258 257 257 260 252 250 250 250 251 253 252 251 249 249 250 248
265 265 266 261 261 262 264 262 262 264 266 263 254 255 259 263 264 266 268 269 269 266 263 261 260 259 260 260 258 258 257 254 255 252 248 248 248 253 253 249 249 249 248 250 255 259 260 256 256 252 250 248 249 246
264 265 262 258 259 260 257 261 258 259 264 263 265 265 263 263 265 267 265 264 262 259 256 256 252 252 249 252 251 255 253 249 249 251 249 248 250 251 245 246 247 246 244 244 245 248 254 248 251 247 247 247 246 244
263 263 262 261 261 259 257 258 260 260 256 258 255 255 257 259 261 263 262 258 254 251 255 253 252 247 250 249 247 248 250 252 249 250 250 250 249 247 246 246 245 243 243 244 243 243 244 243 242 242 242 245 245 244
259 259 260 260 261 264 263 257 254 254 253 252 253 250 252 252 252 256 258 257 256 253 251 248 251 253 249 247 246 247 250 249 248 248 250 249 248 247 247 247 244 244 243 243 242 243 243 243 242 241 241 242 241 242
255 254 255 258 260 261 262 262 260 258 255 255 256 254 250 251 252 256 257 251 252 251 251 250 251 251 251 250 249 247 248 246 247 255 254 253 251 250 246 244 243 243 245 243 242 242 243 244 243 242 241 240 242 241

GFSWCAN_sfc_thetae_063.txt.gz
Theta_e
300 301 300 300 299 300 301 302 302 301 302 303 302 302 302 302 303 299 296 299 295 293 294 299 300 295 296 295 290 294 295 296 292 288 288 288 286 290 291 293 290 290 288 286 285 285 285 296 293 292 298 296 298 298
300 301 301 301 301 301 301 302 302 302 303 302 301 301 301 302 303 301 294 300 300 293 296 301 302 303 303 301 297 299 296 296 296 293 291 290 288 287 291 288 294 290 294 291 292 293 299 297 300 299 298 299 298 299
301 301 301 301 301 301 301 301 302 302 301 301 301 301 302 302 302 299 294 297 296 292 296 296 298 305 306 305 307 298 298 302 300 302 296 294 289 291 287 288 292 294 297 293 294 297 297 298 300 299 299 299 300 300
299 299 300 301 301 301 301 301 301 301 300 301 301 301 301 302 301 298 294 298 295 294 288 293 305 304 309 307 306 306 305 305 304 302 293 290 291 296 290 295 294 296 297 294 294 296 297 299 299 299 297 297 296 296
298 299 299 299 299 299 300 300 300 300 301 301 301 301 301 300 299 297 298 298 298 294 288 292 300 305 309 307 308 308 306 303 300 296 290 293 295 294 291 293 291 298 296 293 293 299 299 301 301 298 296 296 295 293
298 298 298 298 299 299 299 300 300 300 300 300 300 301 300 299 298 295 289 297 299 298 291 286 297 299 307 308 306 305 306 304 302 297 294 296 298 296 290 291 297 299 299 298 299 299 295 294 293 295 294 293 293 292
298 298 298 298 298 298 298 298 298 299 299 299 300 300 300 299 296 291 290 297 298 301 290 286 289 298 305 306 305 304 305 303 302 298 294 296 297 296 288 290 296 295 296 296 295 295 293 293 293 292 291 290 290 289
298 298 298 298 298 298 298 298 298 299 299 299 299 299 299 299 298 293 301 302 302 296 294 285 287 293 302 297 296 302 298 299 298 296 293 294 294 291 290 293 293 293 293 292 291 293 293 290 289 288 289 289 287 287
298 298 298 298 298 298 298 298 298 299 299 299 299 300 297 295 292 295 302 302 303 297 286 285 286 287 297 293 294 296 296 288 295 289 291 295 290 291 295 293 293 293 293 289 289 290 290 288 287 287 288 287 286 285
298 298 298 298 298 298 298 298 299 299 299 299 297 292 285 293 300 302 298 293 294 294 291 286 290 288 294 289 289 289 289 286 286 290 294 290 290 293 294 295 295 292 290 290 287 285 286 286 286 286 286 287 286 285
299 299 298 298 297 298 297 298 299 299 298 293 291 289 295 302 298 293 285 286 287 286 290 289 290 289 295 288 287 289 286 285 284 288 290 287 287 290 293 295 294 292 292 292 294 291 291 289 287 285 285 285 284 284
300 300 300 298 298 298 299 299 300 298 295 295 296 299 298 293 289 286 285 286 286 285 288 288 289 292 291 295 288 288 285 285 283 289 287 284 287 290 291 291 292 292 292 290 290 289 288 287 286 286 285 284 282 281
299 300 300 299 299 300 300 300 299 299 298 297 293 289 289 286 282 282 280 283 284 286 288 288 287 289 289 290 286 285 284 283 286 285 285 285 289 290 290 290 290 292 290 289 287 286 286 285 285 284 281 282 282 280
299 299 300 300 300 299 299 299 299 298 294 287 285 282 283 283 284 284 285 286 286 286 287 288 286 288 287 286 285 284 285 285 283 282 280 285 288 289 289 289 287 286 285 285 284 284 283 282 281 281 281 281 279 278
299 299 300 299 299 299 299 298 298 294 289 284 284 280 281 284 284 285 285 286 286 287 287 287 287 288 285 284 285 285 283 280 280 280 283 285 286 286 285 285 284 283 283 282 282 281 280 280 280 279 279 279 278 277
299 299 296 299 300 299 298 297 295 293 287 285 282 281 283 282 281 283 284 284 286 286 287 287 285 284 283 285 282 280 280 278 280 283 284 285 284 284 284 284 283 283 282 281 281 281 280 279 278 277 277 276 275 275
298 294 299 299 298 297 297 292 289 285 284 283 279 281 280 280 278 280 282 282 285 285 284 285 281 279 284 279 277 281 278 280 282 283 284 284 283 283 283 283 282 282 281 281 280 279 278 278 277 276 275 275 275 274
294 298 299 299 297 296 293 290 285 285 281 281 278 279 278 278 278 279 281 282 284 284 282 278 281 275 272 273 274 277 280 282 283 283 283 284 284 283 283 282 281 281 280 279 279 279 278 277 276 275 275 275 274 274
298 299 298 298 297 291 285 286 287 280 278 280 279 279 280 278 279 279 280 281 282 282 280 276 272 270 271 274 274 276 278 282 279 279 280 281 281 280 280 280 279 278 278 277 277 276 276 276 276 276 275 275 273 272
296 297 296 296 295 286 284 284 288 282 277 278 279 276 276 275 276 277 276 278 278 276 272 270 269 271 272 274 276 277 281 283 280 276 275 276 277 277 277 277 277 276 276 275 275 275 274 273 273 273 274 274 273 271
292 291 295 293 288 286 284 284 284 284 282 279 281 279 277 277 274 272 273 276 272 272 270 272 272 274 275 276 277 277 277 278 276 277 275 273 275 276 275 275 275 274 273 272 271 271 271 270 271 271 271 270 271 271
287 291 285 288 285 285 284 284 284 285 284 282 282 280 276 274 273 272 274 270 269 270 273 272 272 273 273 272 273 275 275 275 274 273 273 273 271 271 271 272 271 270 270 270 269 268 268 268 269 268 268 268 268 267
288 285 281 281 279 280 279 285 281 282 278 279 280 276 274 273 274 275 269 270 270 272 273 274 273 273 272 273 273 273 273 272 270 270 270 269 269 269 268 268 269 268 267 267 268 266 265 265 264 264 264 264 264 263
284 275 273 273 275 271 276 276 280 279 279 278 276 273 273 273 274 270 266 267 269 271 271 271 273 271 271 270 268 269 271 271 270 269 269 268 265 265 266 265 265 265 265 265 264 262 262 261 260 262 260 261 260 260
274 271 272 268 270 268 266 269 271 273 273 274 273 271 271 273 267 266 265 267 268 268 269 270 269 270 268 267 268 267 269 269 267 265 267 267 266 265 264 264 264 264 265 263 261 261 260 259 259 259 259 258 259 258
268 269 268 267 270 268 268 266 266 267 267 268 268 268 268 267 264 263 266 267 267 267 267 268 268 266 266 267 266 266 266 268 266 264 264 265 265 264 263 262 262 262 263 261 262 260 260 259 259 259 259 259 254 256
267 266 269 273 271 269 263 264 267 264 263 263 263 258 260 257 259 265 268 268 267 266 267 267 268 266 265 265 265 265 265 265 264 264 264 263 263 263 262 260 260 261 262 260 259 259 259 259 258 258 257 258 257 256
272 268 262 262 262 266 258 259 259 261 262 266 261 254 253 254 260 266 267 267 267 266 265 265 265 264 263 263 263 263 263 263 263 262 262 261 260 259 257 258 257 259 256 256 258 258 258 258 258 257 256 256 256 256
263 264 265 258 259 260 260 259 258 262 264 262 255 256 259 263 264 266 267 267 267 265 263 261 260 260 261 260 259 258 258 260 259 256 255 255 256 258 256 256 256 255 254 257 257 262 260 259 257 256 255 254 253 252
263 264 261 255 256 257 256 259 258 260 264 264 265 264 262 262 264 266 266 265 263 261 259 257 255 257 255 257 256 258 256 254 256 256 255 255 256 258 254 255 255 254 253 255 255 257 256 255 256 254 253 253 253 253
262 262 260 259 257 256 257 254 254 259 256 257 256 256 257 260 262 263 261 259 259 257 258 256 255 252 255 254 255 255 255 256 251 254 255 256 255 255 255 254 253 252 252 253 253 253 253 253 251 251 252 251 250 250
258 257 259 258 259 260 261 254 252 254 252 254 253 250 253 254 253 259 260 260 259 257 252 252 256 257 253 253 250 252 251 254 254 254 254 255 256 255 254 253 251 251 252 252 251 251 251 252 252 251 251 250 249 249
253 252 254 257 259 260 260 261 259 257 255 254 255 253 249 253 253 257 257 252 256 257 256 255 256 255 253 251 253 253 251 252 250 255 255 255 252 253 253 253 252 251 252 252 252 251 251 251 251 250 250 248 248 248

GFSWCAN_sfc_thetae_066.txt.gz
Theta_e
302 302 301 301 300 301 301 300 301 302 303 303 303 303 303 303 303 301 300 306 302 296 298 300 300 297 296 299 295 299 298 300 299 294 293 293 292 293 293 297 295 294 293 292 293 291 289 300 298 297 305 307 307 307
301 301 301 300 300 302 302 302 302 302 302 302 302 303 303 302 302 301 296 304 306 299 297 303 304 305 303 304 301 303 299 300 301 297 298 299 294 294 294 289 299 292 298 298 297 298 305 304 306 307 307 308 306 307
300 301 301 301 300 301 301 301 301 301 301 302 303 303 302 302 302 300 298 301 302 295 296 300 298 305 310 309 312 300 303 304 303 307 302 301 296 299 293 294 296 298 301 299 298 303 303 305 307 306 306 306 306 307
299 300 300 301 301 301 301 301 301 301 302 302 302 302 302 302 302 301 297 303 301 297 288 294 305 302 311 311 311 311 306 311 310 308 304 298 298 302 300 300 298 301 300 299 300 304 302 303 307 308 306 306 305 306
299 299 300 300 300 301 301 301 301 302 302 302 302 302 302 302 301 300 302 302 303 297 289 292 299 302 307 309 307 308 310 309 308 304 294 298 304 302 302 300 299 302 301 298 298 307 305 307 307 310 307 305 304 303
299 299 299 299 300 301 301 301 301 301 301 301 301 302 300 300 300 298 293 301 303 303 291 286 298 296 305 308 306 307 308 308 308 304 304 305 306 304 298 297 303 305 305 306 304 302 303 301 300 302 305 305 303 302
298 299 299 300 299 299 299 299 299 300 300 301 301 300 299 299 301 295 293 298 302 301 290 286 286 298 305 306 307 306 308 306 306 304 303 304 305 303 298 296 302 304 305 304 302 301 301 298 300 299 299 299 299 299
298 298 298 299 299 299 299 300 300 300 300 299 299 299 299 299 299 298 303 301 301 296 293 284 286 292 303 298 296 306 301 304 305 304 302 302 302 302 297 302 304 303 300 300 298 299 300 298 297 296 297 296 294 294
298 298 298 298 298 298 298 299 300 300 299 299 299 299 300 297 294 299 299 300 305 297 288 285 285 286 299 296 297 297 300 292 300 297 300 303 298 295 299 302 302 302 300 300 297 297 296 296 295 295 296 295 293 292
298 298 297 298 298 298 298 298 299 299 299 299 298 293 288 296 301 299 294 293 294 296 294 287 291 286 296 295 293 295 297 292 288 292 301 295 297 303 302 302 303 301 299 298 295 293 293 293 292 292 293 294 293 291
298 298 298 298 298 298 298 298 299 299 298 296 290 289 298 302 297 292 287 288 288 286 292 289 290 292 297 292 291 294 290 291 287 292 291 291 295 299 298 297 298 298 298 298 298 296 295 295 293 290 290 290 288 287
299 298 298 298 298 298 298 298 298 298 296 294 295 300 298 290 288 286 285 286 286 287 291 290 293 296 295 302 293 292 288 288 285 290 286 285 288 292 294 294 296 295 295 295 296 295 291 291 288 286 285 284 283 283
298 298 298 298 299 299 298 298 298 300 300 300 297 290 289 287 284 285 281 285 287 290 292 292 289 295 297 298 290 290 286 288 289 286 284 285 289 290 291 290 289 289 288 288 289 288 286 285 285 283 282 283 283 282
298 299 298 299 298 298 299 298 299 299 299 291 288 283 285 284 286 288 289 291 290 291 290 293 290 296 294 290 290 287 287 290 286 284 281 286 286 287 288 287 286 284 284 284 283 283 282 282 282 283 283 283 282 281
299 299 299 299 299 298 298 298 298 300 294 286 287 282 283 285 286 286 287 289 288 293 291 292 292 292 288 287 287 287 286 283 283 282 284 286 286 286 285 284 283 282 282 282 282 282 282 283 282 282 282 282 280 279
299 299 298 298 298 298 298 299 298 297 290 286 282 282 281 282 280 282 283 285 286 288 289 289 286 285 285 286 284 283 283 280 281 283 285 285 284 283 282 282 282 282 282 282 283 282 281 280 280 280 280 279 278 278
299 297 298 298 297 297 297 297 294 288 285 283 280 281 280 280 278 279 281 281 285 286 285 287 283 281 287 282 280 282 279 281 283 283 285 285 284 283 283 283 283 283 283 282 281 281 280 281 280 279 277 277 277 276
296 298 298 298 298 296 293 291 287 286 280 281 279 279 279 279 277 277 280 282 284 284 284 279 282 277 276 276 276 278 280 281 283 283 283 284 283 284 284 283 283 282 281 281 281 281 280 279 278 277 277 277 277 277
298 299 298 297 297 292 287 287 288 278 278 279 279 279 279 278 278 278 279 281 281 283 280 277 273 272 273 275 276 278 282 282 279 279 280 281 282 281 281 281 281 281 280 280 279 278 278 279 279 279 278 278 277 277
297 296 295 295 295 289 286 286 290 282 279 279 280 277 276 276 277 278 277 279 279 277 273 272 271 273 274 276 278 280 283 283 281 278 277 278 280 279 279 279 278 278 277 277 277 277 277 276 276 276 277 277 276 275
294 293 294 293 290 290 286 286 285 284 283 281 282 280 279 279 276 275 274 277 274 273 271 273 274 275 277 277 279 280 280 281 279 278 276 275 277 277 276 277 277 277 276 275 274 273 274 273 274 274 274 274 273 273
289 291 290 292 289 287 287 287 286 287 285 283 283 281 278 275 275 274 276 272 270 271 274 273 273 275 274 273 275 276 276 276 275 275 275 275 273 273 274 275 275 273 273 273 273 271 270 271 272 272 271 271 271 270
289 289 287 287 284 285 282 289 284 284 281 281 281 276 275 275 275 277 271 271 271 273 275 275 273 274 273 274 274 273 274 273 272 271 271 271 272 272 272 272 273 272 270 269 270 269 268 268 268 268 269 269 269 268
287 281 278 279 280 277 282 280 282 281 282 279 277 273 274 274 276 272 267 269 271 273 272 273 274 272 272 271 270 271 272 272 271 271 271 270 268 268 269 269 269 269 269 268 268 267 267 266 266 267 266 266 266 266
277 274 277 274 278 276 275 275 274 277 275 276 273 272 273 276 270 268 267 269 270 269 271 271 271 271 269 269 269 268 270 270 269 268 269 270 269 269 268 267 267 268 269 268 266 266 265 266 266 265 265 264 264 264
270 272 273 273 273 273 273 271 271 271 273 271 270 272 273 270 267 266 268 269 269 268 269 270 270 268 267 269 267 267 268 270 269 267 267 269 269 269 268 267 266 265 267 267 267 266 265 265 264 264 264 263 261 263
270 271 274 274 274 273 271 272 272 270 267 267 268 267 268 264 264 267 270 270 269 269 269 271 270 269 267 267 267 268 268 268 267 266 266 266 266 267 267 265 263 264 266 265 265 265 264 264 263 263 263 264 263 262
273 273 268 269 268 270 266 266 266 265 266 268 268 262 262 263 264 268 269 270 270 270 269 268 268 269 268 268 268 267 266 266 266 266 266 265 265 264 264 264 262 262 264 263 265 264 264 263 263 262 261 261 261 261
271 272 271 262 265 265 264 263 264 265 267 268 265 263 263 266 267 269 269 270 271 270 268 266 266 267 267 266 266 266 267 268 265 263 263 263 264 263 264 264 264 263 264 265 263 264 263 262 261 260 260 260 260 261
270 273 267 263 261 262 264 266 265 266 268 268 267 266 265 265 267 269 270 270 268 266 266 265 265 267 266 266 264 264 264 264 264 265 264 263 263 263 263 263 263 262 263 263 263 263 261 262 261 262 260 260 260 259
271 273 268 267 264 266 267 267 268 267 267 266 267 265 264 265 267 267 266 266 266 265 266 264 263 265 265 264 265 264 262 263 260 261 263 263 263 263 263 262 262 262 262 261 261 261 261 261 260 259 259 257 256 257
270 268 267 264 265 267 267 268 268 267 268 267 265 266 265 266 263 266 265 267 267 266 261 265 265 264 263 263 262 262 257 262 262 262 261 263 263 262 262 262 261 261 261 260 260 260 258 258 259 258 258 257 256 255
268 269 268 267 266 265 267 268 267 265 266 266 265 264 264 264 262 265 264 263 266 267 266 266 265 264 262 261 262 262 259 262 258 259 259 259 257 259 262 262 262 260 259 260 260 259 257 256 258 257 257 255 255 255

GFSWCAN_sfc_thetae_069.txt.gz
Theta_e
301 301 301 302 302 301 301 302 302 302 302 302 303 303 303 303 304 301 300 307 303 296 297 300 300 297 297 297 293 298 298 299 300 295 293 294 294 293 292 294 295 295 293 294 296 293 290 306 302 298 306 310 310 310
300 301 301 301 301 300 300 300 301 302 302 302 302 303 303 303 304 302 298 306 307 300 298 305 305 306 304 302 300 299 300 300 301 297 299 298 297 298 294 289 298 292 300 297 298 299 308 307 307 309 310 310 311 311
300 300 301 301 301 301 302 302 301 301 301 302 302 303 303 304 303 302 302 305 304 298 298 300 300 306 309 309 309 301 302 305 303 306 302 301 296 299 293 295 296 299 302 299 300 303 306 308 309 310 311 310 311 311
300 300 300 301 301 300 300 300 301 301 302 302 302 303 303 303 302 303 302 305 302 297 290 294 304 302 308 308 308 308 307 308 309 307 304 301 299 303 299 298 298 299 301 299 299 302 304 307 308 311 311 311 310 310
300 300 300 301 301 301 301 301 301 301 302 302 303 303 303 302 302 304 304 304 304 297 293 293 301 304 306 306 305 305 307 308 306 304 302 298 301 300 304 302 300 302 301 300 298 304 306 306 309 310 311 311 311 309
299 300 301 301 301 301 301 301 301 301 301 302 303 302 301 302 302 299 291 302 305 304 296 290 301 300 304 304 304 304 306 307 306 303 303 302 303 302 300 296 300 302 305 306 304 306 307 307 304 305 306 310 311 310
299 300 300 301 301 301 301 301 301 302 302 302 302 301 301 301 300 296 295 300 303 305 297 290 292 299 302 300 301 304 305 305 306 304 303 304 303 304 301 296 300 304 306 308 307 305 304 306 304 303 304 305 304 307
299 299 299 300 300 300 300 300 300 300 300 300 300 301 301 301 302 299 302 303 304 299 298 289 288 290 301 292 297 306 302 303 303 302 305 303 305 305 297 301 303 304 306 306 306 305 305 304 303 302 302 301 301 301
298 299 299 299 299 299 299 299 299 299 300 300 300 300 300 299 295 298 301 301 305 299 290 287 287 285 298 299 300 300 303 296 304 300 301 302 299 296 298 301 302 305 305 305 304 302 302 302 301 300 300 300 299 298
298 298 298 299 298 298 298 298 298 299 299 299 300 295 291 298 300 299 294 294 296 297 296 287 292 287 291 292 294 296 300 295 291 296 303 298 298 303 304 306 308 307 306 304 301 300 299 299 299 299 299 299 298 297
298 298 298 298 299 299 299 298 298 298 299 298 294 292 299 300 301 293 288 289 291 287 292 293 291 287 292 290 290 294 291 294 289 292 294 292 295 297 301 303 304 305 304 303 303 302 301 301 299 297 295 295 294 292
299 299 299 299 299 299 299 298 299 300 298 297 299 300 299 293 288 286 285 287 286 286 293 291 288 286 291 301 295 294 291 292 287 292 287 286 287 291 294 297 299 300 300 299 298 295 296 294 292 289 286 284 283 282
299 299 299 299 298 299 298 298 299 298 300 303 296 291 290 287 283 283 281 286 286 292 293 290 286 292 296 298 292 291 288 287 293 287 285 286 288 289 289 288 288 291 292 290 287 286 285 284 284 283 282 283 283 282
298 298 298 299 299 298 298 298 298 299 293 294 289 284 285 285 287 287 289 291 290 293 296 295 292 293 295 292 291 286 288 291 287 285 284 287 286 286 287 287 284 283 283 283 282 283 283 283 283 284 284 284 284 282
299 299 298 298 298 298 298 298 298 298 296 288 288 281 282 285 285 286 288 289 289 295 297 295 294 294 288 289 290 289 286 284 283 283 284 285 286 285 283 283 282 282 282 283 284 284 283 284 283 283 283 283 282 281
299 298 297 298 298 298 299 299 301 301 293 287 283 283 284 284 282 282 283 285 286 289 299 294 289 287 286 288 287 283 285 281 281 283 285 285 283 283 283 283 283 284 283 283 283 283 283 282 281 281 281 281 280 280
299 296 298 298 298 298 298 301 297 289 286 284 281 283 283 283 279 280 281 281 285 289 286 289 285 281 288 284 280 282 279 282 284 284 285 284 283 283 284 284 284 284 283 283 283 283 282 282 282 280 278 278 278 278
297 299 298 298 300 298 296 295 290 286 281 282 279 280 281 280 279 277 279 282 285 284 285 281 285 280 279 278 278 281 282 283 284 284 284 284 284 285 284 283 283 283 282 282 282 282 282 281 280 279 279 279 279 279
299 299 297 297 298 294 288 288 289 279 279 281 281 281 280 279 279 279 280 282 282 283 283 280 275 274 275 277 278 281 283 282 280 281 282 283 283 283 283 282 282 282 281 281 280 280 280 280 280 280 280 280 278 279
296 295 295 296 297 291 286 286 289 283 279 279 281 278 277 277 278 279 278 279 279 276 273 272 272 273 274 277 279 282 283 283 281 279 279 280 282 281 281 280 280 280 280 279 279 279 278 277 277 277 277 277 276 275
295 294 295 297 294 291 288 287 285 284 283 281 281 281 279 280 276 275 275 277 274 273 271 274 275 275 277 278 280 281 281 282 281 279 277 277 279 279 279 279 279 279 278 277 276 275 275 275 275 275 275 274 274 275
291 293 293 296 291 290 288 289 287 287 286 284 283 282 279 276 275 274 276 272 270 273 274 273 274 275 274 275 276 277 277 277 277 277 278 277 275 275 275 276 276 275 275 274 274 273 273 273 274 274 274 273 272 271
292 293 291 290 286 287 283 291 285 286 282 281 282 278 277 277 277 279 272 273 272 275 277 275 274 276 275 275 275 275 276 275 273 273 273 273 274 274 274 274 275 273 271 272 273 272 270 270 271 272 272 272 272 271
290 284 282 282 283 280 286 282 284 283 282 279 277 275 275 276 279 274 270 271 272 275 274 275 277 274 273 273 272 273 273 274 273 273 273 272 271 271 272 272 272 272 272 272 271 271 270 270 269 270 269 269 269 268
279 276 280 277 281 280 278 278 278 279 275 277 275 274 275 279 273 271 269 271 271 271 273 273 274 273 271 270 270 270 272 273 271 271 272 272 271 271 270 270 270 271 272 271 269 269 269 269 269 268 267 266 266 266
273 275 275 276 276 276 276 274 274 274 275 273 273 276 277 274 270 268 269 271 271 271 272 272 271 269 268 270 269 269 270 272 271 268 269 272 273 272 271 269 268 267 270 271 270 268 267 267 266 266 267 266 264 265
273 274 276 278 277 277 276 276 276 274 271 270 272 272 272 268 266 268 272 272 271 272 273 273 272 270 269 268 269 269 269 269 269 268 269 269 269 269 270 267 265 266 269 268 268 268 267 266 266 266 266 266 265 264
275 275 269 272 271 273 270 270 270 269 270 271 273 267 266 267 267 271 271 273 272 272 271 271 271 271 271 271 271 270 269 269 269 269 269 269 268 268 267 266 266 265 266 267 268 267 267 266 266 265 264 264 263 264
274 276 272 265 269 269 267 268 268 269 269 271 270 267 266 268 272 271 272 273 274 273 271 270 269 271 270 270 270 271 271 272 269 266 266 266 266 265 267 267 267 267 268 267 265 266 265 264 263 263 263 264 265 265
273 277 270 267 266 266 267 269 268 270 271 270 270 268 268 268 270 274 273 273 272 270 270 270 271 271 270 269 267 267 268 268 268 269 267 265 265 266 266 266 266 266 267 267 266 266 262 265 265 265 264 264 263 262
278 276 271 270 267 269 270 271 272 271 271 270 271 269 267 268 269 270 270 271 270 270 269 268 268 270 269 268 269 267 265 265 264 265 266 266 266 266 265 265 265 266 266 265 264 264 263 264 264 262 261 260 259 260
275 273 270 267 268 271 272 273 272 271 271 270 269 270 269 269 267 269 269 271 270 269 266 270 268 266 267 267 266 265 265 266 265 265 265 266 266 265 265 265 265 265 264 264 264 263 262 261 262 261 261 261 260 259
274 273 272 271 269 268 271 272 270 269 271 270 269 270 269 269 265 268 269 270 271 270 269 269 269 267 265 265 266 265 265 265 262 263 262 262 260 262 264 266 265 264 262 263 263 262 261 260 261 260 260 259 259 258

GFSWCAN_sfc_thetae_072.txt.gz
Theta_e
300 300 301 301 301 302 302 302 302 303 303 302 302 303 303 304 303 303 299 305 299 295 297 300 299 296 297 297 293 297 295 296 297 292 291 292 291 293 291 294 294 293 291 291 292 289 288 306 304 296 302 310 310 310
300 300 301 301 301 302 302 302 302 301 302 302 302 302 303 303 303 302 296 303 306 298 298 304 302 304 301 302 299 300 296 297 298 296 296 296 294 296 293 287 297 287 295 295 296 297 308 309 307 309 310 310 311 312
300 301 301 301 301 301 301 301 301 301 302 302 301 302 303 303 303 301 299 301 301 296 295 298 298 305 308 308 310 298 300 302 302 304 300 300 294 297 291 293 295 298 302 295 295 301 304 308 310 312 310 310 312 313
300 301 301 301 301 301 302 301 301 301 301 301 301 302 303 303 303 302 299 302 300 296 290 293 304 302 308 308 308 308 304 307 307 305 301 300 296 302 296 297 295 299 300 297 297 300 302 303 306 310 310 312 312 311
300 301 301 301 301 300 301 301 300 301 301 301 302 302 303 303 303 302 302 303 304 297 290 293 300 303 305 305 304 306 304 303 299 296 301 297 301 301 304 301 298 300 298 297 298 304 304 305 308 308 310 311 313 311
300 301 301 301 301 301 300 300 301 301 301 302 302 303 303 303 303 300 292 301 304 307 296 289 300 299 302 304 303 302 303 303 302 298 298 302 305 302 299 295 300 302 302 302 304 308 308 309 307 307 306 308 310 311
300 301 301 301 301 301 301 301 301 301 302 302 302 302 302 302 301 297 294 299 305 306 296 290 291 298 301 302 302 301 303 301 301 299 297 301 301 301 299 293 298 302 303 304 306 308 306 307 305 304 305 305 305 307
299 300 301 300 300 301 301 301 301 301 300 301 301 301 301 302 302 299 303 303 305 299 297 289 288 292 301 296 294 298 297 298 299 298 301 301 303 303 295 298 302 303 303 307 308 307 306 306 304 302 302 303 302 302
299 299 299 299 300 301 300 300 300 301 301 301 301 301 301 300 296 297 301 301 308 299 290 289 287 286 293 295 297 297 296 287 298 297 299 302 299 294 298 300 301 303 303 304 307 304 304 303 302 301 301 301 298 298
298 298 298 298 299 299 299 300 300 300 300 301 301 295 289 296 300 301 299 295 294 296 296 289 294 288 291 287 291 294 294 289 289 295 301 298 296 301 300 305 307 307 306 305 301 300 301 300 299 300 299 299 299 297
299 298 298 298 299 299 299 299 300 301 301 299 294 290 297 300 299 295 289 288 290 287 292 293 293 289 291 285 285 296 291 294 288 294 294 293 293 295 298 301 303 305 304 303 303 303 303 301 298 296 289 288 287 285
299 299 299 299 299 299 299 299 299 300 299 298 297 299 300 294 289 287 285 288 287 285 292 290 289 291 290 291 287 293 288 291 286 295 290 287 286 290 291 290 295 299 298 296 295 292 290 289 288 286 284 283 283 282
299 299 299 298 298 298 299 299 299 299 301 301 296 291 290 287 283 282 280 283 286 292 291 290 287 289 288 290 288 287 286 286 292 287 286 285 287 288 288 287 286 288 288 288 286 286 285 284 284 282 281 281 281 281
298 298 298 298 298 298 298 298 298 300 302 293 287 283 285 283 284 284 286 288 288 292 290 292 289 289 288 285 287 285 287 289 286 284 282 284 284 285 284 284 283 282 283 282 282 283 282 282 282 282 282 282 281 281
298 298 298 298 298 298 298 298 298 300 295 287 287 281 282 284 283 284 286 287 286 289 294 292 292 292 288 287 289 288 285 282 281 280 282 284 285 283 282 282 283 283 282 282 283 282 282 282 281 281 281 281 280 279
298 297 297 297 298 298 299 299 299 299 292 286 282 281 282 282 278 280 280 281 285 283 289 293 289 287 285 287 285 281 283 277 280 282 283 284 283 283 283 283 283 283 283 282 282 282 281 280 280 280 280 280 279 279
299 297 297 298 298 298 299 297 295 288 286 284 281 282 282 280 279 277 279 280 283 284 286 289 283 282 289 283 279 280 278 281 283 283 284 284 283 283 283 283 283 283 282 282 282 281 281 281 280 279 277 277 278 278
297 298 298 298 300 299 297 295 289 285 279 281 279 280 280 280 279 279 281 281 283 285 285 281 286 279 277 277 277 281 281 282 283 283 283 283 284 284 283 282 283 282 282 282 281 281 280 279 278 278 278 279 279 278
297 298 296 297 298 295 289 288 289 279 279 281 280 281 281 280 281 280 280 281 283 283 282 280 275 273 273 277 277 280 282 282 280 280 281 281 282 282 281 281 281 280 280 279 279 279 279 280 279 279 279 279 277 278
297 296 296 296 298 291 286 286 290 283 279 280 281 278 278 277 279 279 277 278 279 277 273 272 272 273 274 277 279 283 282 282 280 277 277 279 281 281 280 280 279 279 279 279 278 278 277 276 276 276 276 275 274 274
296 296 297 298 295 291 287 286 284 284 283 281 282 280 279 279 276 274 274 277 274 272 271 273 273 275 277 278 279 279 280 281 279 278 277 276 278 279 278 278 278 277 276 275 275 274 275 274 274 274 273 273 274 274
292 294 295 296 291 290 288 289 286 287 284 282 282 281 278 275 275 274 275 272 271 272 273 273 274 274 274 274 275 276 277 277 277 277 277 277 275 275 275 275 275 273 273 273 273 272 272 273 274 274 273 271 270 270
293 294 292 291 285 286 283 291 285 286 282 281 282 278 277 276 276 278 271 272 272 275 275 274 275 276 274 275 275 275 275 274 273 273 273 273 273 274 274 274 274 272 271 272 272 271 271 271 271 272 272 272 271 270
290 285 283 283 284 280 286 282 285 283 282 279 277 275 275 277 279 274 269 270 273 274 274 275 275 272 272 272 272 273 273 274 273 273 273 272 271 271 272 272 272 272 272 272 272 271 270 270 270 270 270 269 269 268
280 276 281 278 282 281 279 278 279 279 275 277 275 274 275 279 273 271 269 271 272 273 273 273 273 272 270 270 270 271 273 273 272 271 273 272 271 270 270 270 271 272 273 271 269 269 269 269 268 267 266 266 267 266
273 275 275 276 277 277 276 274 275 275 276 274 274 276 278 275 270 268 269 271 270 272 272 272 270 269 268 269 268 268 270 272 270 268 269 271 273 272 270 268 266 267 271 271 270 268 267 267 267 267 266 264 262 265
273 274 276 279 278 279 276 277 277 274 272 271 273 273 274 269 266 268 271 273 271 272 273 273 272 270 269 268 268 269 269 270 269 268 269 269 268 269 269 267 265 267 269 269 269 268 267 266 266 266 266 265 264 264
276 275 270 273 273 275 271 272 270 269 270 272 273 268 267 267 267 271 271 273 273 272 272 271 272 272 271 271 271 271 269 269 269 270 270 269 269 268 267 267 267 267 266 267 267 267 266 266 266 265 264 264 263 264
275 276 272 266 270 270 269 269 269 269 271 272 271 267 266 270 272 272 273 273 274 273 271 270 270 271 270 270 271 271 272 272 270 267 267 265 265 265 268 267 267 268 268 266 266 266 264 264 263 264 264 264 265 265
274 278 271 269 267 266 268 271 270 272 272 271 270 269 268 269 271 275 274 274 272 271 272 272 273 272 270 268 266 266 267 268 268 269 267 265 264 266 267 266 266 266 267 267 266 264 263 265 265 264 263 264 263 262
279 276 272 271 268 270 270 272 273 273 273 272 272 269 267 268 270 271 272 272 272 272 271 270 270 271 270 269 269 267 264 265 265 266 267 267 267 266 265 265 265 266 266 265 265 264 263 264 264 263 263 261 261 260
277 273 271 268 268 271 273 274 273 272 272 271 269 270 270 270 267 269 271 272 272 270 269 270 268 266 267 267 266 266 265 266 265 266 266 266 266 266 265 265 265 265 264 264 264 263 262 262 262 262 262 261 260 259
275 275 274 272 270 271 272 273 271 270 272 270 270 270 269 270 266 268 271 271 272 271 270 269 268 267 266 267 266 266 266 264 263 264 263 262 260 261 263 265 265 264 263 263 263 263 262 261 261 260 260 259 259 259

GFSWCAN_sfc_thetae_078.txt.gz
Theta_e
300 300 300 300 300 300 301 301 301 302 302 302 302 302 302 303 304 301 299 303 296 291 292 294 296 292 291 291 285 289 288 289 286 281 282 280 278 285 287 289 288 286 285 285 285 283 282 300 300 293 296 299 302 303
300 300 299 299 300 300 301 301 301 302 302 302 302 302 302 302 303 303 295 303 302 294 293 298 298 300 298 297 292 291 289 290 290 285 283 283 280 281 285 281 292 285 292 288 289 288 299 300 301 303 302 302 303 304
299 299 299 300 300 301 301 301 301 302 302 302 302 302 302 303 303 302 297 299 299 294 294 294 294 299 302 301 300 291 291 295 293 294 289 287 283 287 280 284 288 294 297 292 292 296 298 299 300 303 303 303 305 305
299 299 300 300 301 301 301 301 301 301 302 302 302 302 302 302 303 302 296 299 298 291 286 290 301 297 303 303 302 300 297 299 300 294 290 286 282 291 285 289 289 291 295 293 291 295 296 298 299 301 303 305 307 307
300 300 300 301 301 301 301 301 301 301 301 302 302 302 302 303 303 301 298 300 299 294 287 287 297 301 301 303 302 300 299 297 294 291 288 286 289 290 290 289 288 294 292 288 287 296 295 297 299 303 303 304 305 305
300 300 301 301 301 301 300 300 301 301 301 301 302 302 302 302 302 297 291 298 301 302 293 285 294 297 300 301 300 297 297 298 297 291 288 292 296 291 284 286 292 295 296 297 296 299 299 301 302 303 302 302 302 302
300 301 301 301 300 301 300 300 300 301 301 301 302 302 302 302 298 293 290 294 301 301 292 286 287 294 300 299 298 296 296 296 296 293 289 290 291 291 285 284 293 296 296 298 299 301 298 300 299 300 300 299 298 296
300 300 300 301 300 300 300 300 300 301 300 301 302 302 301 301 300 295 299 301 301 298 294 285 285 290 295 290 290 294 291 291 291 290 289 288 290 289 285 291 294 297 298 297 301 301 301 299 299 298 297 295 289 287
300 300 300 300 300 301 300 300 301 301 301 301 301 301 299 296 293 296 302 303 303 296 285 279 280 283 292 289 289 289 290 286 288 281 286 288 286 283 290 293 294 296 296 297 299 299 298 297 296 296 293 289 286 283
298 298 299 300 300 301 301 301 301 301 301 301 298 292 285 292 302 300 295 290 292 290 288 279 283 284 288 285 284 285 283 280 283 286 290 282 282 294 294 293 293 292 292 298 294 293 294 292 289 287 286 285 283 282
298 298 298 299 300 300 300 300 301 301 301 294 290 285 296 301 296 291 285 284 286 283 285 284 284 283 288 283 282 283 285 286 280 282 283 283 283 290 291 291 291 291 289 290 293 293 292 289 285 283 281 281 280 280
299 299 299 299 300 300 300 300 301 297 293 293 293 296 295 291 286 282 279 282 282 281 283 282 286 286 285 287 280 282 285 285 278 286 282 281 283 287 286 285 287 287 287 286 287 286 285 285 283 281 280 279 279 278
298 299 299 299 299 300 300 300 300 300 299 297 291 286 286 283 276 273 273 279 280 282 286 285 284 284 286 288 283 283 283 281 288 283 282 280 283 284 285 284 283 284 284 283 282 282 282 281 281 280 278 278 278 277
298 298 298 298 299 299 299 299 300 299 294 287 281 274 274 274 277 277 280 283 283 284 283 282 284 285 285 283 283 282 285 286 282 279 276 279 280 281 282 283 282 281 281 281 280 280 279 278 278 278 278 278 277 276
298 298 298 298 299 299 299 299 298 293 287 280 280 273 276 278 278 279 280 281 281 283 284 282 286 286 284 283 284 284 282 276 275 273 278 280 281 281 281 281 280 279 279 278 278 278 277 277 277 277 278 278 277 276
299 297 295 298 298 299 298 297 293 292 285 280 277 274 276 276 275 276 276 277 281 281 284 285 285 284 282 280 278 275 276 271 273 277 279 280 279 279 278 278 278 278 278 278 278 277 277 276 276 276 276 276 275 275
297 290 297 298 298 298 296 291 286 282 280 278 273 276 273 275 274 275 276 277 281 281 283 283 277 276 281 276 274 276 273 276 278 279 280 280 278 278 278 278 278 278 277 277 277 277 277 278 277 276 274 275 275 275
291 292 297 298 297 294 289 286 281 279 274 275 273 274 273 271 273 274 275 277 278 281 280 277 278 272 268 270 270 275 276 277 278 279 279 279 279 279 279 278 278 278 277 277 277 277 277 276 275 274 275 275 274 273
293 294 297 298 294 288 282 282 281 274 274 275 274 274 274 272 274 275 275 277 279 279 278 274 268 268 268 272 272 275 276 276 275 276 276 277 277 277 277 277 276 276 276 276 276 275 275 277 276 275 274 274 271 271
297 295 296 296 295 285 282 280 283 277 274 275 275 272 271 270 271 270 273 274 275 273 269 267 267 269 270 271 273 277 278 278 276 274 273 275 276 276 275 275 275 275 274 274 274 274 273 272 272 273 273 271 269 268
292 292 295 294 290 289 285 283 279 279 280 277 278 277 273 273 271 270 270 273 269 268 267 269 270 271 273 274 276 276 276 276 275 274 273 271 273 274 273 273 274 273 272 271 270 270 270 269 270 270 269 268 268 267
289 294 289 290 285 286 285 286 282 284 280 279 278 277 272 269 266 268 272 268 267 268 270 270 271 271 271 271 272 273 274 274 274 273 273 273 271 270 270 271 270 269 269 270 270 269 268 269 269 268 267 266 266 265
290 287 283 283 279 280 279 286 281 282 278 278 278 275 273 271 272 274 267 270 270 272 272 271 271 272 271 272 272 272 273 272 270 270 270 270 271 271 270 270 270 269 268 269 270 269 268 268 268 266 265 265 263 261
285 277 274 273 278 273 276 275 280 278 276 275 273 271 273 271 274 268 265 268 269 271 271 271 271 270 270 269 268 270 271 271 270 270 271 270 268 269 270 269 270 269 269 269 267 266 265 264 265 264 263 261 260 258
270 269 270 266 271 272 268 266 268 269 265 268 267 268 273 273 266 265 264 266 268 267 268 268 268 268 267 267 268 268 270 270 268 268 269 269 268 268 267 267 268 269 269 266 264 263 262 261 261 260 260 259 259 255
266 269 268 268 268 267 269 265 266 264 265 266 266 271 266 261 258 261 265 266 267 268 267 267 266 266 265 266 266 266 267 270 268 266 266 269 269 267 266 265 264 265 267 265 264 262 261 259 259 259 256 256 255 254
263 261 269 274 273 272 264 264 267 261 259 260 263 259 258 255 257 264 268 269 268 269 270 270 269 267 266 266 267 267 267 267 266 265 266 266 266 266 265 263 262 263 265 263 261 261 260 258 255 254 251 247 248 250
266 267 260 261 262 266 257 258 258 258 259 266 263 255 254 255 259 265 266 269 269 270 270 270 270 269 268 268 268 267 267 267 266 266 266 266 265 264 262 261 262 264 260 259 258 256 256 256 254 250 249 250 249 246
264 265 264 257 258 260 263 257 258 263 265 264 256 256 259 266 264 264 268 269 269 269 267 266 267 267 266 265 264 264 264 265 264 259 259 258 257 259 258 260 260 258 255 256 261 256 256 254 253 252 250 252 251 251
262 264 259 254 256 258 260 261 260 258 264 262 266 266 264 264 267 271 270 269 266 265 266 266 266 263 261 260 259 261 262 261 261 260 257 256 257 257 255 254 255 254 252 251 251 253 259 254 255 250 249 248 247 246
267 262 259 258 258 260 262 256 261 262 258 257 254 255 257 260 264 266 266 266 266 266 266 264 263 263 262 259 257 257 258 259 258 260 260 257 253 251 251 251 251 249 249 249 248 248 248 249 250 250 248 247 246 246
259 255 257 256 259 260 264 263 260 257 255 254 255 253 257 257 256 261 264 264 266 265 263 262 261 260 259 258 258 258 258 255 256 254 254 253 251 250 250 251 248 248 249 249 247 248 248 247 246 246 246 246 245 245
259 257 254 256 258 258 259 262 258 260 259 257 257 257 255 257 255 259 263 265 262 263 262 258 259 257 255 254 254 251 251 250 251 258 254 254 252 254 250 248 247 247 250 248 249 248 249 249 246 246 245 245 245 244

GFSWCAN_sfc_thetae_081.txt.gz
Theta_e
300 300 300 300 300 300 300 300 301 301 301 302 301 302 302 302 303 301 297 301 296 290 292 293 294 291 291 290 285 289 287 286 285 280 281 280 276 282 282 286 285 284 283 283 285 283 280 297 299 292 295 299 299 301
300 300 300 300 300 300 300 300 300 300 301 301 302 302 302 302 303 303 296 301 301 293 293 298 297 298 297 296 292 292 288 288 288 283 282 282 278 278 283 279 290 285 288 286 289 287 296 298 299 303 303 300 302 302
300 300 299 299 299 300 300 300 300 301 301 301 302 302 302 303 303 302 297 299 299 292 292 293 292 297 301 300 300 291 290 294 293 292 286 285 281 284 277 282 286 290 295 290 290 294 296 299 301 301 304 302 303 305
299 299 299 300 300 300 301 301 301 301 301 301 302 302 302 302 303 302 296 299 297 292 286 290 298 296 301 301 300 300 298 299 297 296 290 284 282 289 282 286 286 290 294 292 291 294 296 297 298 300 301 304 304 306
299 300 300 300 300 301 301 301 301 301 301 302 302 302 302 303 303 301 299 299 298 293 286 287 294 298 300 301 299 300 299 296 293 289 286 286 288 288 287 288 285 292 291 289 288 296 294 295 298 300 300 302 304 304
300 301 301 301 301 301 301 301 301 301 301 301 302 302 302 302 302 298 291 298 300 299 292 285 293 294 298 299 297 298 298 297 294 291 286 292 296 290 279 283 290 293 294 294 292 296 296 298 300 301 300 300 300 300
300 301 301 301 300 300 300 300 300 301 301 301 301 302 302 302 300 292 288 294 300 300 291 285 284 293 297 296 296 296 297 296 294 291 288 289 292 292 282 281 291 294 295 295 297 295 296 299 298 299 298 294 293 294
300 301 300 300 300 300 300 300 301 301 301 301 302 302 302 302 300 295 296 301 300 296 292 284 286 288 295 291 290 295 292 292 293 291 289 287 291 288 282 288 291 295 297 297 296 296 297 298 297 295 293 291 286 284
300 300 300 300 300 300 299 300 301 301 301 302 302 301 298 296 293 296 301 301 301 294 286 281 283 282 293 290 292 291 292 285 290 284 286 288 284 283 287 290 293 294 294 293 293 295 296 295 293 291 289 287 283 281
299 300 300 300 300 300 300 300 300 300 300 300 297 291 285 294 301 300 294 290 291 292 289 283 285 285 290 287 285 286 285 284 283 286 288 280 282 289 292 294 293 291 290 290 291 291 291 290 288 286 284 283 281 280
300 300 300 300 300 300 300 300 300 300 299 294 288 287 296 300 294 291 284 284 286 283 285 282 285 284 287 283 285 284 284 283 280 281 282 281 282 287 290 290 290 289 289 288 289 290 289 287 282 281 280 280 280 279
300 300 300 300 300 300 300 300 300 296 292 293 293 297 296 289 286 283 282 283 280 280 282 282 280 282 286 287 284 284 284 284 280 283 280 280 283 285 285 284 285 286 287 286 285 284 283 282 281 280 279 278 277 277
299 299 299 299 299 299 300 300 300 299 299 296 292 286 286 281 275 274 275 280 280 284 285 284 282 285 286 286 284 284 282 281 285 283 282 279 282 283 284 283 282 283 283 282 281 281 281 280 280 279 277 277 277 277
298 298 299 299 299 299 299 298 299 297 293 285 280 272 271 268 274 276 278 281 281 284 282 284 284 284 284 282 283 281 282 285 281 279 274 278 280 281 282 282 281 280 280 279 279 279 279 278 277 277 277 277 276 275
298 298 298 298 299 298 298 297 296 289 284 278 278 272 274 277 277 278 279 280 280 283 284 285 285 286 283 281 283 282 280 273 274 271 273 279 280 280 279 279 278 278 278 277 277 277 277 277 276 276 277 277 276 274
298 296 294 298 298 297 297 293 290 289 283 278 275 273 275 274 273 274 275 276 280 280 284 286 284 283 279 277 276 273 272 269 273 276 278 279 278 278 277 278 277 278 277 277 276 276 276 275 274 274 275 275 274 274
296 291 296 298 298 295 295 287 283 280 278 276 272 274 273 273 271 273 274 275 279 280 280 282 276 274 280 274 273 275 270 274 277 277 278 278 277 276 277 277 277 277 276 276 276 276 276 276 276 274 273 273 273 273
290 292 297 298 296 291 287 283 280 277 274 275 272 273 272 272 271 272 273 276 277 280 279 274 277 271 269 269 269 273 275 275 277 277 277 277 277 277 278 277 277 277 277 276 276 276 276 275 273 272 273 273 272 272
292 293 297 297 292 285 281 281 280 273 273 274 274 274 273 270 273 273 274 276 278 278 276 273 268 266 267 270 271 274 275 275 274 274 275 276 276 276 276 276 276 275 275 275 276 275 275 275 274 273 273 272 270 270
295 295 296 295 292 283 280 279 281 276 271 273 274 271 271 269 271 270 272 273 274 272 268 266 266 268 268 270 272 272 276 276 275 272 271 273 274 274 274 274 274 274 273 274 273 273 272 272 272 272 271 270 268 267
291 291 294 292 287 288 284 279 277 277 277 274 275 275 271 272 270 269 269 273 268 267 266 268 268 270 272 273 275 275 274 275 273 273 271 270 272 272 272 273 273 272 271 270 269 269 269 269 269 269 267 266 266 266
288 293 287 288 283 285 283 284 281 282 278 276 276 276 269 265 264 268 271 267 266 267 269 269 269 270 270 270 271 273 273 273 273 272 272 272 270 269 269 270 270 269 269 269 269 268 268 268 268 267 266 265 265 264
288 286 282 282 278 278 278 285 279 281 276 274 275 272 269 268 270 273 265 268 268 271 271 271 270 271 270 271 271 271 272 271 270 270 270 270 270 270 269 269 270 268 268 268 269 268 267 267 266 265 264 263 261 260
283 274 272 272 275 270 275 274 278 276 274 274 273 271 270 271 272 268 264 266 268 270 269 269 270 269 269 269 267 268 270 270 269 269 270 269 268 268 269 268 268 268 268 268 267 266 265 264 264 263 261 259 258 257
270 268 269 266 270 269 266 265 267 269 264 267 266 268 269 271 265 263 262 265 267 266 266 268 267 267 266 266 267 267 269 269 268 267 269 269 268 268 267 267 267 268 268 265 263 262 261 262 261 260 260 258 258 255
263 264 264 263 265 265 266 260 261 261 262 262 263 267 262 260 257 258 264 263 263 265 263 264 265 265 264 266 265 265 266 269 268 265 265 268 268 267 266 265 264 264 266 265 263 262 261 261 260 259 257 257 256 253
261 259 268 271 270 269 261 261 264 259 257 257 258 257 255 253 253 261 265 265 266 266 268 268 267 266 265 265 266 266 266 266 266 265 266 266 265 266 265 264 263 263 265 264 263 261 259 258 256 256 253 249 249 251
264 265 258 258 260 264 254 255 255 255 257 265 259 253 251 252 257 263 264 266 266 268 268 268 268 267 267 267 267 266 265 266 266 265 265 264 264 263 263 262 263 263 258 257 257 258 256 255 252 249 250 249 247 244
260 261 261 254 256 259 261 254 256 261 264 262 253 253 259 264 263 263 266 268 268 268 266 265 264 265 264 264 264 263 263 263 261 259 258 256 257 259 259 259 258 256 256 258 261 256 255 252 251 251 249 248 246 244
260 262 257 253 256 258 258 258 258 256 262 261 265 265 263 262 266 268 267 266 264 262 262 263 261 260 258 259 258 260 260 258 259 259 257 255 257 257 254 253 253 250 249 252 250 253 259 252 252 248 248 247 245 245
264 259 257 257 258 260 258 253 258 259 256 255 252 254 257 260 263 264 264 263 265 264 263 260 260 258 258 256 255 255 256 258 257 258 258 257 254 252 250 249 247 246 247 247 247 246 246 246 245 246 247 246 245 244
255 252 256 255 258 260 260 258 252 253 250 253 254 250 254 254 253 257 263 261 262 260 260 259 259 258 255 255 255 255 257 254 253 253 252 250 248 247 249 248 245 246 248 247 245 245 245 246 246 246 246 246 244 244
254 253 252 254 256 256 258 260 258 257 257 255 257 255 255 255 253 257 261 263 261 260 259 258 256 255 254 253 251 248 248 247 249 256 253 253 251 251 247 245 245 246 249 246 246 246 246 246 245 244 243 243 243 243

GFSWCAN_sfc_thetae_084.txt.gz
Theta_e
299 299 300 300 300 300 301 301 300 301 301 301 301 301 301 302 302 300 297 300 294 288 291 293 293 289 290 290 284 289 288 287 286 282 281 281 278 281 281 283 283 282 282 282 285 282 280 296 295 291 295 298 299 300
299 300 300 300 300 300 300 300 300 300 301 301 301 302 302 302 302 302 294 300 300 292 292 296 297 297 296 295 291 292 289 288 287 284 281 281 277 277 281 277 286 281 286 283 286 286 295 296 296 298 301 301 300 301
299 299 300 300 299 300 300 300 300 300 300 300 301 301 302 302 302 301 297 299 296 291 290 291 292 296 299 299 300 289 289 294 292 291 289 285 279 282 277 279 283 286 292 287 288 291 293 295 297 299 300 302 305 303
299 300 299 299 299 299 299 300 300 300 300 300 301 301 301 302 302 302 296 299 296 290 285 289 297 295 299 299 299 298 296 298 295 295 290 288 281 287 281 284 283 287 289 288 288 293 296 297 298 299 298 300 303 304
299 299 299 300 300 300 300 300 300 301 301 301 301 301 302 302 302 301 299 299 299 293 286 288 293 296 298 298 297 297 297 296 294 291 288 287 289 289 285 285 283 289 287 286 285 293 292 293 296 298 298 298 300 302
299 300 300 301 301 301 301 301 301 301 301 301 302 302 302 302 302 298 291 297 299 299 290 284 292 292 295 296 296 295 296 296 294 291 290 290 292 289 284 280 288 291 292 293 292 295 294 296 297 298 297 293 295 295
300 300 301 301 300 300 300 300 300 301 301 301 302 302 302 302 300 291 289 294 300 299 290 285 286 291 294 295 294 294 296 295 295 292 290 288 288 291 285 283 289 292 293 293 295 295 293 294 296 294 293 293 292 289
300 300 300 300 300 300 300 300 300 301 301 301 301 302 302 302 300 294 298 300 299 294 292 283 285 288 293 290 289 292 292 293 293 291 291 285 287 287 284 286 291 293 294 294 295 296 295 296 295 291 291 288 285 283
300 300 300 299 300 300 300 300 301 301 301 301 301 302 300 294 288 295 301 300 300 293 285 282 283 282 293 290 292 290 293 285 291 287 288 287 283 283 287 288 289 291 293 293 292 293 294 294 290 289 287 285 282 280
300 300 299 299 299 299 299 300 301 301 301 301 297 288 284 293 301 300 295 291 290 291 288 281 286 285 290 287 286 287 287 285 283 286 287 282 281 288 289 290 290 291 290 289 288 290 289 289 286 283 282 281 280 279
300 300 300 299 300 300 300 299 299 300 299 293 289 287 296 300 294 290 283 284 285 282 285 285 286 285 288 285 285 285 284 283 278 280 282 281 281 285 288 288 288 289 289 287 287 287 289 288 282 280 280 280 280 279
300 300 299 299 300 300 300 299 299 295 293 295 294 296 294 290 286 283 282 283 283 280 284 281 284 283 286 289 286 285 281 282 277 282 282 279 282 283 284 283 284 285 286 285 284 281 282 282 281 280 278 277 277 276
299 299 299 298 298 299 300 300 300 300 299 294 288 283 283 279 278 277 273 279 280 283 284 284 282 285 285 286 284 284 282 280 285 282 279 279 280 282 282 283 282 283 282 282 281 281 280 279 279 278 276 277 276 275
298 298 298 298 298 298 297 299 299 296 291 284 278 270 272 267 273 274 275 279 281 283 281 283 283 282 283 281 283 279 279 284 281 278 273 276 279 280 280 280 280 279 279 279 278 278 278 277 277 277 277 276 275 274
298 298 298 298 297 297 296 296 293 287 282 276 276 269 271 276 276 277 278 280 280 282 284 284 285 284 282 282 282 282 280 274 272 269 273 276 278 278 278 278 278 277 277 277 277 276 276 276 275 274 275 275 274 273
298 296 295 297 296 296 294 291 288 287 281 276 273 271 272 273 271 273 273 275 278 278 283 286 284 281 278 277 275 272 270 267 271 275 277 277 276 277 277 277 277 276 276 276 275 275 275 274 273 273 274 273 273 272
296 290 296 298 296 293 292 286 283 280 277 275 271 273 272 271 270 271 273 274 278 279 278 280 275 273 278 273 271 273 266 272 275 275 277 277 276 276 277 276 276 276 275 275 275 275 274 274 274 272 270 271 271 271
289 291 296 297 294 290 286 283 279 277 272 273 271 271 271 271 270 271 273 275 277 278 277 273 276 270 268 268 268 272 274 274 275 274 275 276 276 277 277 276 276 276 275 275 275 274 274 273 272 271 271 271 270 270
291 293 296 295 290 285 281 280 280 271 271 273 273 273 272 272 273 273 273 275 276 277 275 272 267 265 266 270 270 272 274 274 273 273 273 274 275 275 274 275 275 274 275 274 273 273 273 273 272 272 271 270 268 268
295 295 295 295 291 281 279 278 281 275 271 272 273 271 270 270 272 272 272 273 273 271 268 266 265 267 268 270 272 272 276 276 274 271 270 272 273 273 273 273 273 273 273 273 272 272 271 270 270 270 270 269 267 266
290 290 293 290 285 284 282 278 276 275 275 273 274 274 269 271 269 269 269 272 268 267 265 267 268 270 271 272 273 274 273 274 272 273 271 269 271 272 272 272 272 271 270 270 269 268 268 267 268 268 267 266 266 265
285 291 284 285 282 283 282 282 280 280 276 275 275 274 267 262 263 266 271 267 266 267 269 268 268 269 269 269 270 271 272 272 272 271 271 271 269 269 269 270 270 268 268 268 268 267 267 267 267 266 265 264 265 264
286 285 280 280 276 275 276 281 274 278 272 272 274 269 266 266 267 272 263 267 267 269 269 270 270 270 269 269 270 270 271 270 269 269 269 269 269 269 269 269 270 268 267 267 268 267 265 265 264 264 263 263 262 261
282 273 270 271 273 267 275 273 278 275 273 272 272 268 269 268 271 266 263 265 267 269 268 268 269 268 268 268 267 267 269 270 268 268 269 268 267 267 268 268 268 268 268 268 267 265 265 263 263 262 260 259 259 258
269 265 267 264 268 266 263 262 264 268 266 268 267 265 264 269 262 261 261 264 265 264 265 267 267 266 265 265 266 267 269 269 267 266 268 269 268 267 267 267 266 267 268 265 264 263 262 262 261 260 260 259 258 256
261 262 263 262 263 262 263 257 258 259 259 260 261 263 261 259 257 258 263 264 263 265 263 264 264 264 264 265 264 264 265 268 268 265 265 267 268 267 266 265 264 264 266 265 264 262 261 261 260 259 257 256 255 253
259 257 266 269 268 266 258 259 262 258 255 254 255 253 253 250 252 261 266 266 265 266 267 267 267 266 265 265 265 266 266 266 265 264 265 265 265 265 265 264 263 263 266 265 263 263 261 259 257 256 253 251 250 251
262 263 257 256 258 261 252 254 254 254 256 264 258 251 250 250 256 262 265 267 266 268 267 267 266 266 265 266 266 265 264 265 265 265 265 264 263 262 262 261 262 263 260 259 259 258 258 256 255 253 251 250 247 242
258 259 260 254 256 258 259 254 256 261 263 258 251 253 258 263 261 264 266 267 267 266 264 263 263 263 264 263 262 261 260 259 260 259 258 257 257 259 259 258 257 256 257 260 262 258 257 254 253 252 248 247 244 240
258 260 256 252 255 256 255 257 256 255 261 261 264 264 262 261 264 266 265 265 261 258 257 256 256 256 254 255 256 258 259 257 256 256 255 254 255 256 253 253 254 251 253 256 256 257 258 251 252 247 246 245 244 244
261 258 256 257 257 256 255 251 251 255 254 255 252 253 256 257 260 263 263 261 261 258 256 255 257 255 254 253 252 252 254 256 255 257 258 256 254 251 250 250 248 248 248 250 248 246 245 245 244 245 246 246 244 243
253 250 255 256 257 258 257 252 250 251 248 252 251 248 252 252 252 257 261 259 259 259 258 255 254 254 251 251 250 250 253 250 249 249 250 249 248 248 248 247 244 245 247 246 245 244 245 245 244 245 245 245 243 243
251 250 251 253 254 254 256 258 257 255 253 252 253 251 250 251 252 256 259 260 258 258 256 254 252 251 251 250 249 247 247 246 249 255 253 252 250 249 245 243 244 245 248 245 244 244 245 246 244 244 243 242 242 241

GFSWCAN_sfc_thetae_087.txt.gz
Theta_e
297 298 298 299 299 299 300 300 300 300 301 300 300 300 300 302 301 300 296 299 292 286 288 292 292 289 290 289 285 289 288 288 286 282 282 282 281 284 283 285 285 284 282 282 282 279 279 297 297 291 295 298 298 300
298 298 298 299 299 300 300 300 301 301 300 300 300 300 300 300 301 301 294 299 299 290 290 295 296 297 296 295 291 291 289 288 289 286 285 286 282 283 284 280 287 283 288 287 288 288 296 298 298 301 301 299 299 299
298 298 298 299 299 300 300 300 300 300 300 300 301 301 301 301 300 300 296 298 295 290 289 291 290 297 299 299 300 289 292 294 292 294 289 286 282 285 282 283 286 288 292 289 289 292 294 297 299 299 301 300 301 302
298 298 299 299 299 299 299 299 300 300 300 300 301 301 301 301 301 300 295 298 295 290 284 288 297 295 300 299 299 298 296 298 297 294 289 288 285 289 285 287 286 289 291 289 289 293 295 296 299 299 298 300 301 303
298 298 298 298 299 299 299 299 299 299 300 300 301 301 301 301 301 300 298 299 298 292 285 287 294 295 298 298 297 298 296 295 293 291 288 287 290 290 291 289 287 291 290 288 287 294 293 294 298 299 298 299 298 302
300 300 300 299 300 300 300 301 300 300 300 300 301 301 301 301 301 297 290 296 300 298 290 284 294 293 295 297 295 295 296 295 294 291 289 291 295 291 286 284 290 294 295 295 293 297 298 298 298 300 300 296 295 295
300 300 301 301 301 301 301 301 301 300 300 301 301 301 301 301 298 291 289 295 299 297 287 284 286 293 295 294 294 294 296 295 293 290 289 290 292 293 287 284 291 294 295 295 296 296 295 296 295 299 297 291 290 289
300 300 299 300 299 300 300 300 301 301 301 301 301 301 301 301 300 293 298 300 299 293 291 284 284 289 294 289 288 295 291 293 292 291 291 289 290 290 285 290 292 294 295 295 295 297 298 298 297 295 292 290 287 284
299 299 299 299 299 300 300 300 301 301 301 301 301 302 299 293 287 294 300 300 300 293 285 285 281 282 293 290 292 291 293 285 291 287 288 289 287 283 289 291 291 291 292 293 294 294 295 294 296 292 289 287 285 283
299 299 299 299 299 299 300 300 300 301 301 301 297 288 284 290 301 300 295 290 290 292 289 284 288 285 290 288 287 286 288 285 283 286 290 286 286 289 289 289 289 289 289 290 290 292 293 293 290 286 285 284 283 281
299 299 298 299 299 299 299 300 301 301 299 292 286 287 296 300 294 289 283 284 285 282 285 285 287 285 290 286 285 287 285 285 281 283 285 283 282 286 287 287 287 288 289 289 287 287 287 288 288 283 281 281 281 281
299 298 298 299 299 300 300 299 299 296 295 295 295 296 294 289 285 283 281 283 282 281 285 284 286 288 287 291 287 285 284 284 278 285 283 279 281 283 283 284 284 285 285 286 285 283 283 283 284 282 280 279 278 277
298 298 298 298 297 299 300 299 299 299 297 293 287 283 283 279 277 275 275 280 281 284 285 285 284 286 287 289 286 285 281 280 286 282 281 278 280 281 281 282 283 283 283 282 281 281 281 280 280 279 277 277 277 275
298 298 297 297 297 297 300 296 295 293 289 282 279 271 272 267 272 273 276 279 281 283 284 285 284 284 285 283 284 281 283 284 280 279 275 276 278 279 280 280 279 278 279 279 278 279 278 277 276 277 276 276 274 272
298 298 297 296 297 296 295 294 292 286 281 276 276 268 270 275 274 275 277 279 279 281 285 285 285 286 283 282 282 283 280 275 274 271 275 277 278 278 277 278 277 277 277 276 276 276 275 275 274 274 274 274 273 272
298 296 295 296 295 295 292 290 288 285 280 275 272 270 271 272 270 272 272 274 278 278 282 286 284 278 277 278 276 272 273 269 272 275 276 277 276 276 276 276 276 276 276 275 275 275 274 273 272 272 272 272 271 270
295 290 296 297 293 292 291 285 283 279 277 273 269 272 270 270 269 270 272 273 277 279 278 279 273 273 278 274 270 273 269 271 274 275 276 276 276 276 277 276 276 276 275 274 274 273 273 273 272 271 269 270 270 270
289 291 296 296 293 289 285 283 280 277 271 273 269 271 272 272 270 271 273 275 276 278 276 273 275 270 267 268 267 272 274 274 274 274 274 275 275 276 277 276 276 275 275 274 274 273 273 272 270 270 270 270 269 269
291 293 295 294 290 285 281 279 279 271 271 273 273 273 272 272 273 273 273 275 276 276 274 271 267 265 265 269 269 271 273 274 272 272 273 274 275 274 274 274 274 274 273 273 273 272 272 272 271 271 270 269 267 267
294 294 294 293 289 281 278 277 281 274 271 272 273 271 271 271 272 272 272 273 273 271 267 265 265 267 267 270 271 272 275 276 274 271 271 272 273 273 273 273 273 273 272 272 272 271 270 269 270 270 269 268 267 266
289 289 291 288 284 283 281 278 276 275 274 273 274 273 270 271 269 269 269 272 268 267 265 267 267 270 271 271 272 273 273 274 273 273 271 270 272 272 272 272 272 271 270 270 269 268 268 267 268 268 267 266 266 266
285 290 282 284 282 283 282 281 278 278 276 275 274 273 267 265 266 267 270 267 265 266 268 268 268 269 269 268 270 271 272 272 272 271 271 271 270 270 270 270 270 268 268 268 268 267 267 267 267 267 266 265 265 265
285 284 279 279 274 274 275 281 273 277 269 273 273 269 267 266 269 271 264 266 266 269 269 269 270 270 269 269 270 270 270 270 269 269 269 269 269 270 269 270 270 268 267 267 268 266 265 266 265 265 265 264 263 262
281 272 269 269 272 267 271 269 276 273 271 272 270 267 268 268 270 266 262 264 266 268 267 267 269 268 268 268 267 267 269 270 269 269 269 268 267 267 268 268 268 268 268 268 267 265 265 264 264 264 263 262 262 261
268 264 265 262 266 264 260 261 264 268 265 266 264 262 263 268 262 261 261 264 265 265 265 267 267 266 265 265 266 266 268 269 267 266 268 270 268 268 267 267 267 268 268 266 264 264 263 263 263 263 262 262 261 259
259 260 261 260 260 261 262 257 257 257 258 258 260 261 262 260 258 259 262 264 264 265 264 265 265 265 264 265 264 264 265 268 268 265 265 266 268 268 267 266 265 265 267 267 265 264 263 263 262 261 260 260 258 258
257 255 264 267 266 264 258 259 261 258 255 254 256 254 255 252 253 262 266 266 265 266 267 267 267 266 265 265 265 266 266 266 265 264 265 265 265 265 266 265 264 264 267 266 266 265 263 262 261 261 259 259 259 260
261 262 256 256 258 260 252 254 254 255 257 263 258 252 250 252 258 263 265 267 267 267 267 267 266 266 265 265 265 265 265 266 266 266 266 264 263 263 263 263 263 264 263 263 264 263 263 262 260 259 259 259 257 254
257 259 260 253 255 257 258 254 257 261 262 258 253 255 258 263 263 265 266 268 268 267 265 264 264 265 264 263 262 261 261 262 263 261 260 260 261 261 261 261 261 262 263 263 264 261 260 260 259 259 258 258 255 252
257 260 256 252 254 255 256 257 258 257 261 262 264 264 263 262 264 266 266 266 265 262 261 260 260 261 260 260 259 260 259 258 259 261 260 259 260 259 258 259 259 259 261 261 260 260 260 257 257 255 256 255 256 256
260 258 256 256 257 259 257 252 252 254 255 256 254 255 257 259 262 263 263 262 262 260 262 260 260 257 259 259 259 259 259 258 257 258 259 258 258 258 257 255 255 256 258 258 257 257 256 256 256 256 257 256 253 254
253 250 255 255 257 258 257 252 251 252 251 256 254 251 253 255 254 259 261 260 261 260 258 258 260 259 255 255 255 255 254 255 255 254 256 256 255 253 254 254 253 255 256 255 255 255 255 256 255 255 256 254 253 253
251 250 251 254 254 254 256 256 255 254 253 252 252 250 250 253 253 258 261 260 260 259 259 258 256 255 254 254 254 253 251 252 253 257 253 252 251 253 253 253 253 254 255 255 254 254 254 254 254 253 253 253 252 251

GFSWCAN_sfc_thetae_090.txt.gz
Theta_e
296 297 297 297 297 298 299 299 299 300 301 301 301 301 301 301 301 299 295 299 295 288 290 292 292 290 290 291 287 290 289 290 288 284 284 285 284 286 284 287 287 285 283 283 284 281 279 296 297 291 297 301 301 302
297 297 297 298 298 298 299 299 300 301 301 301 301 301 301 301 301 301 293 298 297 291 291 296 295 298 297 296 293 293 290 290 290 287 289 289 286 288 286 282 291 285 290 289 289 289 296 299 297 300 302 301 301 301
297 297 298 298 298 298 299 299 300 300 300 301 301 300 300 300 301 300 296 297 295 289 289 290 290 297 299 300 302 290 292 295 293 296 293 291 286 290 285 286 288 292 294 291 291 294 295 297 300 302 303 302 301 303
297 298 298 298 298 299 299 299 300 300 300 301 301 300 300 300 300 301 295 298 294 291 285 289 298 296 301 300 299 299 296 298 297 295 289 289 287 293 289 290 290 293 294 291 291 294 296 297 299 300 301 301 302 303
298 298 298 298 298 298 299 299 299 300 300 300 301 301 300 301 300 299 298 299 299 292 287 289 295 298 299 300 298 298 296 294 293 289 288 288 293 292 293 293 290 295 292 290 290 296 296 297 300 302 300 301 301 299
299 299 300 300 300 300 299 299 299 299 300 300 301 301 301 300 300 296 288 296 300 299 290 286 294 294 298 298 297 297 296 294 293 290 289 293 297 294 288 288 294 297 298 299 296 299 300 301 302 302 301 300 296 297
300 300 300 301 301 301 300 300 300 300 300 300 300 301 301 300 298 291 290 296 300 298 290 286 288 294 297 296 295 295 297 294 293 290 289 291 293 295 289 286 293 296 298 299 300 299 297 299 298 301 300 296 294 293
299 300 300 300 300 300 300 300 301 301 300 300 300 300 300 300 298 293 300 300 299 293 290 286 287 290 296 290 289 295 291 292 292 289 292 290 294 292 287 292 294 296 297 298 298 300 300 300 301 301 299 295 293 291
299 299 299 299 299 300 300 300 301 301 301 301 301 301 299 295 287 293 300 300 303 295 288 287 285 283 295 291 292 292 293 285 292 287 289 293 290 285 291 293 294 295 294 295 296 298 299 299 299 298 296 294 291 288
299 299 299 299 299 299 300 300 301 301 301 301 296 286 284 290 300 299 294 290 291 293 292 287 292 285 293 290 288 289 290 288 284 288 294 288 288 294 293 293 293 293 293 294 292 292 294 294 296 295 293 292 291 289
299 299 299 300 299 300 300 300 301 301 299 292 286 288 295 301 296 290 285 286 287 284 288 290 290 287 292 288 288 291 286 288 283 287 286 285 284 288 288 289 291 291 291 292 292 292 290 290 291 293 290 289 288 286
299 298 298 299 299 301 300 300 299 298 296 294 295 297 295 290 288 285 284 285 284 283 286 285 288 291 289 294 289 288 286 287 282 289 285 282 281 283 284 284 286 288 288 288 287 286 286 285 287 289 287 285 284 281
298 298 298 299 298 300 299 300 299 299 299 295 290 285 286 281 282 282 278 282 283 286 287 287 286 290 286 289 289 286 284 284 290 284 282 280 282 283 283 284 283 285 285 284 284 283 282 282 282 282 279 278 278 277
297 297 297 299 296 295 294 294 296 295 293 285 282 275 278 276 278 279 281 283 283 287 288 289 287 290 289 288 287 283 287 287 282 281 278 279 280 281 281 282 281 280 280 280 280 280 279 278 277 277 277 276 275 273
297 296 296 296 296 295 294 293 291 289 284 280 280 273 275 277 278 278 280 281 281 283 288 288 289 290 286 284 286 285 282 280 278 277 278 278 279 279 279 279 279 279 278 278 278 276 276 275 274 273 274 274 273 272
298 297 294 295 295 293 292 292 290 288 282 277 275 274 276 278 275 276 275 276 279 280 286 288 286 284 281 283 279 276 277 275 276 277 278 279 278 278 278 278 278 278 278 277 277 276 275 274 273 272 273 272 272 272
297 295 295 293 293 291 292 289 286 280 277 274 273 275 275 275 273 275 276 276 279 281 282 284 279 276 282 277 273 276 274 275 277 278 278 277 277 277 278 277 277 277 276 276 275 275 274 274 273 272 270 270 271 270
295 296 296 294 293 290 287 286 281 278 273 275 272 273 275 275 274 275 277 278 281 282 280 276 279 273 271 270 271 274 277 278 278 277 277 277 277 278 278 277 277 276 275 275 274 274 274 273 272 271 271 271 270 269
295 296 295 295 294 289 283 282 282 274 274 276 276 276 276 275 276 276 277 277 278 279 277 273 270 268 269 271 271 273 275 276 275 275 275 275 276 276 276 276 276 275 275 275 275 274 274 273 273 272 271 270 268 268
294 294 293 292 293 286 280 280 284 277 274 274 276 274 274 273 274 275 274 275 275 273 269 268 268 269 270 271 272 274 277 279 278 275 274 275 276 275 275 274 274 274 273 273 272 272 271 271 271 271 270 270 268 267
294 293 293 294 290 287 283 281 279 279 277 275 277 276 273 275 272 271 271 273 270 269 268 269 270 271 272 273 274 276 275 276 276 277 275 274 275 275 274 275 275 275 273 272 271 270 270 269 270 270 269 269 268 268
290 290 291 291 287 285 283 285 281 282 279 277 277 276 272 271 271 270 273 269 267 268 269 270 270 271 271 270 272 273 274 275 275 275 274 275 274 274 274 274 273 272 271 271 271 269 269 270 270 269 269 268 268 267
287 288 285 284 281 281 278 286 280 280 275 276 277 272 271 271 272 274 268 269 268 270 271 271 272 272 271 272 272 272 273 273 273 273 273 273 273 273 273 273 273 271 269 269 270 270 269 269 269 269 268 268 267 266
282 275 274 275 278 274 278 275 279 277 277 275 272 269 270 271 273 270 265 267 269 271 270 270 272 272 272 271 270 270 272 273 272 272 273 272 270 270 271 270 271 271 270 270 270 269 269 268 268 268 267 267 266 265
274 267 272 269 273 272 270 270 270 272 269 271 268 268 268 272 267 266 264 267 268 268 269 270 270 270 269 270 270 270 271 272 271 269 271 272 271 271 269 269 269 270 271 270 268 268 268 268 267 267 266 266 265 264
264 266 268 268 268 269 269 266 266 266 268 266 266 268 270 267 264 263 266 267 268 268 269 269 269 269 268 268 268 268 268 271 271 268 268 269 271 271 270 269 268 267 270 270 269 267 267 267 266 266 265 264 263 264
264 265 268 269 270 268 267 267 268 266 264 264 266 264 265 261 261 265 269 269 269 269 270 270 270 269 268 268 269 269 269 269 268 267 268 268 268 268 269 268 267 267 270 270 269 268 267 266 265 265 264 264 265 264
267 268 263 263 264 266 262 263 263 262 264 266 266 260 260 261 263 268 269 270 271 271 270 270 269 269 268 268 269 269 269 269 269 269 269 268 268 267 267 267 267 267 268 269 269 269 268 267 266 265 265 264 263 264
265 267 266 258 262 263 262 262 263 265 266 266 264 263 263 266 268 270 270 271 272 271 269 269 268 269 268 268 267 267 267 267 266 265 264 265 265 265 266 267 267 268 268 268 267 267 267 267 266 266 265 264 263 262
265 268 264 261 260 262 264 265 265 266 267 267 268 266 266 267 268 270 271 271 269 267 267 267 268 268 266 266 265 265 265 265 265 266 266 264 264 265 265 265 266 266 268 267 266 265 264 264 263 263 262 262 263 263
268 268 265 265 263 265 266 265 267 267 267 267 268 266 265 266 268 268 267 268 268 268 269 267 266 265 266 265 266 265 263 264 263 263 265 265 265 265 264 263 264 266 266 265 265 264 264 264 264 263 263 262 260 261
265 264 264 262 264 266 267 268 267 267 267 268 266 266 265 266 264 266 266 266 269 267 263 265 265 263 262 263 263 263 261 263 262 262 263 263 263 262 263 263 263 265 264 264 264 264 261 262 263 263 263 260 260 259
265 266 266 265 265 265 266 267 265 265 266 265 264 263 263 264 262 265 267 265 267 266 265 264 264 263 262 262 262 261 261 261 259 259 258 257 257 259 263 263 263 263 262 263 263 262 260 258 260 259 259 258 258 258

GFSWCAN_sfc_thetae_093.txt.gz
Theta_e
296 296 297 297 297 297 298 299 299 299 299 300 300 300 301 301 301 300 298 302 295 289 291 293 293 290 290 289 286 290 291 292 289 284 285 286 286 288 287 289 288 286 284 283 285 281 280 297 298 292 298 301 302 302
296 296 296 297 297 298 298 298 299 299 299 300 300 301 301 301 301 301 293 301 303 292 292 297 297 297 297 296 292 293 292 290 293 289 290 290 287 290 288 283 294 285 290 288 289 288 297 301 300 302 302 301 302 302
296 296 297 297 297 298 298 299 299 299 300 300 300 301 301 301 301 300 295 297 296 290 291 293 291 299 300 299 301 289 294 294 294 297 293 291 288 292 285 287 290 293 297 292 292 295 297 299 300 301 301 302 302 302
297 297 297 298 298 298 298 298 299 299 300 300 300 300 301 301 301 301 296 297 295 291 284 290 299 295 300 301 299 298 298 297 296 296 291 290 289 294 290 291 291 293 295 293 292 295 297 299 300 301 301 303 303 304
297 297 298 298 298 298 298 298 299 299 300 300 300 301 301 301 301 300 298 298 298 293 287 288 296 299 300 298 298 300 297 294 292 288 287 288 294 293 294 293 291 295 293 291 291 297 297 298 301 303 301 302 303 300
298 298 299 299 299 299 300 299 298 299 299 300 301 301 301 301 300 295 287 296 299 298 291 285 296 294 298 299 298 297 296 295 293 289 289 293 296 294 289 288 295 297 299 299 296 300 300 301 302 303 302 303 301 299
299 300 301 300 300 301 300 301 300 299 300 300 300 301 300 300 298 290 292 296 300 299 289 287 287 296 297 296 297 297 297 294 292 290 290 291 292 294 291 287 294 297 298 299 301 300 298 300 299 302 302 302 298 296
300 299 300 300 300 300 300 301 300 299 300 300 300 300 300 300 298 293 299 300 300 293 290 286 287 288 296 290 290 296 292 292 290 288 291 291 293 293 287 292 295 297 298 298 300 302 301 302 302 302 302 300 298 295
299 299 299 299 300 300 300 300 300 300 301 301 300 300 298 294 290 296 300 300 301 295 288 287 285 284 295 291 292 292 292 286 292 288 289 292 290 286 291 293 294 296 296 297 298 299 299 300 299 301 300 299 297 295
299 299 299 299 299 300 300 300 300 301 301 300 297 286 285 290 300 300 295 290 291 292 294 288 295 288 294 291 288 290 290 288 285 287 294 288 288 294 295 296 296 295 294 295 294 294 294 294 295 295 296 298 296 295
298 299 299 299 300 300 300 300 301 301 297 292 287 287 294 300 296 289 285 286 288 285 290 292 293 290 296 289 288 291 287 289 284 288 287 287 287 290 290 290 291 292 292 292 293 293 293 293 292 291 292 295 293 291
300 298 300 300 300 300 300 301 299 297 295 295 295 297 296 292 288 285 285 287 286 284 289 288 291 293 294 297 292 290 287 287 282 292 286 284 283 285 287 286 287 288 289 289 289 288 287 287 287 288 287 284 284 282
298 298 299 300 300 300 300 300 300 300 300 298 293 288 289 285 283 282 279 282 284 289 289 291 288 291 291 292 291 289 283 284 291 286 284 282 283 284 284 284 284 286 285 284 284 285 284 282 282 282 280 280 280 278
297 297 296 296 297 300 299 300 300 296 295 290 286 278 282 280 282 282 283 285 285 289 290 291 289 290 289 287 287 284 288 289 283 282 279 279 280 281 282 282 281 280 280 280 280 280 279 279 277 278 277 277 276 275
297 296 295 295 295 295 295 294 293 292 287 282 284 277 278 280 281 281 283 284 283 284 289 290 291 292 288 286 288 286 284 282 280 278 278 279 280 280 279 280 279 279 279 279 279 278 277 276 275 275 275 274 273 272
298 297 293 294 295 294 294 294 293 290 285 280 278 277 281 281 279 280 279 280 283 283 287 289 288 285 283 284 282 279 279 277 277 278 279 280 279 279 278 279 278 278 279 279 278 277 276 275 274 274 274 273 273 273
298 296 294 294 294 293 294 291 288 282 280 278 276 279 279 279 278 278 279 279 283 283 285 286 282 279 284 280 276 278 275 277 279 279 280 279 278 278 279 279 278 278 277 277 276 276 275 275 275 273 272 272 272 271
298 295 295 296 296 293 289 289 284 280 275 278 275 277 277 278 278 279 280 281 284 284 284 278 283 277 276 274 275 276 278 280 279 278 278 278 278 278 279 278 277 278 277 276 276 275 275 274 273 272 272 272 271 270
297 296 296 295 294 291 285 285 285 276 276 278 279 279 279 279 279 280 280 282 281 282 281 278 274 272 272 274 274 275 277 278 276 277 278 277 277 277 277 277 277 277 276 277 276 275 275 275 274 273 273 272 271 270
294 294 294 293 295 288 282 282 287 280 277 277 279 277 277 277 279 279 278 278 278 276 272 271 270 271 271 272 274 275 277 279 280 279 278 277 278 277 277 276 276 276 275 274 274 274 273 273 273 273 273 272 270 269
295 293 295 296 292 289 285 283 281 280 280 278 279 278 277 278 276 275 275 276 272 271 270 272 272 273 274 274 276 277 276 277 277 278 277 276 277 277 277 278 277 277 275 273 272 272 271 271 271 271 271 270 270 269
294 293 295 294 288 286 284 286 282 283 281 279 279 278 276 274 273 273 275 272 270 270 272 272 272 273 274 273 274 275 276 277 277 277 277 277 277 276 276 277 276 274 274 274 273 272 272 272 272 272 270 270 270 269
290 292 289 288 283 282 280 288 281 282 278 277 279 275 274 274 275 277 271 271 271 273 274 274 274 274 274 275 275 275 276 276 275 275 276 276 276 277 276 275 275 274 272 272 273 272 272 272 272 271 271 270 269 269
285 280 278 279 281 276 281 278 281 279 278 276 274 271 272 274 277 272 268 270 272 274 273 273 275 275 275 274 272 272 274 276 275 275 276 275 273 273 274 273 273 273 273 273 272 272 271 271 271 271 271 270 269 269
277 270 276 274 278 276 275 274 274 275 272 273 271 271 272 277 271 269 268 269 271 271 272 274 273 272 272 272 272 272 273 274 273 272 274 276 274 273 272 271 271 273 274 272 271 270 270 270 270 270 269 269 268 267
268 270 272 272 273 273 274 271 271 271 272 270 270 273 275 272 268 266 268 270 270 271 271 272 272 272 271 271 271 270 271 274 274 271 270 272 272 274 272 271 270 269 273 273 271 270 270 269 269 268 267 267 266 266
268 269 271 274 274 274 272 273 273 271 269 268 271 269 271 266 265 268 271 271 271 272 273 273 273 272 271 271 271 272 272 271 271 270 271 271 271 271 271 270 269 270 273 272 272 271 269 269 268 267 267 267 267 267
271 271 266 269 269 272 267 268 268 267 268 270 271 265 264 266 266 271 271 272 273 273 273 273 272 272 271 271 271 272 272 272 272 272 272 271 271 271 271 271 270 270 271 272 272 271 271 270 269 268 267 267 267 268
270 272 269 263 268 268 268 268 268 268 269 272 269 267 266 269 272 272 272 273 275 275 272 271 271 273 273 272 271 270 271 270 270 267 267 268 268 268 270 270 271 271 271 270 269 270 270 270 269 269 268 267 267 267
269 274 268 266 265 265 267 270 268 270 272 271 271 269 268 269 271 275 274 273 272 270 271 271 271 271 269 270 268 268 268 268 268 269 268 267 266 268 268 269 269 269 270 270 268 267 267 267 266 266 266 266 266 266
274 274 270 269 267 268 270 270 272 272 272 271 273 270 268 269 270 271 271 271 272 272 272 270 268 268 268 268 268 268 266 267 266 266 268 268 268 267 267 267 268 269 269 269 268 268 267 268 268 266 265 264 263 264
272 270 268 266 267 270 272 273 272 271 271 270 269 270 270 270 267 269 270 271 272 270 266 269 268 266 267 267 267 266 265 266 265 265 266 266 266 266 267 267 267 268 267 267 267 267 264 264 267 266 266 263 263 262
271 271 271 269 268 269 270 272 270 269 271 270 268 269 269 269 265 268 270 270 270 269 268 268 268 266 265 265 265 265 265 264 262 262 261 261 260 262 266 267 267 266 265 266 266 265 262 260 263 263 262 261 261 261

GFSWCAN_sfc_thetae_096.txt.gz
Theta_e
294 295 296 296 296 296 296 297 297 298 298 299 299 300 300 300 300 299 295 300 294 288 290 292 292 289 289 289 285 290 290 291 289 284 283 284 284 286 286 288 286 285 283 283 284 281 279 297 296 291 296 300 300 301
295 295 296 296 296 296 297 298 298 298 299 299 299 300 300 300 301 300 293 300 300 291 290 296 296 297 295 294 291 292 289 285 292 288 288 289 286 290 287 282 293 285 289 287 287 287 297 299 300 302 302 299 300 301
295 295 295 296 296 297 297 298 298 298 299 299 299 300 300 300 301 300 296 298 295 289 290 292 291 297 300 299 301 290 292 293 293 294 291 290 285 290 285 286 288 292 295 289 290 294 296 299 301 302 301 300 301 302
295 295 296 297 297 297 298 298 298 298 299 299 299 300 300 300 302 301 295 297 296 291 284 288 298 295 299 300 299 299 296 295 294 294 288 288 286 292 288 290 290 293 293 292 292 295 297 299 300 301 301 302 302 303
296 296 296 297 297 298 298 298 298 299 299 299 300 300 300 300 301 300 299 297 299 291 286 288 295 297 300 298 297 298 297 295 294 289 287 285 291 292 293 292 289 295 293 291 289 297 296 298 300 302 301 301 302 300
296 297 297 297 297 298 298 299 299 299 299 299 300 300 301 301 301 294 287 296 299 299 289 285 296 295 297 298 297 296 296 296 295 289 287 291 295 292 287 287 294 297 299 299 296 299 299 300 301 302 301 301 300 299
296 297 297 298 299 300 300 300 300 299 299 299 300 300 301 300 297 290 291 296 299 298 287 286 287 294 296 297 297 297 298 296 293 290 288 289 292 293 289 285 292 295 297 298 299 300 298 300 298 301 302 302 300 298
297 299 299 300 300 300 300 300 300 300 300 299 300 300 301 300 298 292 299 300 299 292 290 285 286 289 296 290 290 297 291 292 290 290 291 290 292 291 285 291 294 295 297 298 299 300 299 300 301 300 301 301 299 298
299 300 299 299 300 300 300 300 301 301 300 300 300 300 298 294 289 293 300 300 300 293 286 285 283 283 293 290 291 292 292 285 291 286 289 291 288 285 290 293 294 295 294 294 296 298 298 297 296 297 297 297 297 297
299 299 299 299 299 300 300 300 301 300 300 300 297 287 284 291 300 299 294 290 290 291 292 285 292 286 291 289 288 287 289 287 284 287 292 287 286 292 293 292 291 292 292 293 290 290 291 291 292 293 293 294 295 295
299 299 299 299 300 300 300 300 300 300 300 293 288 288 295 299 294 288 285 285 286 284 289 290 291 288 295 287 285 289 286 288 283 287 286 285 285 285 288 288 289 290 290 290 290 290 290 288 287 288 289 289 288 288
298 300 300 300 300 300 300 300 299 296 295 296 295 297 296 290 287 284 283 285 285 284 291 290 291 293 294 297 289 289 286 287 281 291 287 283 281 283 284 284 285 286 286 285 286 285 285 284 284 284 283 282 281 280
297 300 300 300 300 300 299 298 299 300 300 298 294 289 288 286 282 281 279 282 284 290 291 292 288 290 293 294 291 289 283 283 291 285 282 279 280 282 282 282 282 283 282 282 282 282 282 280 280 281 280 279 279 277
295 298 300 299 298 298 299 300 300 299 297 290 286 281 283 282 283 281 282 285 286 291 291 292 290 289 290 287 288 283 287 288 282 281 276 277 279 280 280 280 280 279 280 279 279 279 278 278 277 277 277 277 276 275
296 295 297 299 298 295 295 295 294 294 289 284 285 278 279 281 282 282 284 285 284 287 288 290 291 290 287 284 285 285 283 281 278 275 277 278 279 279 278 279 278 278 279 278 278 277 275 275 274 274 274 274 273 272
297 294 293 295 296 296 295 295 293 291 286 281 280 279 282 281 280 281 282 282 283 283 286 289 287 285 284 285 283 279 279 274 275 278 278 279 278 278 278 279 278 278 278 278 277 277 275 274 273 273 273 273 273 273
298 291 294 295 295 295 295 291 288 283 281 279 276 280 282 280 279 280 281 280 284 283 285 286 283 280 285 280 276 277 274 276 278 278 279 278 277 277 278 278 278 277 277 276 275 275 275 275 274 272 270 271 271 271
292 293 295 296 295 294 291 290 284 281 276 279 277 278 278 279 279 279 281 282 284 284 284 279 282 278 275 275 273 276 278 280 279 279 278 278 278 277 278 277 277 277 276 275 275 275 274 273 272 271 271 271 270 269
294 295 295 295 296 292 286 285 286 276 278 280 280 281 280 279 280 280 281 282 282 283 282 279 274 272 272 273 273 275 277 278 278 279 278 277 277 277 277 277 276 275 275 275 275 274 274 274 274 273 273 271 269 269
295 294 295 296 296 288 283 283 288 280 277 278 280 278 278 278 280 279 278 279 279 277 273 271 270 271 271 273 275 275 276 278 279 279 277 277 278 278 276 276 275 275 274 274 274 274 273 273 273 273 272 271 269 268
295 294 296 296 291 289 286 283 281 281 281 279 280 279 278 279 276 276 275 277 273 272 270 272 273 274 275 276 276 277 277 277 276 276 276 275 277 278 278 278 277 276 274 273 272 271 271 270 271 271 270 270 269 269
294 293 295 294 288 286 284 286 282 284 281 280 279 279 277 274 274 274 275 271 270 271 273 273 273 275 274 273 274 276 276 278 277 277 277 277 276 276 276 276 275 274 274 273 273 272 271 272 271 270 269 269 269 269
291 293 290 289 283 282 280 288 282 283 278 278 280 276 275 274 275 277 271 271 272 274 275 275 275 275 275 275 275 275 277 276 275 276 276 275 275 276 275 275 275 273 272 273 273 272 272 272 272 271 271 270 269 269
287 282 280 281 281 277 282 279 282 279 279 277 275 272 273 274 277 272 268 270 272 274 274 274 275 275 274 273 272 272 274 276 275 275 276 274 272 273 273 273 273 273 273 273 273 272 272 271 271 271 271 270 269 269
277 272 278 275 280 278 276 276 276 276 273 274 272 272 273 277 272 269 268 270 271 272 273 275 274 273 272 272 272 272 274 274 272 271 272 275 274 273 272 271 272 273 275 272 271 271 271 271 271 270 270 269 268 267
269 271 274 275 275 275 276 273 273 273 273 271 272 274 277 273 269 267 269 271 271 271 272 273 273 272 271 271 270 270 270 274 273 270 270 272 271 273 272 271 270 270 274 274 272 271 270 270 269 268 268 267 267 267
270 270 273 277 277 277 275 275 275 273 271 270 272 272 272 267 266 268 271 272 272 273 273 274 273 272 271 271 272 272 273 272 271 271 272 272 271 271 271 269 268 271 273 273 272 271 270 269 268 268 267 267 268 267
272 273 268 271 272 274 270 270 270 269 270 272 272 267 266 267 267 271 272 273 274 274 273 273 273 272 271 271 272 272 272 273 272 272 272 271 271 272 272 271 271 271 271 271 272 272 271 270 269 268 268 267 267 268
272 273 271 266 270 270 270 270 269 270 271 274 271 268 267 271 273 272 273 274 276 275 273 272 273 274 273 272 271 271 271 270 270 268 268 267 267 268 271 271 271 272 271 269 270 271 271 270 270 269 268 267 267 268
272 276 270 268 267 266 269 272 270 272 273 272 271 270 269 270 273 275 274 274 272 271 272 272 272 271 270 270 268 267 268 268 268 267 266 265 266 268 269 269 269 270 270 269 268 267 268 267 268 267 266 266 266 266
276 275 271 270 267 269 271 274 275 275 275 273 274 270 268 268 270 272 272 273 273 273 272 270 268 269 268 266 267 268 265 266 266 266 267 268 268 267 267 267 268 269 269 269 268 268 267 268 268 267 266 265 262 264
275 272 269 266 267 271 274 274 273 272 272 271 270 271 271 271 268 270 270 271 272 270 268 269 267 266 267 267 267 266 265 265 265 264 263 265 266 266 267 267 268 268 267 267 267 266 266 266 266 266 266 265 265 264
273 273 271 270 268 270 271 273 271 270 272 270 270 271 269 270 266 268 271 272 271 270 268 268 267 266 265 266 266 266 265 263 262 263 262 261 260 261 265 266 266 266 266 266 266 266 265 264 265 264 264 262 262 262

GFSWCAN_sfc_thetae_099.txt.gz
Theta_e
297 296 295 296 296 296 295 296 297 297 297 298 298 298 299 299 300 297 292 294 290 285 285 288 288 285 286 286 282 285 283 286 286 282 280 280 277 283 284 286 284 281 280 279 281 277 277 296 295 290 294 295 295 297
296 296 296 295 296 296 295 296 296 296 297 298 298 299 299 299 299 299 291 296 296 288 286 292 293 293 292 291 287 288 287 286 287 284 282 284 280 284 285 280 288 282 286 284 284 283 293 297 297 300 298 296 295 296
296 295 294 295 295 296 295 296 296 297 298 298 299 298 299 299 299 299 294 295 293 288 287 286 285 291 295 295 294 287 289 290 286 287 287 286 282 286 281 283 285 290 294 288 288 292 294 296 299 300 299 298 299 298
295 294 294 295 295 295 296 296 297 298 298 298 299 299 299 299 299 300 295 297 293 289 279 283 294 291 295 295 294 294 293 293 292 291 287 285 283 290 286 285 285 290 293 290 290 293 294 297 298 299 299 300 299 298
293 294 294 295 295 296 297 297 297 298 298 299 299 299 299 299 300 299 298 298 297 289 281 284 292 294 295 295 293 292 293 292 289 287 285 283 287 288 289 289 287 292 291 288 287 295 294 295 299 301 300 298 297 297
293 294 295 296 296 297 297 297 298 298 298 299 299 299 299 300 299 295 287 296 298 295 287 281 290 291 294 294 293 291 291 290 288 287 286 286 291 287 281 282 292 294 295 295 293 298 297 298 299 299 297 296 296 294
295 295 296 296 297 297 297 298 298 298 299 299 299 300 300 300 298 290 289 293 298 297 285 282 281 291 294 293 291 290 291 289 288 289 285 284 285 289 284 280 291 294 295 297 299 298 296 296 294 297 298 297 296 293
296 296 296 297 297 298 298 299 299 299 300 300 299 300 300 300 298 292 297 300 299 289 288 281 279 284 294 286 284 290 287 290 290 288 288 284 287 285 281 289 292 294 296 294 295 295 295 295 295 294 295 295 294 291
295 295 296 297 298 300 300 300 300 301 300 300 300 300 298 292 288 292 300 300 298 292 284 283 279 279 291 286 290 290 291 284 290 285 286 286 284 280 288 289 289 289 289 290 292 291 291 290 290 290 291 291 290 291
296 297 299 299 299 299 300 300 300 301 301 300 295 287 283 288 300 298 294 289 289 289 290 283 287 281 289 287 285 286 287 284 281 283 289 285 283 288 287 287 287 287 288 288 286 285 286 285 286 286 287 287 286 287
299 299 299 299 299 299 300 300 301 300 299 292 286 286 293 300 293 288 283 283 284 282 286 286 287 285 291 285 284 286 284 285 279 283 284 282 281 283 284 284 285 284 284 285 285 285 284 283 282 284 284 284 283 282
298 299 299 299 299 300 300 301 300 295 293 294 294 296 295 289 285 282 281 283 283 279 283 282 283 288 289 293 286 286 283 284 280 287 283 279 278 281 281 281 282 282 282 282 282 281 281 280 280 281 281 280 279 278
299 300 300 300 300 300 300 299 298 299 298 296 292 288 286 284 279 279 277 277 276 282 284 283 284 286 286 290 285 284 281 279 287 283 276 276 278 279 279 280 279 280 280 280 280 279 279 278 277 277 276 277 277 275
299 300 300 300 300 300 299 299 300 298 295 288 284 280 281 277 281 279 281 282 284 285 283 284 282 285 286 285 285 280 281 284 279 275 271 275 277 278 279 279 278 277 279 278 277 276 275 275 274 273 273 273 274 273
297 298 299 299 299 298 299 298 295 293 287 282 282 276 277 280 281 282 284 283 283 285 285 283 284 285 284 283 284 282 280 277 274 270 274 276 277 278 278 277 273 276 276 276 273 270 269 270 270 269 271 271 271 270
295 295 295 296 296 296 296 294 292 290 284 280 278 278 280 279 278 279 281 280 282 282 285 287 283 283 281 279 280 275 277 271 271 274 276 277 275 277 276 273 273 271 271 270 272 270 269 269 269 269 270 270 269 270
295 290 296 296 296 296 296 290 287 282 280 278 275 278 279 278 276 277 279 279 283 282 284 283 280 278 284 277 273 275 268 273 275 275 275 272 270 269 274 272 274 272 270 269 267 269 269 268 269 269 267 268 269 269
290 293 295 296 295 293 290 288 282 279 276 277 274 274 272 274 274 277 279 280 281 281 281 277 280 273 268 271 268 273 276 276 276 273 270 270 271 269 273 274 274 272 268 268 270 269 270 269 268 268 268 268 268 267
293 293 295 295 294 289 283 283 282 275 276 277 279 278 277 276 277 277 277 280 281 280 279 275 270 269 268 270 270 272 273 274 275 275 268 267 268 270 272 270 271 271 272 272 272 271 272 271 271 271 270 269 267 267
295 295 296 296 295 286 282 281 284 278 274 274 277 275 275 276 277 275 275 276 276 274 270 268 267 268 270 272 273 274 274 276 276 275 272 269 274 270 270 270 269 269 271 272 272 272 271 270 271 271 270 269 267 266
295 293 296 294 289 287 283 280 279 279 279 277 279 277 275 275 273 271 271 274 270 269 268 270 270 271 274 274 275 275 275 276 274 274 274 271 271 273 275 275 273 273 271 270 269 269 269 268 269 269 268 267 267 267
291 294 291 291 284 283 281 283 280 281 278 277 277 278 273 269 269 270 273 269 268 269 271 270 271 273 272 272 273 274 275 275 275 274 274 275 273 272 272 271 271 271 271 270 270 269 269 269 269 268 267 267 268 268
292 290 285 285 279 277 278 286 279 281 275 275 278 274 273 272 274 276 268 270 270 273 273 274 274 275 273 273 273 272 275 274 273 274 273 273 272 272 271 272 272 270 269 270 271 270 270 271 270 268 268 268 267 267
286 279 275 275 277 274 278 275 280 278 276 275 272 269 270 272 275 269 266 268 271 274 273 272 274 273 272 272 270 270 271 274 271 270 272 272 270 271 272 271 271 271 271 271 271 270 270 269 269 269 268 267 267 266
271 268 271 268 275 271 269 269 271 272 269 269 268 268 270 275 267 266 265 268 268 268 270 273 270 270 269 268 268 269 270 272 269 268 270 271 271 270 270 270 270 272 273 270 269 268 268 269 268 268 268 267 267 266
263 266 268 270 269 270 271 267 266 266 266 265 265 270 271 264 261 262 267 266 264 266 265 268 270 267 266 266 265 266 267 270 270 267 268 269 269 270 269 268 267 268 272 270 268 267 267 267 266 266 265 265 266 265
262 264 272 277 276 275 268 269 271 266 263 263 265 266 263 258 258 265 268 269 267 268 269 268 269 269 268 269 270 269 268 269 267 269 270 270 270 269 268 265 265 268 271 270 269 268 266 266 265 265 264 264 264 264
269 270 261 266 268 271 262 263 262 261 263 269 266 259 258 260 262 267 266 269 269 269 268 268 268 268 267 267 267 267 266 269 267 267 268 268 269 269 269 268 268 271 268 269 268 267 266 265 264 263 263 262 262 262
266 269 267 260 263 265 265 262 262 266 268 269 260 260 262 268 267 268 268 270 274 273 269 268 270 270 266 264 263 264 264 264 262 263 262 260 259 264 266 267 268 269 265 266 268 269 268 267 266 264 262 262 262 262
266 272 264 261 259 261 267 266 264 264 268 266 268 268 267 267 271 273 272 269 265 262 261 261 262 262 264 262 258 258 259 258 262 261 257 257 259 259 261 264 265 264 263 262 261 261 266 262 263 260 259 258 257 257
273 270 265 264 263 268 270 271 271 270 269 267 265 263 262 262 263 264 266 269 268 271 265 259 259 258 257 256 258 257 255 257 257 258 261 259 257 256 257 257 258 262 262 263 262 258 258 261 260 256 259 256 255 254
268 264 262 261 265 270 273 268 265 264 263 261 260 261 262 263 260 263 263 266 266 262 264 260 257 257 257 257 256 256 256 254 255 254 253 253 253 255 260 261 260 256 256 256 256 255 254 256 258 260 258 256 254 252
268 267 265 264 262 263 266 264 264 263 263 261 261 262 261 261 258 261 263 267 266 261 261 258 256 256 256 257 256 255 255 253 254 259 257 256 253 254 252 252 255 257 256 257 256 256 255 255 254 252 251 251 250 250

GFSWCAN_sfc_thetae_102.txt.gz
Theta_e
297 297 297 297 296 296 295 296 295 296 297 297 298 297 298 298 299 294 289 291 289 283 284 287 287 283 283 283 280 284 282 285 283 281 280 279 277 282 281 285 284 279 275 273 277 274 275 293 294 287 292 294 295 295
295 296 297 297 296 296 295 295 295 296 297 297 297 297 298 298 298 298 290 295 293 287 283 290 291 291 290 289 285 286 284 284 287 282 283 283 280 283 283 279 286 280 283 281 282 282 291 294 295 300 298 294 293 294
295 296 296 296 296 295 295 295 295 296 296 296 297 297 298 298 299 297 293 294 293 288 286 285 284 290 292 291 292 283 285 290 286 289 285 285 281 285 279 281 283 289 291 287 286 290 292 295 297 300 299 296 296 297
294 295 296 296 295 295 295 295 296 296 296 296 297 297 298 298 299 299 293 295 293 289 280 281 291 288 292 292 291 292 290 291 291 289 286 285 281 289 284 286 284 288 290 289 290 293 294 297 297 297 298 298 298 296
294 295 295 295 295 294 295 295 296 295 296 297 297 298 298 298 299 297 295 295 296 288 280 283 290 293 294 292 290 291 291 290 288 286 284 282 286 287 287 288 286 292 288 286 286 293 292 295 299 299 297 296 297 294
294 294 294 293 293 294 295 296 296 297 297 298 298 298 298 299 299 295 287 296 298 295 286 280 287 290 292 291 291 289 289 289 290 286 284 287 290 288 283 282 291 293 294 294 291 296 296 296 296 298 295 294 294 292
293 293 293 293 293 294 296 296 297 297 298 298 299 299 299 299 297 289 288 292 299 296 284 281 279 286 292 291 288 288 289 287 287 285 286 285 284 287 283 281 289 294 295 294 294 296 292 292 290 293 294 293 291 288
292 293 293 294 295 296 296 297 297 297 297 298 299 299 299 300 298 292 296 300 299 288 287 281 277 281 290 284 283 287 285 287 288 284 285 286 285 286 282 287 288 291 292 291 291 292 291 291 290 289 291 291 290 286
293 294 295 295 296 296 297 297 298 298 298 299 299 299 297 292 287 291 300 299 297 292 283 282 275 274 290 286 289 289 289 283 289 284 283 284 281 282 286 286 285 284 285 286 288 287 287 286 286 286 287 286 286 284
294 295 295 295 295 296 296 297 298 301 301 300 296 287 282 288 299 298 294 289 288 289 289 281 282 280 288 286 284 285 286 281 280 284 287 283 283 285 284 284 283 283 283 284 283 281 282 281 282 283 285 285 285 284
295 295 295 295 296 297 297 299 300 301 299 291 286 286 291 299 293 288 282 283 284 282 284 284 284 284 290 284 284 285 283 284 278 280 282 281 280 280 282 281 282 282 282 281 282 281 280 279 279 281 282 282 282 281
295 296 297 298 299 300 300 300 300 295 293 292 294 296 295 290 285 281 280 283 281 278 281 281 283 287 288 291 285 285 282 283 278 286 279 276 276 279 279 279 280 280 280 280 280 279 279 277 277 278 278 278 278 277
298 299 299 299 299 300 300 299 298 298 298 295 291 287 284 283 277 274 275 277 274 278 281 279 279 284 287 288 285 284 281 280 286 282 273 274 277 278 278 278 278 279 280 278 277 277 277 276 275 275 275 275 276 275
298 298 299 299 299 300 299 298 299 298 294 288 284 280 280 276 277 276 280 282 283 284 281 280 280 284 284 282 280 280 281 283 273 274 270 274 276 277 278 277 276 275 277 276 273 274 273 273 271 271 271 272 272 272
300 300 300 299 300 298 299 299 296 291 286 281 280 274 276 278 279 281 283 282 282 284 284 285 283 283 282 279 283 280 279 273 272 269 272 275 276 277 275 275 273 273 272 272 269 268 267 268 268 268 269 270 270 269
299 299 297 298 298 296 295 293 291 289 283 279 276 277 279 276 276 278 279 279 282 282 284 284 281 281 277 281 278 274 273 266 269 272 274 275 273 273 271 271 270 267 267 266 267 268 266 265 265 265 266 267 266 266
295 293 297 297 295 294 294 288 285 282 279 277 272 277 276 276 274 276 278 278 282 281 283 281 278 276 282 273 271 273 265 270 274 275 274 272 270 269 271 270 269 269 267 265 266 267 267 268 268 267 264 266 267 267
291 294 296 296 294 292 289 287 282 279 275 276 272 273 272 271 269 270 275 279 279 281 280 276 277 271 264 268 264 269 273 274 273 273 272 267 267 266 270 268 269 269 266 266 267 265 265 265 265 266 266 267 266 266
293 293 295 296 294 288 283 282 282 275 275 276 276 274 272 271 274 274 275 276 278 277 276 272 268 266 265 268 267 268 269 272 272 271 270 268 268 270 270 268 268 269 270 270 271 270 268 267 268 267 267 267 265 266
295 295 296 296 293 284 280 279 282 277 272 273 274 272 271 272 271 270 272 274 274 272 269 266 265 266 267 270 272 273 274 276 275 272 271 270 269 266 265 267 266 265 269 270 268 268 268 268 269 269 268 267 266 265
293 292 294 291 287 285 280 278 277 276 277 273 275 275 269 272 270 268 269 273 269 268 266 268 267 270 271 273 273 274 275 275 273 272 271 270 271 272 272 269 269 270 268 266 265 266 265 267 268 268 267 266 267 267
288 294 287 287 283 282 280 279 277 277 276 276 276 276 269 266 264 267 272 268 267 268 268 268 270 270 271 270 271 273 274 275 274 273 273 272 269 270 270 271 271 269 268 267 268 267 267 268 268 268 267 267 268 267
290 288 283 282 277 275 276 285 278 278 272 273 276 272 270 269 272 275 266 269 270 273 273 273 273 273 271 272 271 271 273 271 270 271 271 271 271 271 270 271 270 269 268 269 270 269 268 269 268 267 268 267 267 266
284 277 274 272 274 271 276 274 279 277 275 274 272 268 269 270 273 268 265 267 269 272 272 272 273 271 270 270 268 268 269 271 270 269 270 270 269 268 270 270 270 270 271 271 270 269 269 267 267 267 264 264 264 264
271 267 268 264 270 267 264 263 266 269 264 266 265 265 269 273 264 261 262 264 262 265 266 265 267 267 264 260 262 266 268 269 267 266 268 269 268 268 269 269 270 271 271 269 267 267 267 267 266 266 265 264 264 263
261 263 264 264 265 267 266 262 261 262 261 260 261 268 266 260 257 258 264 263 260 261 259 262 259 263 263 262 262 264 265 265 267 266 267 268 268 266 265 264 265 267 271 269 268 267 267 266 266 265 265 265 265 263
259 260 269 275 274 271 264 265 268 263 259 259 261 260 257 253 254 262 267 264 264 262 263 264 267 266 265 266 267 267 267 266 266 267 269 269 269 268 266 263 263 266 269 268 267 266 265 264 264 264 262 261 262 263
265 266 261 261 264 266 258 257 256 256 258 265 262 255 254 255 259 264 264 264 265 266 266 266 266 266 265 263 262 262 260 264 265 266 267 267 267 267 267 268 267 270 268 267 266 265 266 265 263 261 261 261 260 259
261 264 264 256 259 260 260 257 258 263 266 264 255 255 260 265 261 262 264 267 268 268 266 266 263 261 260 261 259 259 259 260 263 259 256 254 255 260 263 265 265 262 262 264 269 267 265 263 263 263 262 260 258 258
262 265 259 254 256 259 260 258 257 256 264 263 266 267 265 265 268 268 266 265 264 260 254 256 256 259 255 255 252 255 257 255 256 254 253 252 255 255 252 256 260 263 256 257 257 259 264 263 263 258 257 256 256 255
268 261 259 258 261 262 263 263 264 263 258 257 256 257 258 262 262 262 262 260 264 258 258 256 254 249 255 253 251 249 251 252 251 255 256 254 251 251 255 257 254 254 255 255 253 253 255 256 253 252 252 254 253 252
259 255 257 259 262 264 262 257 256 257 253 254 254 252 255 255 255 260 262 258 260 256 252 255 256 255 251 250 248 249 252 249 249 249 249 248 248 248 250 251 251 250 252 250 249 249 252 254 256 255 250 249 248 249
260 261 257 260 259 258 261 259 259 258 257 256 258 258 256 255 254 259 262 261 258 258 256 253 251 250 252 253 252 250 250 249 250 257 254 254 251 251 247 246 247 249 252 252 250 249 250 250 249 248 247 246 246 245

GFSWCAN_sfc_thetae_105.txt.gz
Theta_e
298 298 298 298 298 297 297 297 296 297 296 297 297 298 298 298 298 292 287 291 288 283 282 286 286 282 281 282 277 281 280 281 281 278 280 279 275 279 279 282 282 279 275 271 275 273 273 291 292 285 290 294 296 294
297 297 297 297 298 297 297 296 296 297 296 296 297 298 298 298 298 297 288 292 292 287 282 289 289 290 288 287 283 283 281 280 286 281 281 280 277 282 282 277 285 280 282 279 280 279 287 292 293 297 296 293 293 293
296 296 297 297 296 297 297 296 296 296 296 296 297 297 297 297 298 296 291 292 292 287 286 285 284 289 292 291 292 283 282 288 287 288 283 282 280 282 279 280 283 286 290 284 283 286 290 293 296 297 297 295 297 298
296 296 296 297 297 297 297 296 296 296 296 296 297 297 297 297 298 297 292 292 291 288 281 280 289 286 291 291 290 290 287 289 288 288 283 282 280 286 281 285 284 286 286 288 287 291 293 295 296 297 298 297 294 293
295 295 295 296 296 296 297 296 296 296 295 296 296 297 297 297 298 295 292 293 294 288 279 281 288 290 293 289 288 288 287 286 286 285 284 281 283 284 286 286 285 288 286 285 284 290 292 294 294 299 297 295 293 291
295 295 294 295 295 296 296 296 295 295 295 295 296 297 297 298 298 293 287 294 295 295 286 277 287 289 291 290 288 287 289 288 289 284 283 286 289 287 281 282 289 292 294 290 287 294 293 292 293 295 292 291 290 289
294 294 295 294 295 295 295 295 295 295 295 295 296 297 298 298 296 289 287 292 297 295 284 280 278 284 288 288 286 286 287 286 285 285 282 283 284 286 283 280 286 292 293 293 293 291 288 288 286 290 291 289 288 285
293 293 294 294 294 294 294 295 295 295 295 297 297 298 298 298 297 291 294 299 298 288 287 281 277 279 288 283 283 286 283 285 284 284 287 283 284 283 281 286 285 286 289 289 288 289 288 288 287 288 288 288 286 283
293 293 294 294 294 294 294 295 295 296 297 297 297 298 297 293 288 290 298 299 297 291 283 283 274 274 288 286 288 288 284 282 286 284 283 283 281 281 284 283 282 282 282 283 287 285 284 283 283 285 285 284 284 282
293 293 293 293 294 295 295 296 297 297 297 298 296 287 283 288 297 299 293 287 286 286 288 281 280 277 285 286 285 285 286 281 280 283 286 282 282 282 282 282 282 282 281 282 281 279 279 279 279 281 282 283 283 283
291 292 293 294 294 295 296 297 296 297 297 291 285 285 291 298 293 287 282 282 284 280 284 284 282 281 288 283 283 285 283 281 277 279 281 281 278 278 281 280 281 281 281 280 280 280 278 277 277 279 279 279 280 280
292 293 295 295 296 295 296 296 296 294 290 292 292 295 294 290 285 280 280 282 281 278 279 281 283 285 287 290 284 284 281 282 277 284 280 276 274 278 278 278 279 279 279 278 277 277 277 276 275 276 276 276 276 277
294 294 295 295 296 296 296 296 298 297 298 294 290 286 284 282 277 273 273 278 278 278 278 279 284 283 287 289 285 284 281 280 285 278 273 273 276 277 277 277 276 278 278 276 275 275 275 274 273 273 272 273 273 272
294 295 296 296 297 298 299 298 298 298 293 287 284 279 277 274 277 275 278 279 281 284 283 278 284 284 285 283 283 276 281 283 278 273 268 272 275 277 276 276 275 273 274 273 272 272 271 271 270 270 269 270 269 270
298 298 299 299 300 299 298 298 297 290 286 281 280 274 271 275 280 281 283 282 282 283 284 284 283 283 280 279 280 280 278 270 270 268 270 274 276 276 275 275 273 273 270 268 266 266 265 266 266 266 267 268 269 268
298 299 298 299 299 298 298 296 291 287 283 278 275 275 277 276 275 277 278 278 282 281 284 285 282 280 276 280 277 270 272 267 269 271 274 274 273 274 273 273 269 267 267 266 266 266 265 264 264 263 265 265 265 265
298 295 299 298 296 295 294 287 285 282 279 276 272 275 273 275 272 275 276 277 281 280 282 281 279 275 280 273 270 271 264 267 271 273 273 273 271 268 267 270 270 268 265 264 264 264 264 265 265 264 262 264 265 265
292 295 296 295 293 292 289 286 281 279 275 275 271 271 271 272 271 272 274 276 278 281 280 274 275 269 263 266 263 265 269 271 271 268 267 267 268 268 271 269 269 268 266 265 265 263 263 264 264 264 264 264 264 265
294 294 295 295 292 286 283 281 281 274 273 273 274 273 272 271 273 272 272 274 275 276 275 271 264 262 261 266 264 265 268 269 268 267 269 268 270 269 267 266 268 269 269 268 269 266 263 264 264 264 264 264 263 263
295 295 295 295 293 283 280 278 281 275 270 272 273 269 269 267 269 266 271 273 274 272 267 265 263 264 265 267 270 269 270 273 273 270 269 269 267 267 266 265 265 264 266 266 266 267 266 267 267 266 264 262 261 263
292 292 293 291 286 283 279 277 276 275 276 271 274 273 266 271 268 267 267 272 268 266 265 266 265 268 270 271 272 273 273 273 271 271 270 269 269 270 268 267 269 266 264 262 263 262 264 265 266 266 263 264 265 266
289 293 285 287 283 281 278 277 276 276 275 274 275 274 265 264 263 265 271 267 266 267 266 266 267 268 269 269 270 272 272 273 272 272 271 271 269 269 268 268 268 266 266 266 267 266 266 267 268 267 265 266 267 267
289 287 282 281 277 274 274 284 275 276 270 272 274 269 268 268 270 273 264 269 268 272 273 272 271 271 270 270 271 270 271 270 269 269 270 269 269 269 270 270 269 267 267 268 269 268 267 268 267 266 266 266 266 265
283 276 273 272 273 270 275 272 278 275 274 271 271 267 268 268 271 266 264 265 269 271 271 271 271 269 269 268 266 267 267 269 267 267 267 266 266 267 268 269 270 270 270 270 269 268 266 264 266 266 265 264 263 263
273 269 269 264 268 266 263 261 264 267 262 264 263 265 268 270 261 259 259 262 263 261 261 265 266 264 261 259 261 263 263 266 262 263 265 266 264 265 267 269 269 270 270 267 265 265 264 265 265 265 264 262 263 262
262 262 264 264 263 265 264 260 259 260 260 259 262 266 262 258 255 255 262 259 259 260 255 258 260 261 262 262 261 262 263 263 265 263 265 267 267 263 261 263 264 265 268 266 264 263 264 264 265 265 264 265 264 262
259 260 268 273 272 269 262 263 266 262 258 259 261 255 255 251 251 260 266 262 263 261 262 263 264 264 263 263 265 265 264 264 264 266 267 267 267 267 263 261 261 264 268 267 265 264 263 262 262 263 263 262 263 262
263 265 261 259 261 264 256 255 254 255 257 264 261 253 252 254 258 262 262 261 262 265 265 265 265 264 262 261 260 259 262 260 261 262 263 263 263 264 264 264 265 268 266 265 264 264 263 263 262 261 261 260 259 259
260 262 263 255 257 259 259 256 257 263 266 260 254 254 259 263 261 261 262 263 264 265 262 260 255 254 257 258 256 257 256 259 257 253 251 250 251 257 260 262 259 259 257 261 267 265 263 261 260 260 258 258 256 256
261 263 257 253 256 257 257 258 257 257 263 262 265 266 264 262 265 263 264 264 261 256 253 254 253 253 250 251 250 253 254 253 254 256 252 250 252 255 251 253 255 255 253 256 256 261 265 262 262 258 257 256 256 255
265 259 257 259 258 259 260 255 258 258 255 255 252 256 257 260 262 263 260 255 256 252 255 251 250 248 250 248 248 248 250 251 250 252 251 250 248 248 248 249 249 248 250 251 251 252 252 251 250 250 251 251 250 250
257 253 258 257 259 257 257 253 254 254 250 253 253 249 253 253 253 257 259 258 252 253 250 249 253 252 248 246 245 245 249 247 247 247 248 247 246 245 246 247 245 247 249 249 247 247 249 250 250 252 249 248 247 247
256 255 256 260 260 257 258 258 257 257 253 253 255 253 253 253 253 256 259 257 258 256 254 251 249 249 249 250 249 247 247 247 247 254 252 252 249 250 245 244 245 248 250 247 246 246 248 249 249 248 247 246 245 244

GFSWCAN_sfc_thetae_108.txt.gz
Theta_e
298 298 298 298 299 299 299 298 298 298 297 298 297 297 298 298 298 292 288 291 289 282 281 284 285 282 281 280 276 280 278 280 280 275 276 278 277 279 278 279 279 279 276 272 275 272 273 288 290 285 290 293 296 295
296 298 298 298 298 297 298 298 297 297 297 297 297 297 297 298 298 294 284 291 293 287 282 286 287 288 286 286 281 282 280 278 282 278 279 280 277 281 279 275 285 276 283 280 280 278 286 290 291 295 296 293 293 293
294 297 297 298 298 298 298 297 297 297 297 296 296 297 297 298 298 295 291 292 291 287 285 284 283 288 291 290 290 283 282 285 283 288 278 280 277 280 276 278 283 286 287 283 283 286 288 292 294 296 297 295 296 296
294 296 297 297 297 297 297 297 297 296 296 296 296 297 297 298 298 295 291 292 290 287 280 280 289 285 290 290 289 289 286 288 288 287 283 280 279 285 279 282 281 286 286 285 285 289 291 292 293 295 295 294 292 292
294 296 296 297 297 296 297 297 297 296 296 295 296 296 297 297 297 294 290 292 292 287 280 281 286 289 290 289 287 288 286 284 282 281 283 281 283 283 284 286 284 289 285 283 284 290 291 290 292 295 292 291 291 289
295 296 296 296 296 296 297 297 297 296 296 295 295 296 297 297 298 292 286 292 294 293 285 277 284 286 288 289 286 285 285 284 283 281 281 285 289 286 279 280 287 288 287 289 285 289 288 289 289 291 289 289 288 287
294 295 296 295 296 296 296 295 296 296 295 295 295 296 296 297 293 288 285 291 296 295 284 277 279 284 286 287 285 284 285 287 286 282 280 282 283 284 280 279 284 287 289 288 288 287 285 285 284 287 289 287 286 283
294 294 294 295 295 295 296 296 295 295 295 295 295 296 297 297 295 290 293 297 297 289 287 277 278 279 287 280 280 284 283 285 287 282 285 283 283 282 279 284 283 284 286 286 287 286 284 285 285 285 286 287 284 282
294 295 295 295 295 295 296 295 295 295 294 295 295 296 295 292 287 290 298 298 295 289 282 282 274 272 288 286 288 287 285 281 284 283 281 282 281 279 281 281 281 281 280 280 285 282 282 280 280 282 283 283 283 282
294 294 294 294 295 295 295 295 295 294 295 295 294 287 282 287 296 297 291 287 285 285 286 279 279 275 283 284 283 283 285 277 277 281 284 282 280 281 281 281 281 280 280 280 279 278 277 276 277 278 279 280 281 281
293 293 294 294 294 294 294 295 294 295 295 289 284 285 290 297 292 287 282 281 283 280 283 282 281 277 285 281 282 284 282 281 277 278 280 279 277 277 279 279 279 279 279 277 278 278 278 276 275 276 277 277 278 278
292 293 292 292 293 293 294 295 295 293 288 289 291 294 294 289 285 281 279 281 281 278 278 281 282 283 285 290 284 284 281 280 276 283 280 274 273 277 277 276 277 279 277 276 276 275 275 275 274 275 273 273 274 276
293 292 292 292 293 293 294 296 295 294 293 294 290 286 284 282 278 273 272 277 277 277 277 281 282 281 286 288 284 283 280 278 285 278 271 272 276 277 276 276 276 277 276 275 274 273 273 272 271 271 270 271 271 270
292 293 294 294 295 295 296 296 296 294 292 286 283 277 277 275 277 275 278 279 280 284 284 281 284 284 285 283 283 278 281 282 277 270 269 272 275 276 276 276 275 273 272 272 269 270 269 269 268 267 267 269 268 268
294 294 294 295 296 296 296 296 296 293 287 282 279 272 277 275 275 277 283 282 281 283 284 284 283 283 282 281 281 280 277 269 269 268 270 274 276 275 274 274 272 270 266 266 264 264 263 263 265 263 265 266 266 265
294 294 293 296 296 296 297 295 291 288 282 278 275 275 278 273 272 275 277 278 281 280 283 284 282 279 278 280 277 272 271 268 267 271 274 274 274 274 273 272 269 267 267 265 265 266 264 262 262 263 264 264 264 264
296 295 298 298 298 295 294 288 286 281 279 275 269 273 269 268 268 272 274 275 279 278 281 280 277 273 276 272 270 269 264 268 270 271 271 271 271 272 272 272 270 269 266 265 263 264 262 263 264 264 262 262 263 264
295 298 299 297 293 290 287 285 281 278 273 273 269 269 267 267 269 270 272 273 276 279 278 273 276 269 262 267 264 267 270 271 270 269 269 267 266 265 270 269 269 269 267 265 264 262 262 262 263 262 262 262 261 261
293 293 295 295 291 285 282 281 281 273 273 273 273 273 270 270 272 272 271 274 276 276 275 271 266 261 261 266 264 265 267 270 268 268 268 264 266 266 265 267 269 268 268 265 266 264 262 263 263 263 263 262 261 260
295 295 294 294 292 283 279 277 280 275 269 271 272 270 270 268 269 266 271 272 273 271 267 264 263 264 264 267 268 269 271 274 273 270 268 267 265 264 261 263 262 262 265 265 264 266 265 264 264 263 262 261 260 261
292 292 293 289 285 282 278 276 275 274 274 270 272 272 267 269 266 266 267 272 268 265 265 264 265 268 269 270 271 273 272 273 271 272 271 267 268 269 265 265 265 265 263 261 262 261 261 261 262 263 259 258 262 264
288 291 284 286 282 280 277 277 276 276 274 272 272 272 263 261 261 264 270 266 265 266 266 266 268 268 269 268 269 270 271 272 271 271 270 271 268 268 267 266 266 264 264 264 266 264 266 267 266 265 262 262 264 263
288 286 282 281 275 272 272 281 273 275 268 271 271 267 264 263 266 272 264 268 265 270 269 269 269 270 269 270 270 270 270 270 268 268 269 268 269 269 269 269 268 266 266 266 268 267 266 267 266 265 266 265 264 263
283 275 272 270 272 269 274 271 277 274 272 269 267 266 266 267 270 266 263 264 267 271 270 270 271 268 267 266 264 264 264 266 264 264 265 266 266 266 268 268 269 269 269 269 268 266 265 262 264 264 263 262 261 261
274 269 269 263 267 265 261 259 263 267 261 264 265 264 265 267 259 258 256 260 262 261 261 263 265 264 261 260 262 262 264 264 262 262 265 266 264 265 267 267 267 267 269 265 263 263 262 263 264 262 263 259 262 259
263 263 263 263 262 265 263 260 259 260 260 259 262 263 260 256 253 253 260 257 256 257 253 256 258 261 261 261 260 260 261 262 263 262 264 266 265 259 259 260 261 264 267 265 265 263 264 262 263 264 262 263 263 260
259 260 267 271 271 268 261 262 266 262 257 258 258 254 254 250 250 257 264 261 261 259 260 260 263 263 262 262 264 263 262 263 262 264 265 265 265 265 261 258 259 263 267 265 262 262 262 262 263 263 262 262 261 261
263 265 261 259 260 263 256 255 255 255 257 263 260 252 252 254 256 260 261 260 262 265 264 263 263 262 261 260 259 262 262 260 260 260 261 261 260 260 259 259 259 265 261 264 262 261 260 260 261 261 261 260 258 259
259 261 263 255 258 258 257 255 256 263 265 259 253 252 257 262 259 259 261 262 263 263 259 258 254 252 255 256 254 255 257 257 257 254 251 250 250 255 256 256 254 254 253 257 263 261 259 257 257 256 256 255 255 256
260 263 258 253 254 256 256 258 257 257 262 261 264 265 262 260 261 260 262 260 260 256 252 251 249 249 250 250 249 252 252 250 253 256 253 250 251 251 249 248 250 251 249 250 252 259 264 260 260 255 253 253 252 252
263 259 257 257 257 258 258 254 254 254 252 253 252 254 256 258 261 262 261 256 254 253 254 250 249 246 249 247 247 248 250 250 246 248 249 248 247 247 246 245 245 244 246 248 248 249 250 248 247 248 249 250 248 248
257 255 257 256 258 257 256 251 251 251 249 253 251 248 252 253 252 257 257 253 251 252 249 247 250 251 248 245 243 243 248 246 246 246 247 246 245 244 244 245 243 246 247 247 246 246 248 253 249 248 246 246 245 245
256 254 255 257 257 258 258 257 257 255 252 252 252 250 250 253 254 257 256 255 255 256 253 250 247 248 248 248 248 246 246 245 246 253 251 251 248 248 243 242 244 246 247 246 245 245 246 247 246 246 245 245 243 243

GFSWCAN_sfc_thetae_111.txt.gz
Theta_e
295 296 297 298 299 299 300 300 299 299 299 298 298 298 298 298 298 293 291 292 290 283 283 285 286 283 283 283 279 282 281 283 282 278 278 278 278 280 279 281 280 280 279 277 279 276 274 290 292 287 292 296 298 298
294 296 296 297 299 299 300 299 299 299 298 298 298 298 298 298 298 294 287 291 295 287 283 287 288 289 289 288 284 284 281 282 284 281 281 281 278 281 279 276 284 279 283 280 281 281 288 294 294 297 297 296 296 298
293 294 295 295 298 298 299 299 298 298 298 298 297 297 297 297 298 295 288 291 291 287 285 285 284 289 291 291 291 282 285 287 285 288 283 280 277 282 277 278 281 285 289 284 284 288 290 292 296 295 296 295 297 298
292 293 294 292 297 298 297 298 297 297 297 297 297 296 297 297 298 296 290 292 291 286 280 282 289 287 291 291 290 290 288 290 290 288 283 281 279 285 281 282 281 284 286 285 285 288 291 289 292 294 293 292 291 291
292 293 294 293 297 297 298 297 297 297 297 296 296 296 297 297 297 294 291 291 293 287 280 282 287 290 291 289 288 289 288 287 285 282 281 280 285 284 285 285 284 288 283 280 281 286 288 285 288 291 290 291 290 288
292 293 294 293 296 297 297 297 297 297 297 296 295 296 297 297 296 292 286 291 293 292 284 278 286 286 290 289 287 286 287 286 286 283 283 285 289 286 281 279 287 288 287 285 283 287 286 288 287 288 287 286 286 285
292 293 293 294 296 297 297 297 297 297 296 296 295 296 297 297 293 286 283 290 295 294 285 280 280 286 288 287 286 285 287 286 286 284 284 285 285 286 283 278 284 285 288 287 286 285 283 283 283 285 287 285 285 283
292 293 293 295 296 296 296 296 297 297 296 296 295 296 296 297 295 289 293 296 296 289 287 280 279 282 288 283 283 286 284 286 287 286 286 284 285 285 280 283 283 283 284 283 284 284 283 283 283 284 285 287 284 282
293 293 295 296 296 296 296 296 296 296 295 295 295 296 293 291 287 290 297 297 294 288 282 281 278 276 289 287 287 286 287 280 287 283 283 284 282 279 281 281 280 280 279 279 283 281 280 279 280 281 281 281 282 281
294 294 295 295 295 296 296 296 295 296 295 295 292 286 283 287 296 297 291 286 285 286 286 281 282 278 286 285 284 285 285 282 279 283 286 282 281 281 280 280 280 279 278 279 278 277 277 276 276 278 278 279 279 279
294 294 295 295 295 296 296 296 296 296 295 289 284 284 291 297 292 287 283 282 282 281 283 284 282 281 286 282 283 286 283 282 277 280 281 280 277 277 279 278 279 279 278 277 277 277 276 275 275 276 275 276 277 277
294 294 294 295 295 295 296 296 296 291 290 289 290 293 292 289 285 281 279 282 280 279 281 281 282 284 285 290 284 284 282 281 275 283 280 276 274 277 277 276 277 277 277 276 275 274 274 273 273 274 273 273 273 274
294 294 294 295 295 295 295 295 295 294 293 292 288 285 285 283 278 273 274 278 278 280 280 283 282 283 285 288 285 284 280 277 285 280 274 273 276 277 276 276 276 276 275 274 273 273 272 271 270 270 269 270 272 271
294 294 294 294 294 295 295 295 295 294 291 285 283 277 277 275 277 278 280 281 281 283 282 284 284 284 285 284 284 280 282 282 277 272 270 273 276 276 276 276 275 273 272 271 269 270 269 268 268 267 267 269 268 268
293 294 294 293 294 294 295 295 295 292 286 283 281 273 276 277 279 281 283 282 281 284 285 285 285 285 283 282 283 281 278 271 271 270 272 275 276 275 274 274 273 272 270 269 267 266 265 265 266 265 266 266 267 266
292 292 290 294 294 295 295 294 288 287 282 279 275 276 278 276 276 276 278 278 280 280 283 284 283 280 279 280 278 273 273 270 270 273 274 275 274 274 273 273 271 270 269 267 267 267 266 264 264 264 264 265 264 265
293 291 294 295 295 296 294 287 286 281 279 275 270 273 271 271 271 273 274 274 278 278 282 282 279 276 278 273 270 270 268 271 273 273 274 273 273 272 271 273 272 271 268 267 266 266 265 266 266 266 264 265 265 266
291 294 296 296 295 289 287 285 281 278 273 273 270 270 270 269 269 271 273 274 276 279 279 275 276 272 269 270 267 269 271 272 273 273 272 271 271 269 271 271 270 271 270 268 267 266 266 266 266 266 265 266 266 266
295 295 295 293 291 286 282 281 281 273 273 273 273 273 271 271 272 272 273 274 276 276 275 272 267 265 265 268 268 269 272 273 272 272 272 270 270 270 268 269 270 269 268 269 269 268 267 266 267 267 267 267 266 266
295 294 294 294 291 283 278 278 281 275 270 271 271 270 269 268 270 270 272 273 273 271 268 266 265 266 268 270 270 271 273 275 274 272 272 272 270 269 268 269 269 268 268 268 268 267 268 267 267 267 267 266 266 265
292 292 292 289 284 282 278 277 275 275 274 270 273 272 268 269 268 268 269 272 268 266 265 267 267 270 271 271 272 274 272 273 272 273 273 271 271 271 269 269 269 269 268 267 267 266 266 266 267 267 266 266 266 267
288 291 286 286 281 280 277 278 276 276 274 272 272 272 265 264 263 266 271 267 267 267 269 269 269 270 269 269 270 271 272 272 272 272 271 272 270 270 270 270 270 268 268 268 268 267 268 268 268 267 267 267 267 267
288 285 281 281 275 272 272 281 274 275 268 270 271 268 265 265 268 272 265 268 268 271 271 270 270 271 270 270 270 269 269 270 268 268 269 269 270 270 270 270 270 269 268 268 269 269 268 268 267 267 268 267 267 266
282 274 271 270 272 268 273 270 276 273 271 269 268 265 265 267 270 266 264 265 267 271 270 270 270 267 267 266 265 265 265 267 267 267 267 268 268 268 269 270 270 270 270 270 269 268 268 268 267 267 266 266 266 266
275 268 268 263 267 265 262 260 264 267 262 264 265 265 264 268 262 260 260 263 265 264 263 264 266 266 264 263 264 265 265 267 266 266 266 267 267 268 268 269 268 268 270 269 268 267 267 267 267 266 266 266 265 264
264 263 264 262 262 265 263 261 259 260 261 260 263 263 262 260 257 256 263 262 262 263 261 262 263 264 264 264 264 265 265 266 266 265 265 266 266 265 265 265 266 267 268 268 268 267 267 267 266 266 266 265 264 264
260 260 267 270 270 267 262 262 266 263 259 260 261 257 257 253 254 260 264 263 265 263 264 264 266 266 265 264 265 264 265 265 266 265 266 265 265 265 264 263 263 265 267 267 267 267 267 267 266 266 266 266 265 265
263 264 261 259 260 263 257 256 256 257 259 264 261 254 255 257 258 263 265 263 263 265 264 263 264 264 263 262 262 264 264 263 263 263 264 263 262 261 260 261 260 262 261 264 267 266 266 266 266 265 265 265 264 264
259 261 263 255 257 258 257 256 258 263 264 260 255 254 258 263 262 262 264 265 265 264 262 260 258 257 258 258 256 258 260 262 263 259 259 260 259 261 259 258 259 259 259 263 265 266 264 263 263 263 262 263 261 263
260 263 258 254 253 255 257 259 259 259 262 262 264 264 262 261 261 262 263 263 262 260 258 258 256 257 258 259 257 257 255 254 258 262 260 259 259 258 256 256 257 257 257 260 262 263 264 263 263 261 261 260 260 261
262 259 256 256 256 258 259 256 253 255 254 255 254 257 259 260 262 262 260 258 256 255 257 256 254 252 256 255 257 256 256 256 251 253 255 255 255 256 256 254 254 253 256 258 259 259 259 258 258 259 260 258 256 257
255 253 256 255 257 258 259 254 253 255 255 258 256 252 255 257 257 261 258 258 258 257 254 255 257 258 254 252 250 251 250 254 254 253 253 254 255 254 253 253 252 255 256 257 256 256 257 258 258 257 256 256 255 254
253 252 253 258 257 258 258 259 258 258 256 256 254 252 253 257 257 259 257 257 258 259 257 255 254 254 253 253 254 252 250 252 250 255 252 252 249 251 252 252 254 255 256 256 255 255 255 255 255 254 253 253 252 252

GFSWCAN_sfc_thetae_117.txt.gz
Theta_e
296 296 297 298 298 300 301 301 301 301 300 301 300 300 300 300 300 299 297 300 294 288 291 291 291 288 288 288 284 288 287 289 287 283 283 283 282 284 283 285 283 281 281 282 284 280 278 294 292 286 291 297 294 295
295 295 295 297 297 298 300 301 301 301 300 300 300 300 300 300 300 300 295 300 299 292 290 297 296 296 293 292 289 291 287 285 289 286 287 285 282 285 283 279 289 281 284 282 283 284 291 292 290 294 295 293 292 297
294 294 294 295 296 297 299 299 300 300 300 300 300 300 300 299 299 299 298 298 297 292 290 290 289 295 298 296 297 287 289 290 290 293 289 287 281 286 281 281 284 287 291 285 285 288 287 286 288 290 292 291 292 295
293 293 294 294 295 296 298 297 296 300 299 300 299 299 299 299 300 299 296 299 295 292 285 288 296 294 298 298 297 296 293 295 294 293 288 286 283 288 284 285 283 286 288 285 285 288 288 288 287 288 289 289 291 290
293 293 293 294 294 296 295 297 296 296 298 299 299 299 299 299 299 301 301 300 299 291 285 287 294 295 296 296 295 296 294 291 288 286 285 283 288 287 288 287 284 288 284 282 281 286 285 286 287 288 286 287 287 289
293 293 293 293 294 295 295 296 298 297 298 298 299 299 299 299 299 297 288 298 300 298 289 283 293 293 295 296 294 293 293 291 289 287 285 287 291 288 283 282 287 288 288 286 284 287 288 287 289 288 288 287 287 286
293 293 293 293 294 294 294 293 298 299 298 298 298 298 298 299 299 292 291 297 299 298 289 283 286 293 294 295 293 291 292 291 289 288 286 287 289 290 286 282 288 287 287 287 288 288 286 285 283 286 288 290 289 288
294 294 293 293 293 294 293 291 297 298 298 298 298 298 298 298 297 293 299 298 299 293 292 282 284 288 294 287 285 291 288 289 288 288 289 287 290 289 283 287 287 287 287 286 287 288 285 286 287 286 287 288 288 286
294 294 293 293 294 293 291 296 296 296 297 298 297 297 297 293 290 294 296 295 296 291 285 284 283 282 293 289 290 288 289 283 290 286 287 288 286 282 285 285 284 284 284 282 286 286 285 284 284 285 284 284 284 284
294 293 294 294 294 292 292 296 296 297 297 297 296 288 284 292 297 296 293 288 289 289 289 283 289 285 291 288 287 287 288 285 282 286 290 286 285 285 284 284 284 284 284 283 282 281 280 280 281 282 282 282 282 282
294 293 294 294 294 292 295 296 296 296 296 293 288 288 295 298 294 290 283 282 284 282 286 287 288 287 293 286 285 290 286 287 281 285 284 284 283 280 284 283 284 284 283 282 282 281 279 278 278 279 280 280 280 279
293 293 293 294 294 296 297 297 296 295 293 293 294 296 295 290 285 282 281 284 283 281 288 285 287 290 291 294 288 289 284 286 280 290 284 281 279 281 282 281 282 282 281 280 280 279 278 276 276 277 277 276 276 276
294 294 294 294 296 297 297 296 296 297 297 296 291 287 285 284 278 278 277 280 282 288 289 288 285 289 291 291 288 286 280 282 290 283 281 279 280 281 281 281 280 280 279 278 277 277 276 275 274 273 273 274 275 275
294 294 294 296 296 296 296 296 296 297 294 287 283 279 282 280 282 284 284 286 290 291 290 287 286 287 289 286 287 282 285 285 281 279 277 279 280 279 280 280 278 276 275 275 274 273 273 273 272 272 272 273 273 273
295 296 296 296 296 294 295 296 296 297 291 285 283 280 281 285 286 286 288 288 288 291 290 288 289 288 286 284 285 285 282 279 278 277 277 279 279 279 278 278 277 275 274 274 274 272 271 271 272 271 272 273 273 272
296 296 296 296 296 296 295 295 294 295 288 284 282 281 284 284 282 284 285 284 289 289 292 292 285 283 283 285 282 280 279 278 278 279 280 280 278 278 277 277 276 275 275 274 274 273 272 271 271 272 272 272 272 272
295 292 295 296 296 295 294 292 292 286 284 280 280 282 282 283 283 282 284 283 287 286 285 286 281 280 287 282 279 282 278 279 279 279 280 279 278 277 277 277 276 275 275 274 273 273 273 273 273 273 272 272 273 273
294 296 295 295 296 293 290 291 287 283 276 281 280 279 280 281 281 281 282 283 284 286 286 284 286 281 280 278 278 278 279 280 281 279 279 278 277 277 278 276 276 276 275 273 273 273 274 274 274 274 274 273 274 274
295 296 294 294 294 291 286 286 288 279 279 280 280 280 280 280 280 281 282 282 283 284 286 284 280 280 278 278 278 279 279 280 278 278 277 277 277 276 276 275 276 275 274 275 275 275 275 273 273 275 275 275 274 274
294 294 294 293 294 289 282 283 289 282 279 279 280 280 279 279 280 281 281 282 282 282 279 277 276 276 277 277 279 280 280 282 280 277 276 277 277 277 276 277 276 276 276 275 275 272 275 275 275 274 274 273 274 273
293 294 293 293 290 288 285 284 281 281 280 279 280 281 278 281 280 280 280 282 280 278 276 277 275 276 278 279 280 280 279 281 279 280 279 277 278 278 277 277 277 277 276 275 275 274 274 274 274 274 274 273 273 274
291 292 290 291 286 284 284 286 283 283 281 280 280 282 279 278 278 279 280 278 276 275 278 277 276 276 276 275 275 277 277 278 278 278 278 278 277 277 276 277 277 276 276 276 275 274 274 274 274 274 274 274 273 274
293 292 289 286 281 281 278 286 280 281 277 277 279 277 277 278 278 280 276 276 275 277 277 277 276 277 275 275 275 276 277 277 276 276 277 277 277 277 277 276 277 276 276 275 276 275 274 272 273 274 274 274 274 274
290 285 283 282 282 278 282 279 282 280 279 277 277 273 275 277 277 277 273 275 275 276 276 275 276 275 276 275 275 275 276 277 276 276 277 277 275 275 276 276 276 276 275 275 276 275 275 274 271 274 273 273 273 272
281 277 279 277 281 279 277 277 277 277 275 276 274 274 274 277 274 273 273 273 274 275 275 276 277 277 276 275 275 274 275 277 276 274 275 276 276 276 275 275 274 274 275 275 275 275 274 274 274 274 273 273 271 269
277 274 277 277 278 278 278 274 275 275 276 274 274 276 276 275 272 271 274 275 275 275 276 276 276 276 276 277 275 275 274 277 277 274 274 275 275 275 274 274 274 273 274 274 273 273 274 274 273 270 272 269 268 270
275 274 277 278 279 278 277 278 279 277 274 273 274 273 273 270 271 273 276 277 276 277 278 278 278 277 276 275 275 275 275 275 275 274 274 274 274 274 273 272 270 271 272 272 273 273 272 272 272 272 272 273 272 271
275 276 272 274 275 277 273 275 275 274 275 277 276 271 271 272 272 275 276 278 277 277 277 277 277 277 276 275 275 274 273 273 272 273 273 273 273 272 271 272 271 268 271 272 272 273 272 272 272 272 272 272 271 272
274 275 274 266 270 272 272 273 274 274 274 276 275 271 270 272 274 273 275 276 277 275 273 272 272 273 273 273 273 274 274 274 271 266 265 270 272 271 271 271 271 271 272 272 271 271 271 271 271 271 271 271 271 271
271 276 271 267 266 269 271 272 272 272 273 274 273 270 270 270 272 275 275 275 275 275 275 274 273 273 271 271 270 269 271 272 271 271 270 270 270 269 270 269 269 270 270 270 270 271 268 270 270 271 270 270 270 270
274 274 270 271 269 271 271 270 270 271 272 272 273 273 270 269 271 274 275 276 276 274 273 271 272 273 271 270 271 269 268 268 266 267 268 269 269 269 268 268 269 269 270 269 269 269 269 269 270 268 267 266 265 266
274 270 269 266 267 269 270 271 272 272 271 271 269 270 269 271 269 270 272 273 272 272 272 272 271 271 272 271 269 268 268 267 266 266 265 267 268 266 268 268 268 269 268 268 268 268 267 266 268 267 267 264 264 264
270 271 270 269 268 267 269 270 270 268 270 269 270 271 272 272 268 272 272 275 274 274 273 274 273 270 267 267 268 267 266 266 264 263 262 260 259 263 268 269 269 268 266 267 267 267 264 262 265 264 263 262 262 262

GFSWCAN_sfc_thetae_123.txt.gz
Theta_e
295 296 296 297 298 300 302 302 302 302 302 301 301 301 301 301 301 295 292 295 290 284 286 290 291 286 285 284 279 284 283 284 280 276 276 275 276 280 279 282 281 278 277 274 279 276 272 285 285 279 284 288 288 286
295 295 296 297 297 297 299 302 302 302 302 301 301 300 300 301 301 299 290 296 297 287 286 292 292 293 291 290 285 284 283 284 285 279 282 280 277 276 278 272 283 278 280 278 280 279 286 286 284 286 287 286 287 287
294 295 296 296 297 297 296 297 301 301 301 301 301 301 300 301 300 298 291 294 292 286 285 285 286 292 295 292 292 282 284 289 285 287 279 278 275 278 273 275 277 284 287 280 281 283 284 284 286 286 288 286 288 289
294 294 295 296 297 297 297 296 296 300 301 301 301 300 301 301 300 299 291 294 291 287 276 283 294 291 295 293 291 291 288 289 289 287 279 277 277 283 276 280 276 281 282 279 281 284 285 286 285 285 287 287 286 288
294 294 295 295 296 297 297 296 295 297 301 301 301 300 301 301 300 296 294 294 295 287 281 282 290 292 294 293 291 290 288 286 283 281 277 276 281 281 282 281 274 284 278 274 273 283 283 284 286 286 285 287 286 286
294 294 294 295 295 296 297 297 296 296 300 300 300 299 300 300 299 292 283 293 296 293 282 276 288 289 292 292 290 289 288 286 284 282 279 282 286 281 275 277 284 286 286 284 281 286 287 286 285 286 285 285 288 286
295 294 294 294 294 295 296 296 297 298 298 300 299 300 300 299 294 287 285 291 298 294 280 276 279 288 292 291 288 288 288 287 285 282 280 281 282 283 277 276 285 287 287 287 287 285 281 282 278 283 285 286 287 286
295 294 294 294 294 294 296 296 297 298 299 298 298 298 299 299 297 291 292 298 297 289 285 274 277 284 290 282 281 287 284 285 284 282 282 281 283 282 277 285 287 287 287 288 286 288 285 284 284 284 284 284 283 282
295 294 295 294 294 295 295 296 297 298 299 298 297 297 294 291 288 291 299 298 294 287 276 276 274 273 289 283 286 283 285 280 284 280 280 282 280 277 284 285 283 284 283 282 285 283 283 281 281 282 281 280 279 279
295 294 295 294 294 294 295 296 297 298 298 297 292 287 282 287 298 297 291 285 285 282 283 278 282 278 288 282 277 280 281 278 274 281 285 279 278 283 284 284 284 283 282 282 279 276 277 276 277 278 277 277 277 277
294 294 295 294 294 294 294 295 297 298 296 291 284 285 290 298 290 287 279 277 276 277 281 281 281 280 290 279 278 281 277 279 276 280 281 280 278 281 283 283 283 282 280 279 279 277 275 275 275 275 275 275 276 275
294 294 294 294 294 294 294 294 297 291 289 290 291 293 290 287 281 276 275 277 278 277 280 278 279 283 287 290 280 281 279 279 275 285 281 276 278 280 280 279 279 278 278 277 277 276 275 274 274 274 274 273 274 273
295 295 294 294 294 294 294 296 294 295 296 293 289 284 282 278 268 270 268 274 272 279 281 281 279 284 285 287 280 278 277 273 283 275 274 274 279 279 279 278 276 277 276 275 274 274 274 273 273 273 272 273 273 273
295 295 294 294 293 293 296 295 295 296 292 285 278 274 274 270 274 276 276 277 281 282 285 284 281 281 281 279 281 278 278 278 277 276 273 277 278 278 278 277 275 273 274 273 272 272 271 272 271 271 270 272 272 271
294 294 294 294 293 293 294 296 297 295 287 279 279 269 273 279 281 282 282 283 285 286 287 282 282 283 279 276 282 280 272 274 276 273 274 277 278 278 277 276 274 274 272 270 266 265 264 265 268 266 267 268 270 268
294 294 292 294 293 294 294 295 294 291 283 280 280 274 281 281 280 284 282 284 285 285 285 284 281 280 276 278 278 278 275 274 274 275 276 277 276 276 275 273 272 269 270 266 266 269 265 264 263 265 264 265 264 264
292 289 293 294 294 294 296 292 288 284 281 280 276 279 281 282 280 281 282 282 282 282 279 283 278 277 281 277 277 276 274 274 275 276 276 274 273 272 270 271 270 272 268 267 266 266 266 268 266 267 264 264 264 265
290 294 296 296 295 294 291 289 283 281 279 280 279 279 280 280 281 281 282 282 283 283 282 281 282 280 274 274 275 276 277 277 276 274 274 274 273 274 274 271 272 273 268 267 269 269 268 269 272 272 271 272 268 269
293 294 295 296 294 289 284 284 286 278 279 279 277 277 279 277 279 278 280 280 282 281 280 281 279 276 273 277 276 276 275 274 274 273 273 273 273 272 270 271 271 268 268 268 270 269 267 267 268 268 269 271 268 266
295 295 295 295 295 286 282 281 287 281 278 279 280 279 279 278 279 281 281 281 282 282 278 275 272 275 276 276 278 278 279 277 275 273 272 272 273 273 271 273 270 271 272 270 269 269 274 271 268 269 267 266 267 265
293 293 294 293 288 287 284 282 281 281 280 279 279 279 276 278 279 279 279 280 276 273 272 272 272 273 275 276 278 278 278 278 275 276 274 273 275 273 270 271 274 274 272 271 272 269 268 266 266 270 266 263 267 264
290 294 290 290 285 284 283 284 281 282 280 278 279 280 277 275 277 277 279 274 270 270 273 271 270 271 271 272 274 275 273 274 275 276 274 273 270 273 268 269 271 269 268 269 271 270 267 266 267 270 266 267 267 262
292 291 286 285 281 279 277 285 278 279 274 276 279 276 276 276 276 278 272 273 270 274 276 274 274 273 272 268 270 270 270 272 271 271 271 268 268 268 269 269 269 272 269 266 271 271 266 267 266 264 268 268 270 268
290 282 282 281 281 276 279 278 282 280 278 275 276 275 276 276 276 272 272 270 269 274 272 270 272 270 270 271 269 269 269 271 270 273 270 270 268 266 269 268 267 266 267 269 268 267 266 264 264 270 265 267 262 265
277 275 278 274 279 274 276 277 276 277 275 276 273 274 270 274 268 269 271 269 271 272 271 274 272 272 270 271 266 266 269 273 270 268 269 269 267 267 266 268 267 266 267 265 263 264 268 261 263 262 262 260 262 262
275 272 273 276 275 277 277 275 275 275 275 274 274 273 272 270 270 269 272 270 272 272 272 273 272 275 271 272 269 267 268 272 273 268 266 269 268 266 268 269 267 264 266 262 261 261 262 267 266 263 261 263 260 258
270 271 276 279 279 280 275 276 279 276 274 274 272 268 270 266 265 269 273 272 273 273 273 275 274 273 272 272 272 270 271 270 271 269 269 270 269 268 264 263 262 261 264 262 260 261 260 260 260 263 265 268 261 259
276 275 267 270 273 276 271 275 269 269 273 277 275 269 268 265 266 271 272 275 276 276 276 275 276 275 273 272 271 270 267 266 268 268 269 268 266 263 263 262 262 267 261 260 259 261 259 259 261 266 263 262 262 259
272 275 273 265 268 270 270 270 272 272 272 272 272 268 265 269 271 274 274 274 276 274 271 271 271 272 271 270 269 267 265 264 263 260 260 263 260 261 261 260 260 259 259 264 266 262 260 258 258 258 258 259 259 257
272 276 271 265 263 265 268 270 270 270 270 270 270 269 268 266 269 273 273 273 273 272 270 270 269 269 268 269 269 266 266 264 264 261 259 260 261 260 258 258 258 258 258 258 258 260 266 259 264 263 261 257 256 258
275 273 272 270 266 268 269 269 267 268 267 266 267 269 266 265 268 273 272 271 272 273 271 269 268 267 266 265 263 261 258 258 258 259 263 262 261 260 257 257 257 258 259 257 257 257 256 257 259 260 256 254 254 253
272 272 267 266 266 267 267 266 265 265 264 264 266 266 265 263 262 264 269 271 275 272 270 270 270 269 268 267 264 262 264 262 259 257 259 260 261 257 257 258 258 257 257 256 256 255 255 257 256 256 258 255 253 252
270 270 270 267 263 263 265 266 266 266 266 266 267 265 266 266 265 266 268 271 273 272 272 271 270 268 267 266 265 264 261 260 259 262 260 259 256 258 256 257 256 256 256 256 255 255 255 254 253 252 251 251 250 249

GFSWCAN_sfc_thetae_126.txt.gz
Theta_e
295 296 298 299 300 301 302 302 301 302 302 302 302 302 302 301 301 294 290 294 290 283 285 290 290 284 284 282 279 282 280 282 279 274 275 274 275 279 277 280 280 277 276 272 275 273 270 284 283 277 281 285 286 286
295 295 296 298 299 298 301 301 302 301 301 301 301 301 302 301 301 296 288 294 295 286 285 290 291 291 290 288 283 282 282 282 282 278 279 279 277 275 277 272 281 272 277 274 276 276 285 285 283 285 287 285 286 287
294 295 296 297 298 298 299 301 301 301 301 301 301 301 301 301 300 296 290 291 290 283 282 284 283 288 293 291 290 281 282 287 284 284 278 277 274 276 272 274 274 280 285 277 280 283 284 284 286 286 287 285 287 288
294 294 296 296 297 297 298 299 301 301 301 301 301 300 301 301 301 296 289 291 289 284 274 281 292 288 293 291 289 289 287 288 287 285 278 276 276 282 275 278 274 277 279 276 279 283 284 284 284 284 286 287 286 287
294 294 295 296 297 297 297 296 298 301 301 301 301 301 301 301 300 294 291 291 294 285 278 281 287 290 292 291 289 288 287 284 281 279 275 276 280 280 280 279 273 281 276 274 273 283 282 284 285 285 285 285 287 285
294 294 294 295 297 297 297 296 296 298 300 301 301 301 300 300 297 290 281 289 294 291 281 274 286 287 290 290 288 287 286 284 282 280 277 281 284 280 273 275 282 284 286 283 280 286 286 285 285 285 283 286 287 284
294 294 294 295 296 296 297 296 296 298 300 300 300 300 300 299 291 286 282 288 296 291 278 275 278 286 290 288 286 285 286 284 283 281 279 280 280 283 276 275 283 286 286 284 285 285 282 279 276 282 284 284 285 284
294 294 294 294 295 296 296 296 297 297 297 300 299 299 299 298 294 288 290 297 294 287 283 273 276 281 288 281 282 286 283 284 285 281 280 280 281 280 277 282 285 287 287 286 284 288 284 281 282 281 282 282 280 279
294 295 295 295 295 295 296 296 297 297 300 299 299 298 294 288 287 288 298 295 291 284 275 274 273 271 288 284 284 282 282 277 282 277 279 280 279 277 282 284 282 285 282 281 281 281 280 279 279 278 277 277 277 277
294 295 294 294 295 295 296 296 297 298 296 296 292 286 282 287 296 295 288 280 279 279 280 275 279 273 287 280 275 279 277 276 273 279 283 279 279 282 282 281 280 279 280 281 279 276 276 275 276 276 275 276 276 275
294 295 295 295 295 294 295 297 298 296 294 289 285 284 286 297 290 285 280 272 273 278 279 279 280 278 287 282 275 277 276 277 276 279 280 279 277 280 281 279 279 278 278 277 276 275 274 274 274 274 274 274 275 274
294 295 294 294 294 294 295 297 296 290 289 289 290 293 291 286 279 272 274 274 277 276 278 276 277 280 282 289 280 280 278 278 274 283 280 274 276 278 277 276 276 276 276 275 276 275 274 273 274 273 273 273 272 271
295 295 294 294 294 294 295 296 294 295 295 291 288 282 279 275 273 273 269 274 270 277 278 278 275 279 283 287 283 276 271 273 280 276 271 273 277 276 276 276 275 276 275 274 274 274 274 272 272 272 271 271 272 271
295 295 295 295 295 295 295 294 295 296 291 283 278 275 269 270 272 274 275 275 278 277 279 281 278 279 280 280 280 274 276 274 268 274 272 273 277 277 276 276 275 274 273 272 271 271 271 271 269 269 267 269 269 270
295 295 295 294 294 294 295 294 295 295 286 279 276 266 272 273 275 280 281 277 281 280 284 283 281 282 279 277 281 280 277 274 274 272 269 275 277 277 275 275 274 273 270 269 267 266 265 265 266 264 265 266 268 264
294 293 290 294 293 295 296 295 293 289 283 278 277 273 273 276 279 283 279 282 284 285 284 285 280 278 275 276 278 277 274 273 274 272 275 276 275 274 273 273 272 270 269 266 264 264 263 262 262 263 262 262 261 261
292 287 294 294 293 295 294 290 286 284 280 278 276 272 275 278 279 276 281 281 279 285 282 281 278 274 278 274 276 276 269 271 274 275 272 273 272 270 269 270 269 270 266 265 264 264 264 265 263 265 264 263 262 262
289 292 294 294 292 290 291 287 281 280 277 275 274 271 272 273 274 272 280 282 283 282 281 280 281 277 269 274 273 274 274 273 272 272 270 268 270 271 274 273 272 270 267 266 267 265 265 267 269 269 267 267 266 267
291 292 294 293 293 286 281 282 283 277 273 274 273 272 273 270 270 272 277 281 282 282 280 279 274 270 270 271 272 272 272 270 272 268 266 267 271 272 271 271 271 268 267 266 269 268 265 265 265 265 266 269 263 266
294 294 294 294 294 283 281 280 285 280 276 278 276 274 274 270 274 278 278 278 281 281 274 270 267 269 269 273 271 274 273 274 273 270 267 269 270 270 269 269 266 265 268 268 265 270 270 268 265 265 264 265 262 261
292 291 293 290 286 285 282 280 279 280 279 278 278 278 271 275 273 273 277 279 274 269 267 266 265 272 267 270 271 277 276 276 274 271 270 268 265 268 265 265 268 271 268 269 267 263 262 262 263 265 261 260 259 260
287 293 286 287 282 283 281 283 280 281 279 278 277 278 271 270 271 270 277 271 266 267 268 266 266 267 270 269 271 273 271 272 272 274 270 272 268 267 267 269 269 262 263 264 267 264 262 263 267 264 261 260 262 260
291 289 284 284 279 278 278 282 277 278 272 272 278 275 272 272 274 278 267 270 266 268 266 269 265 266 269 265 271 271 270 273 272 271 271 271 270 267 266 264 269 267 263 263 266 265 263 264 262 261 260 262 264 264
288 281 280 280 278 273 278 275 281 279 276 274 275 274 275 274 274 269 268 263 266 270 268 268 271 269 270 272 270 267 266 270 269 267 268 270 268 263 266 265 265 264 266 266 265 263 262 259 260 264 258 261 257 258
276 274 274 272 276 273 275 274 275 276 273 275 274 272 270 272 264 264 267 265 271 267 269 270 271 271 269 264 262 264 265 272 270 269 266 266 263 265 265 265 264 263 264 266 260 261 264 258 257 257 258 255 260 258
270 270 272 271 271 273 275 272 274 273 272 272 272 272 268 265 267 265 269 266 265 266 268 270 270 269 269 269 266 266 267 270 270 266 264 266 268 268 264 263 259 261 261 258 258 257 257 260 262 261 256 259 258 255
266 266 273 279 277 278 270 273 277 271 269 272 268 264 264 264 262 266 269 268 268 266 271 272 273 272 270 267 268 266 268 269 268 267 267 267 266 265 267 265 260 260 261 258 256 257 256 255 255 256 256 263 259 257
270 271 268 266 268 272 266 271 266 266 269 274 271 265 264 264 265 268 269 268 269 273 272 274 275 274 271 270 269 268 268 268 267 267 267 266 263 260 260 259 259 264 258 255 255 254 255 255 257 259 257 260 259 255
267 269 269 263 263 265 264 266 266 268 269 268 266 263 262 266 266 268 270 270 273 273 271 270 269 270 268 266 263 268 268 268 263 257 254 255 256 259 256 256 255 255 255 259 263 258 256 255 256 257 256 257 256 252
267 271 263 258 261 262 262 264 264 263 267 266 267 267 266 264 265 269 272 273 271 270 269 270 270 269 267 266 263 261 259 258 261 262 259 259 259 257 253 254 254 253 252 253 254 256 261 255 259 257 254 253 252 252
270 268 267 263 259 261 261 261 259 261 260 262 259 261 262 262 265 267 269 268 270 269 268 267 262 267 266 266 265 262 261 260 257 260 260 261 259 258 255 253 252 252 252 252 252 252 252 253 254 253 252 250 249 249
264 266 265 263 262 261 260 260 258 258 257 258 260 258 260 259 259 262 268 272 271 269 267 268 268 267 266 266 263 261 263 263 261 262 261 260 258 255 254 254 252 253 253 252 251 251 251 254 252 252 250 249 248 247
263 261 262 260 258 258 259 261 263 261 260 258 258 260 261 263 263 265 264 268 273 271 269 268 266 266 265 265 264 262 262 259 259 265 262 260 257 256 254 253 252 254 256 254 252 253 252 251 248 248 247 247 246 246

GFSWCAN_sfc_thetae_129.txt.gz
Theta_e
295 298 298 300 301 301 301 301 301 301 301 301 301 301 301 300 298 293 290 293 288 284 286 289 290 284 283 282 279 282 281 282 279 275 276 274 275 278 277 280 279 276 274 270 274 272 269 283 283 277 281 284 285 285
295 296 298 297 299 301 301 301 301 301 301 301 301 301 301 300 298 295 289 294 294 287 286 290 290 291 289 287 283 282 282 282 282 278 278 278 276 274 277 271 280 273 276 273 275 274 282 284 283 285 286 284 284 286
295 295 297 298 298 299 301 301 301 301 301 301 301 302 301 300 299 295 290 291 289 284 282 284 284 289 292 291 289 282 282 286 283 282 277 276 274 276 271 274 274 279 284 277 279 280 282 283 286 285 285 286 286 287
294 295 295 298 298 298 300 301 301 300 301 301 301 301 301 300 299 295 290 291 289 284 277 282 291 287 292 291 289 288 287 287 286 283 277 275 276 281 275 277 274 276 278 276 279 282 284 285 285 283 285 287 287 286
294 294 296 297 298 298 299 300 300 300 301 301 301 301 301 300 298 293 291 292 293 285 279 281 286 289 291 290 288 287 286 283 281 279 275 275 280 279 279 278 272 279 275 273 273 281 280 283 285 284 283 284 287 283
294 294 294 296 297 297 298 299 301 300 300 300 300 301 300 299 296 288 281 288 293 290 280 275 284 286 288 288 286 285 284 282 281 279 277 280 283 279 273 275 280 285 285 281 279 285 285 286 283 283 283 285 285 281
294 294 294 296 297 297 297 297 300 300 300 300 300 300 300 297 290 284 282 287 294 290 278 274 278 284 288 287 285 284 285 283 282 280 278 279 280 281 275 275 281 284 285 284 284 284 281 278 276 281 283 283 283 282
294 294 294 295 296 297 296 297 299 300 300 300 300 299 298 297 294 287 290 296 293 286 282 272 276 280 287 281 282 284 282 283 282 281 280 279 281 279 276 280 282 285 285 283 285 284 280 280 280 279 280 280 279 278
294 294 295 295 295 296 296 296 298 300 300 300 299 297 292 287 286 290 296 294 290 284 276 274 274 272 288 283 283 282 282 277 281 277 278 280 278 276 280 282 283 287 284 280 279 279 279 279 278 278 277 277 277 277
295 295 295 295 296 296 296 297 297 299 299 297 292 285 281 284 296 295 287 280 278 279 281 274 278 273 286 278 276 274 276 274 271 278 281 277 277 280 279 279 279 278 280 281 278 277 277 276 277 276 275 275 276 275
295 295 295 295 295 295 296 297 298 299 295 288 284 282 285 296 286 280 277 272 272 274 278 279 279 277 286 278 275 275 276 277 273 277 276 277 274 278 278 277 278 278 278 277 276 275 275 275 275 275 274 275 274 273
294 294 294 294 294 295 295 296 295 292 289 289 290 293 291 285 279 272 269 274 276 275 277 276 277 279 284 287 280 279 276 278 273 282 279 273 273 276 276 277 277 276 276 275 276 274 274 274 274 273 273 273 272 272
295 295 294 294 294 294 296 296 295 295 296 292 287 282 279 276 271 268 269 273 272 276 276 277 273 278 283 284 279 276 275 274 279 274 271 270 275 276 276 275 275 275 275 274 274 274 273 272 272 272 270 270 272 270
295 295 294 294 294 295 296 295 296 296 290 283 279 275 269 272 271 273 274 275 277 276 277 279 276 277 278 280 282 274 275 279 267 268 271 273 275 276 276 276 275 273 273 272 271 272 271 270 269 268 265 267 267 268
295 295 294 294 294 294 294 295 296 293 285 280 278 270 273 271 273 273 274 275 281 277 280 278 279 278 276 275 279 278 277 274 272 272 268 271 276 276 275 275 273 271 268 267 266 264 262 263 265 263 263 263 266 262
295 293 289 294 294 294 292 293 292 290 282 278 276 275 278 278 278 281 281 280 284 283 280 280 281 276 277 276 278 276 272 266 270 271 274 276 275 274 273 272 270 269 268 266 265 264 262 261 261 262 259 260 258 259
291 285 293 294 295 294 290 287 288 283 281 278 276 277 278 268 275 272 280 282 284 280 275 282 274 275 277 274 277 277 269 267 273 275 271 272 271 270 270 271 269 268 265 263 263 263 263 263 262 264 264 261 260 260
285 291 294 294 292 290 287 289 282 279 275 276 271 275 269 271 270 272 278 281 280 280 281 279 282 277 269 272 269 270 273 272 273 269 268 267 269 268 272 270 270 269 266 264 265 264 264 265 265 265 265 263 263 263
291 292 293 293 291 287 283 282 282 275 274 270 276 272 268 272 276 275 272 274 278 281 281 279 270 270 272 270 271 265 270 267 270 265 264 264 269 271 271 271 268 265 264 264 267 266 264 263 264 263 264 265 262 263
294 293 293 293 293 283 281 279 282 277 272 276 273 270 269 267 269 270 270 275 281 278 274 270 270 268 270 266 267 269 270 273 272 270 266 264 264 266 266 267 265 264 265 265 264 267 265 265 264 264 263 261 260 260
292 292 293 292 284 283 280 278 278 277 276 272 274 276 269 274 275 277 277 279 276 267 267 264 262 273 273 275 267 274 273 274 272 270 270 266 262 268 264 263 267 267 265 263 263 261 261 262 261 262 259 257 256 257
286 294 284 286 281 281 280 281 279 280 277 276 275 277 269 269 268 268 275 272 267 266 266 264 272 271 271 271 266 269 270 270 269 270 269 270 264 264 264 263 267 261 262 263 264 261 261 262 264 263 259 258 259 258
290 288 283 283 277 278 276 281 277 278 272 272 277 272 268 269 272 278 265 269 265 265 264 264 263 263 267 265 270 269 267 272 269 268 268 266 264 262 264 264 265 264 262 262 264 263 261 262 261 258 257 258 260 258
287 280 277 277 277 273 277 275 280 278 275 273 272 270 272 272 274 268 266 262 263 268 266 265 271 270 272 272 268 266 265 270 269 267 268 270 267 263 264 265 264 263 265 265 264 261 260 257 257 260 255 255 253 255
276 274 273 273 274 272 274 274 274 274 270 272 273 270 270 271 264 262 265 264 269 266 266 268 270 271 268 264 265 264 264 271 270 268 263 267 264 265 264 264 262 262 263 262 258 258 258 254 254 255 256 254 259 256
267 268 272 270 270 272 273 269 271 271 272 271 270 270 267 263 264 263 268 264 263 265 268 269 269 267 267 269 268 267 265 267 270 266 263 266 268 266 263 262 260 261 260 258 258 255 257 257 257 258 255 256 255 253
270 268 274 278 277 277 273 272 275 271 266 268 266 264 263 263 261 266 267 266 267 265 271 272 272 272 270 266 266 266 268 267 268 268 266 266 266 267 267 263 260 261 261 258 256 256 256 255 255 255 255 256 258 257
270 271 269 268 270 272 267 266 267 267 269 271 268 263 262 264 267 267 268 266 265 272 273 272 273 273 271 269 267 267 266 266 266 266 266 265 263 260 259 261 262 263 257 254 254 251 252 253 253 253 256 257 257 252
268 269 270 265 263 264 265 268 267 267 268 268 264 263 264 266 263 265 269 267 270 273 271 269 266 268 266 264 261 266 267 266 262 257 255 254 255 258 255 254 254 253 253 255 259 257 256 255 256 255 254 253 250 247
267 270 263 257 261 262 261 263 262 261 266 266 267 266 266 263 263 266 268 268 270 271 270 269 268 268 266 266 260 259 255 256 259 264 262 259 260 256 254 253 253 251 250 253 254 255 260 255 257 252 252 251 249 250
270 268 266 261 259 258 259 257 256 258 256 259 256 260 262 261 262 262 268 264 266 268 267 266 261 267 266 265 265 264 261 258 257 259 258 258 258 258 256 252 251 250 250 251 251 251 250 249 250 250 249 249 247 247
262 265 264 262 261 259 257 257 256 256 254 257 258 255 258 260 260 262 265 270 269 268 264 267 266 265 264 265 264 262 265 264 262 261 262 262 260 258 257 254 252 253 254 251 250 250 251 252 249 248 248 248 246 246
260 260 259 257 258 258 256 258 259 258 258 256 255 256 257 260 261 262 261 265 270 270 268 268 262 266 266 266 265 262 262 262 262 266 264 263 260 259 257 254 255 256 256 253 250 251 251 251 248 247 246 245 245 244

GFSWCAN_sfc_thetae_135.txt.gz
Theta_e
296 296 300 300 300 300 300 299 299 300 299 300 299 299 299 300 298 294 291 293 291 285 286 288 289 285 285 286 282 285 284 284 283 279 279 278 278 280 279 281 280 278 277 276 277 275 273 285 283 280 283 285 285 285
295 296 298 300 300 300 300 300 300 300 300 300 299 300 300 300 299 295 289 293 293 288 286 290 290 291 289 289 286 284 285 284 284 281 281 281 279 280 279 276 282 278 281 279 280 280 284 286 285 286 286 284 286 286
294 296 297 300 300 300 299 300 300 300 300 300 299 300 300 300 298 295 290 290 290 287 287 287 286 291 292 291 292 285 285 287 285 286 283 281 278 281 277 278 279 282 284 282 282 282 284 285 286 287 286 285 288 287
293 295 295 299 300 299 299 299 299 299 300 300 300 300 300 300 299 296 290 291 289 286 281 283 292 289 293 293 291 291 289 288 287 287 283 281 279 282 279 280 280 282 284 281 281 284 285 285 286 286 285 287 287 286
292 295 296 296 300 300 299 298 298 299 300 300 300 300 299 298 297 294 292 292 293 287 281 283 288 290 291 291 289 289 288 286 285 284 282 280 282 282 281 281 279 282 279 280 280 283 285 285 286 286 285 285 285 283
293 294 297 296 297 300 299 299 299 299 299 299 300 298 297 296 294 290 285 291 293 291 284 280 286 286 288 289 288 287 286 285 284 283 282 283 284 282 279 277 282 282 283 282 284 286 285 286 285 286 285 284 282 280
293 293 296 297 297 300 299 299 298 298 299 299 298 298 298 297 293 286 285 290 294 290 283 280 281 286 288 287 286 286 286 285 285 282 282 282 283 284 280 277 282 284 286 285 286 286 283 282 281 284 284 283 282 281
293 294 296 297 298 299 299 299 299 299 299 299 299 298 298 297 295 290 293 294 292 286 285 279 280 284 288 283 283 285 284 285 284 282 283 282 283 282 278 282 283 285 285 285 285 285 283 281 281 280 281 281 279 278
293 294 296 297 297 298 299 299 299 299 299 298 297 295 291 288 287 290 294 292 290 286 279 278 278 277 287 283 284 284 284 279 283 281 282 283 280 278 281 283 284 284 284 282 283 282 281 280 279 278 278 277 277 276
293 294 295 296 296 297 298 299 299 299 298 295 289 283 280 288 294 292 286 283 281 282 283 278 281 280 285 283 280 281 282 278 276 280 283 280 279 278 279 280 281 281 282 282 279 278 278 278 278 276 276 276 275 275
294 294 295 296 296 297 299 299 298 297 294 288 282 282 288 294 286 281 275 277 278 277 280 280 282 282 287 279 278 279 277 280 274 278 278 277 277 278 279 279 280 280 279 278 278 277 277 277 276 276 275 274 274 274
294 294 295 296 296 297 299 297 296 292 289 289 290 291 287 282 277 274 272 277 277 275 279 279 280 284 286 287 280 280 278 279 273 282 278 275 277 277 278 277 277 277 277 276 276 275 275 275 275 274 273 272 272 272
294 294 295 295 296 297 297 295 295 295 295 291 286 280 278 277 270 271 268 273 274 278 279 279 277 283 285 285 280 279 276 275 282 278 276 277 275 277 277 276 275 276 276 275 274 274 273 272 272 272 270 270 271 270
294 294 294 295 295 297 296 296 297 293 289 283 279 272 270 270 272 274 276 276 278 279 279 280 278 280 281 278 279 275 277 279 274 271 274 275 276 277 276 276 275 274 274 274 272 272 270 270 269 268 267 268 268 268
294 294 294 294 295 296 296 295 294 291 285 278 279 270 270 273 274 274 276 278 280 280 281 281 281 281 279 277 280 278 276 274 275 273 276 274 277 276 275 275 272 270 268 268 268 267 267 267 268 267 266 268 268 266
294 293 289 294 294 292 292 292 291 288 283 280 276 273 274 274 275 272 273 278 283 280 282 282 279 276 275 278 277 273 273 270 275 276 275 276 275 275 274 272 270 269 269 268 268 267 266 266 267 268 265 266 264 266
291 285 293 292 291 290 289 287 287 282 280 278 275 274 272 271 272 272 275 279 283 280 277 278 273 275 278 275 275 277 274 276 274 275 277 276 275 273 271 270 269 269 268 268 267 268 268 266 265 268 269 268 267 266
285 291 293 292 289 287 286 287 282 280 275 276 273 276 278 274 273 274 282 284 284 281 281 279 280 276 275 273 274 275 273 276 277 277 274 273 272 272 273 271 270 270 269 268 269 267 267 268 270 270 269 268 268 268
291 291 292 292 290 287 284 282 282 275 275 277 276 276 277 278 278 277 280 282 281 284 283 279 275 276 276 276 276 271 275 275 273 271 269 269 272 271 271 270 269 269 269 269 271 271 270 269 270 271 271 271 270 269
293 293 293 293 292 283 281 279 282 276 273 276 275 275 274 276 276 276 279 282 283 281 280 277 277 278 276 275 273 273 274 273 273 270 269 269 270 270 271 271 271 270 269 269 270 268 270 270 270 270 270 269 270 270
291 291 291 290 284 282 280 278 277 277 277 274 274 275 274 274 274 276 278 280 278 276 276 275 273 271 273 276 272 273 274 276 275 275 272 269 268 271 270 270 271 271 271 271 270 268 268 271 270 270 269 269 268 270
289 292 288 289 281 280 279 279 279 278 275 274 274 275 272 272 272 272 277 276 275 275 273 271 270 274 275 275 271 273 273 272 271 272 270 270 269 269 269 270 271 270 270 270 271 270 270 270 269 269 269 268 265 268
290 287 282 280 275 273 276 279 274 276 270 272 276 271 271 269 272 277 270 273 272 268 268 269 269 274 275 269 269 269 270 273 272 272 273 272 271 271 270 270 271 269 269 268 270 270 269 266 265 267 267 267 268 268
286 278 273 271 274 272 274 272 279 276 275 274 273 269 272 272 274 271 270 270 269 270 271 267 273 273 273 271 271 271 271 272 270 270 271 271 270 269 271 271 270 271 272 271 270 269 268 267 263 267 266 266 265 267
272 271 271 268 273 271 269 270 271 272 268 271 271 270 271 273 269 268 269 270 269 271 271 270 274 275 274 270 269 269 267 273 272 270 269 272 269 268 268 268 268 269 269 269 267 267 266 264 265 266 266 266 267 266
271 272 272 272 274 275 273 270 272 272 271 269 269 270 271 269 267 268 269 270 267 269 269 271 273 271 271 271 271 270 271 272 273 272 268 271 272 271 268 268 268 269 268 270 268 268 266 265 266 266 266 263 259 264
272 271 275 278 278 277 275 275 276 274 271 271 270 269 269 264 263 268 270 269 270 269 270 272 273 273 272 269 269 269 270 271 271 272 270 270 270 272 272 269 268 271 267 267 267 268 267 265 265 264 264 263 264 264
272 273 272 271 272 272 271 271 271 272 272 272 271 267 266 266 269 272 272 271 269 270 271 272 273 273 272 271 268 267 266 266 266 267 268 267 265 265 267 268 267 267 267 266 265 264 266 266 264 263 263 264 262 259
268 269 271 267 269 269 267 268 269 269 269 271 270 268 269 270 268 269 269 269 271 271 270 268 266 267 266 265 265 267 268 269 268 265 266 265 266 267 263 265 265 265 264 264 264 263 263 263 263 263 263 262 259 257
267 270 266 262 265 266 264 265 264 264 265 266 268 268 269 268 265 265 268 270 270 268 267 267 266 268 267 267 265 265 263 263 267 270 268 266 266 265 262 263 264 263 265 265 265 266 264 261 262 260 260 259 260 261
268 266 262 261 260 259 259 258 256 257 258 259 257 262 264 262 264 265 267 266 268 267 267 265 265 266 267 266 267 266 266 266 263 265 266 266 265 265 265 265 265 264 265 265 264 264 262 261 261 261 261 260 257 258
265 263 264 263 261 259 257 257 256 257 256 259 259 257 261 262 261 263 265 264 267 266 265 265 266 266 267 269 269 270 268 269 265 265 265 265 266 265 264 263 263 263 264 264 263 262 262 262 261 261 261 259 258 257
263 261 259 258 259 259 257 257 258 258 257 257 259 256 257 258 259 263 265 265 264 263 266 269 268 268 268 269 269 267 266 268 267 268 266 266 264 264 263 263 263 264 263 262 262 262 261 260 259 258 258 257 256 255